[[{"header":{"parameterUnit":"m.s-1","parameterCategory":1,"la1":31.0,"la2":29.5877,"lo1":-88.7671,"lo2":-86.6584,"dy":0.0162,"dx":0.0185,"nx":115,"ny":88,"refTime":"2023-05-26T18:00:00:Z","depth":0,"parameterNumber":2,"parameterNumberName":"U-component_of_WINDS"},"data":[0.0,0.0,0.0,0.0,0.0,0.0,0.0,0.0,0.0,0.0,0.0,0.0,0.0,0.0,0.0,0.0,0.0,0.0,0.0,0.0,0.0,0.0,0.0,0.0,0.0,0.0,0.0,0.0,0.0,0.0,0.0,0.0,0.0,0.0,0.0,0.0,0.0,0.0,0.0,0.0,0.0,0.0,0.0,0.0,0.0,0.0,0.0,0.0,0.0,0.0,0.0,0.0,0.0,0.0,0.0,0.0,0.0,0.0,0.0,0.0,0.0,0.0,0.0,0.0,0.0,0.0,0.0,0.0,0.0,0.0,0.0,0.0,0.0,0.0,0.0,0.0,0.0,0.0,0.0,0.0,0.0,0.0,0.0,0.0,0.0,0.0,0.0,0.0,0.0,0.0,0.0,0.0,0.0,0.0,0.0,0.0,0.0,0.0,0.0,0.0,0.0,0.0,0.0,0.0,0.0,0.0,0.0,0.0,0.0,0.0,0.0,0.0,0.0,0.0,0.0,0.0,0.0,0.0,0.0,0.0,0.0,0.0,0.0,0.0,0.0,0.0,0.0,0.0,0.0,0.0,0.0,0.0,0.0,0.0,0.0,0.0,0.0,0.0,0.0,0.0,0.0,0.0,0.0,0.0,0.0,0.0,0.0,0.0,0.0,0.0,0.0,0.0,0.0,0.0,0.0,0.0,0.0,0.0,0.0,0.0,0.0,0.0,0.0,0.0,0.0,0.0,0.0,0.0,0.0,0.0,0.0,0.0,0.0,0.0,0.0,0.0,0.0,0.0,0.0,0.0,0.0,0.0,0.0,0.0,0.0,0.0,0.0,0.0,0.0,0.0,0.0,0.0,0.0,0.0,0.0,0.0,0.0,0.0,0.0,0.0,0.0,0.0,0.0,0.0,0.0,0.0,0.0,0.0,0.0,0.0,0.0,0.0,0.0,0.0,0.0,0.0,0.0,0.0,0.0,0.0,0.0,0.0,0.0,0.0,0.0,0.0,0.0,0.0,0.0,0.0,0.0,0.0,0.0,0.0,0.0,0.0,0.0,0.0,0.0,0.0,0.0,0.0,0.0,0.0,0.0,0.0,0.0,0.0,0.0,0.0,0.0,0.0,0.0,0.0,0.0,0.0,0.0,0.0,0.0,0.0,0.0,0.0,0.0,0.0,0.0,0.0,0.0,0.0,0.0,0.0,0.0,0.0,0.0,0.0,0.0,0.0,0.0,0.0,0.0,0.0,0.0,0.0,0.0,0.0,0.0,0.0,0.0,0.0,0.0,0.0,0.0,0.0,0.0,0.0,0.0,0.0,0.0,0.0,0.0,0.0,0.0,0.0,0.0,0.0,0.0,0.0,0.0,0.0,0.0,0.0,0.0,0.0,0.0,0.0,0.0,0.0,0.0,0.0,0.0,0.0,0.0,0.0,0.0,0.0,0.0,0.0,0.0,0.0,0.0,0.0,0.0,0.0,0.0,0.0,0.0,0.0,0.0,0.0,0.0,0.0,0.0,0.0,0.0,0.0,0.0,0.0,0.0,0.0,0.0,0.0,0.0,0.0,0.0,0.0,0.0,0.0,0.0,0.0,0.0,0.0,0.0,0.0,0.0,0.0,0.0,0.0,0.0,0.0,0.0,0.0,0.0,0.0,0.0,0.0,0.0,0.0,0.0,0.0,0.0,0.0,0.0,0.0,0.0,0.0,0.0,0.0,0.0,0.0,0.0,0.0,0.0,0.0,0.0,0.0,0.0,0.0,0.0,0.0,0.0,0.0,0.0,0.0,0.0,0.0,0.0,0.0,0.0,0.0,0.0,0.0,0.0,0.0,0.0,0.0,0.0,0.0,0.0,0.0,0.0,0.0,0.0,0.0,0.0,0.0,0.0,0.0,0.0,0.0,0.0,0.0,0.0,0.0,0.0,0.0,0.0,0.0,0.0,0.0,0.0,0.0,0.0,0.0,0.0,0.0,0.0,0.0,0.0,0.0,0.0,0.0,0.0,0.0,0.0,0.0,0.0,0.0,0.0,0.0,0.0,0.0,0.0,0.0,0.0,0.0,0.0,0.0,0.0,0.0,0.0,0.0,0.0,0.0,0.0,0.0,0.0,0.0,0.0,0.0,0.0,0.0,0.0,0.0,0.0,0.0,0.0,0.0,0.0,0.0,0.0,0.0,0.0,0.0,0.0,0.0,0.0,0.0,0.0,0.0,0.0,0.0,0.0,0.0,0.0,0.0,0.0,0.0,0.0,0.0,0.0,0.0,0.0,0.0,0.0,0.0,0.0,0.0,0.0,0.0,0.0,0.0,0.0,0.0,0.0,0.0,0.0,0.0,0.0,0.0,0.0,0.0,0.0,0.0,0.0,0.0,0.0,0.0,0.0,0.0,0.0,0.0,0.0,0.0,0.0,0.0,0.0,0.0,0.0,0.0,0.0,0.0,0.0,0.0,0.0,0.0,0.0,0.0,0.0,0.0,0.0,0.0,0.0,0.0,0.0,0.0,0.0,0.0,0.0,0.0,0.0,0.0,0.0,0.0,0.0,0.0,0.0,0.0,0.0,0.0,0.0,0.0,0.0,0.0,0.0,0.0,0.0,0.0,0.0,0.0,0.0,0.0,0.0,0.0,0.0,0.0,0.0,0.0,0.0,0.0,0.0,0.0,0.0,0.0,0.0,0.0,0.0,0.0,0.0,0.0,0.0,0.0,0.0,0.0,0.0,0.0,0.0,0.0,0.0,0.0,0.0,0.0,0.0,0.0,0.0,0.0,0.0,0.0,0.0,0.0,0.0,0.0,0.0,0.0,0.0,0.0,0.0,0.0,0.0,0.0,0.0,0.0,0.0,0.0,0.0,0.0,0.0,0.0,0.0,0.0,0.0,0.0,0.0,0.0,0.0,0.0,0.0,0.0,0.0,0.0,0.0,0.0,0.0,0.0,0.0,0.0,0.0,0.0,0.0,0.0,0.0,0.0,0.0,0.0,0.0,0.0,0.0,0.0,0.0,0.0,0.0,0.0,0.0,0.0,0.0,0.0,0.0,0.0,0.0,0.0,0.0,0.0,0.0,0.0,0.0,0.0,0.0,0.0,0.0,0.0,0.0,0.0,0.0,0.0,0.0,0.0,0.0,0.0,0.0,0.0,0.0,0.0,0.0,0.0,0.0,0.0,0.0,0.0,0.0,0.0,0.0,0.0,0.0,0.0,0.0,0.0,0.0,0.0,0.0,0.0,0.0,0.0,0.0,0.0,0.0,0.0,0.0,0.0,0.0,0.0,0.0,0.0,0.0,0.0,0.0,0.0,0.0,0.0,0.0,0.0,0.0,0.0,0.0,0.0,0.0,0.0,0.0,0.0,0.0,0.0,0.0,0.0,0.0,0.0,0.0,0.0,0.0,0.0,0.0,0.0,0.0,0.0,0.0,0.0,0.0,0.0,0.0,0.0,0.0,0.0,0.0,0.0,0.0,0.0,0.0,0.0,0.0,0.0,0.0,0.0,0.0,0.0,0.0,0.0,0.0,0.0,0.0,0.0,0.0,0.0,0.0,0.0,0.0,0.0,0.0,0.0,0.0,0.0,0.0,0.0,0.0,0.0,0.0,0.0,0.0,0.0,0.0,0.0,0.0,0.0,0.0,0.0,0.0,0.0,0.0,0.0,0.0,0.0,0.0,0.0,0.0,0.0,0.0,0.0,0.0,0.0,0.0,0.0,0.0,0.0,0.0,0.0,0.0,0.0,0.0,0.0,0.0,0.0,0.0,0.0,0.0,0.0,0.0,0.0,0.0,0.0,0.0,0.0,0.0,0.0,0.0,0.0,0.0,0.0,0.0,0.0,0.0,0.0,0.0,0.0,0.0,0.0,0.0,0.0,0.0,0.0,0.0,0.0,0.0,0.0,0.0,0.0,0.0,0.0,0.0,0.0,0.0,0.0,0.0,0.0,0.0,0.0,0.0,0.0,0.0,0.0,0.0,0.0,0.0,0.0,0.0,0.0,0.0,0.0,0.0,0.0,0.0,0.0,0.0,0.0,0.0,0.0,0.0,0.0,0.0,0.0,0.0,0.0,0.0,0.0,0.0,0.0,0.0,0.0,0.0,0.0,0.0,0.0,0.0,0.0,0.0,0.0,0.0,0.0,0.0,0.0,0.0,0.0,0.0,0.0,0.0,0.0,0.0,0.0,0.0,0.0,0.0,0.0,0.0,0.0,0.0,0.0,0.0,0.0,0.0,0.0,0.0,0.0,0.0,0.0,0.0,0.0,0.0,0.0,0.0,0.0,0.0,0.0,1.6402,0.0,0.0,0.0,0.0,0.0,0.0,0.0,0.0,0.0,0.0,0.0,0.0,0.0,0.0,0.0,0.0,0.0,0.0,0.0,0.0,0.0,0.0,0.0,0.0,0.0,0.0,0.0,0.0,0.0,0.0,0.0,0.0,0.0,0.0,0.0,0.0,0.0,0.0,0.0,0.0,0.0,0.0,0.0,0.0,0.0,0.0,0.0,0.0,0.0,0.0,0.0,0.0,0.0,0.0,0.0,0.0,0.0,0.0,0.0,0.0,0.0,0.0,0.0,0.0,0.0,0.0,0.0,0.0,0.0,0.0,0.0,0.0,0.0,0.0,0.0,0.0,0.0,0.0,0.0,0.0,0.0,0.0,0.0,0.0,0.0,0.0,0.0,0.0,0.0,0.0,0.0,0.0,0.0,0.0,0.0,0.0,0.0,0.0,0.0,0.0,0.0,0.0,0.0,0.0,0.0,0.0,0.0,0.0,0.0,0.0,1.8731,1.842,1.786,1.7387,1.7002,0.0,0.0,0.0,0.0,0.0,0.0,0.0,0.0,0.0,0.0,0.0,0.0,0.0,0.0,0.0,0.0,0.0,0.0,0.0,0.0,0.0,0.0,0.0,0.0,0.0,0.0,0.0,0.0,0.0,0.0,0.0,0.0,0.0,0.0,0.0,0.0,0.0,0.0,0.0,0.0,0.0,0.0,0.0,0.0,0.0,0.0,0.0,0.0,0.0,0.0,0.0,0.0,0.0,0.0,0.0,0.0,0.0,0.0,0.0,0.0,0.0,0.0,0.0,0.0,0.0,0.0,0.0,0.0,0.0,0.0,0.0,0.0,0.0,0.0,0.0,0.0,0.0,0.0,0.0,0.0,0.0,0.0,0.0,0.0,0.0,0.0,0.0,0.0,0.0,0.0,0.0,0.0,0.0,0.0,0.0,0.0,0.0,0.0,0.0,0.0,0.0,0.0,0.0,0.0,0.0,0.0,0.0,0.0,0.0,0.0,0.0,0.0,1.8616,1.8038,1.7436,0.0,0.0,0.0,0.0,0.0,0.0,0.0,0.0,0.0,0.0,0.0,0.0,0.0,0.0,0.0,0.0,0.0,0.0,0.0,0.0,0.0,0.0,0.0,0.0,0.0,0.0,0.0,0.0,0.0,0.0,0.0,0.0,0.0,0.0,0.0,0.0,0.0,0.0,0.0,0.0,0.0,0.0,0.0,0.0,0.0,0.0,0.0,0.0,0.0,0.0,0.0,0.0,0.0,0.0,0.0,0.0,0.0,0.0,0.0,0.0,0.0,0.0,0.0,0.0,0.0,0.0,0.0,0.0,0.0,0.0,0.0,0.0,0.0,0.0,0.0,0.0,0.0,0.0,0.0,0.0,0.0,0.0,0.0,0.0,0.0,0.0,0.0,0.0,0.0,0.0,0.0,0.0,0.0,0.0,0.0,0.0,0.0,0.0,0.0,0.0,0.0,0.0,0.0,0.0,0.0,0.0,0.0,0.0,0.0,0.0,1.9954,1.9216,1.8849,0.0,1.722,0.0,0.0,0.0,0.0,0.0,0.0,0.0,0.0,0.0,0.0,0.0,0.0,0.0,0.0,0.0,0.0,0.0,0.0,0.0,0.0,0.0,0.0,0.0,0.0,0.0,0.0,0.0,0.0,0.0,0.0,0.0,0.0,0.0,0.0,0.0,0.0,0.0,0.0,0.0,0.0,0.0,0.0,0.0,0.0,0.0,0.0,0.0,0.0,0.0,0.0,0.0,0.0,0.0,0.0,0.0,0.0,0.0,0.0,0.0,0.0,0.0,0.0,0.0,0.0,0.0,0.0,0.0,0.0,0.0,0.0,0.0,0.0,0.0,0.0,0.0,0.0,0.0,0.0,0.0,0.0,0.0,0.0,0.0,0.0,0.0,0.0,0.0,0.0,0.0,0.0,0.0,0.0,0.0,0.0,0.0,0.0,0.0,0.0,0.0,0.0,0.0,0.0,0.0,0.0,0.0,0.0,0.0,0.0,0.0,0.0,2.0616,2.0106,1.9266,1.8562,0.0,0.0,0.0,0.0,0.0,0.0,0.0,0.0,0.0,0.0,0.0,0.0,0.0,0.0,0.0,0.0,0.0,0.0,0.0,0.0,0.0,0.0,0.0,0.0,0.0,0.0,0.0,0.0,0.0,0.0,0.0,0.0,0.0,0.0,0.0,0.0,0.0,0.0,0.0,0.0,0.0,0.0,0.0,0.0,0.0,0.0,0.0,0.0,0.0,0.0,0.0,0.0,0.0,0.0,0.0,0.0,0.0,0.0,0.0,0.0,0.0,0.0,0.0,0.0,0.0,0.0,0.0,0.0,0.0,0.0,0.0,0.0,0.0,0.0,0.0,0.0,0.0,0.0,0.0,0.0,0.0,0.0,0.0,0.0,0.0,0.0,0.0,0.0,0.0,0.0,0.0,0.0,0.0,0.0,0.0,0.0,0.0,0.0,0.0,0.0,0.0,0.0,0.0,0.0,0.0,0.0,0.0,0.0,0.0,0.0,2.1407,2.1074,2.069,1.9646,1.8993,1.8738,0.0,0.0,0.0,0.0,0.0,0.0,0.0,0.0,0.0,0.0,0.0,0.0,0.0,0.0,0.0,0.0,0.0,0.0,0.0,0.0,0.0,0.0,0.0,0.0,0.0,0.0,0.0,0.0,0.0,0.0,0.0,0.0,0.0,0.0,0.0,0.0,0.0,0.0,0.0,0.0,0.0,0.0,0.0,0.0,0.0,0.0,0.0,0.0,0.0,0.0,0.0,0.0,0.0,0.0,0.0,0.0,0.0,0.0,0.0,0.0,0.0,0.0,0.0,0.0,0.0,0.0,0.0,0.0,0.0,0.0,0.0,0.0,0.0,0.0,0.0,0.0,0.0,0.0,0.0,0.0,0.0,0.0,0.0,0.0,0.0,0.0,0.0,0.0,0.0,0.0,0.0,0.0,0.0,0.0,0.0,0.0,0.0,0.0,0.0,0.0,0.0,0.0,0.0,0.0,0.0,0.0,0.0,0.0,2.1706,2.1517,2.1162,2.0735,1.9971,1.9365,0.0,0.0,0.0,0.0,0.0,0.0,0.0,0.0,0.0,0.0,0.0,0.0,0.0,0.0,0.0,0.0,0.0,0.0,0.0,0.0,0.0,0.0,0.0,0.0,0.0,0.0,0.0,0.0,0.0,0.0,0.0,0.0,0.0,0.0,0.0,0.0,0.0,0.0,0.0,0.0,0.0,0.0,0.0,0.0,0.0,0.0,0.0,0.0,0.0,0.0,0.0,0.0,0.0,0.0,0.0,0.0,0.0,0.0,0.0,0.0,0.0,0.0,0.0,0.0,0.0,0.0,0.0,0.0,0.0,0.0,0.0,0.0,0.0,0.0,0.0,0.0,0.0,0.0,0.0,0.0,0.0,0.0,0.0,0.0,0.0,0.0,0.0,0.0,0.0,0.0,0.0,0.0,0.0,0.0,0.0,0.0,0.0,0.0,0.0,0.0,0.0,0.0,0.0,0.0,0.0,0.0,0.0,0.0,0.0,2.216,2.195,2.1643,2.1227,2.0448,1.991,0.0,0.0,0.0,0.0,0.0,0.0,0.0,0.0,0.0,0.0,0.0,0.0,0.0,0.0,0.0,0.0,0.0,0.0,0.0,0.0,0.0,0.0,0.0,0.0,0.0,0.0,0.0,0.0,0.0,0.0,0.0,0.0,0.0,0.0,0.0,0.0,0.0,0.0,0.0,0.0,0.0,0.0,0.0,0.0,0.0,0.0,0.0,0.0,0.0,0.0,0.0,0.0,0.0,0.0,0.0,0.0,0.0,0.0,0.0,0.0,0.0,0.0,0.0,0.0,0.0,0.0,0.0,0.0,0.0,0.0,0.0,0.0,0.0,0.0,0.0,0.0,0.0,0.0,0.0,0.0,0.0,0.0,0.0,0.0,0.0,0.0,0.0,0.0,0.0,0.0,0.0,0.0,0.0,0.0,0.0,0.0,0.0,0.0,0.0,0.0,0.0,0.0,0.0,0.0,0.0,0.0,0.0,0.0,0.0,2.2412,0.0,2.1907,2.1525,2.0857,2.0346,0.0,0.0,0.0,0.0,0.0,0.0,0.0,0.0,0.0,0.0,0.0,0.0,0.0,0.0,0.0,0.0,0.0,0.0,0.0,0.0,0.0,0.0,0.0,0.0,0.0,0.0,0.0,0.0,0.0,0.0,0.0,0.0,0.0,0.0,0.0,0.0,0.0,0.0,0.0,0.0,0.0,0.0,0.0,0.0,0.0,0.0,0.0,0.0,0.0,0.0,0.0,0.0,0.0,0.0,0.0,0.0,0.0,0.0,0.0,0.0,0.0,0.0,0.0,0.0,0.0,0.0,0.0,0.0,0.0,0.0,0.0,0.0,0.0,0.0,0.0,0.0,0.0,0.0,0.0,0.0,0.0,0.0,0.0,0.0,0.0,0.0,0.0,0.0,0.0,0.0,0.0,0.0,0.0,0.0,0.0,0.0,0.0,0.0,0.0,0.0,0.0,0.0,0.0,0.0,0.0,0.0,0.0,0.0,2.2799,2.2451,2.229,2.2045,2.1551,2.1225,2.0727,0.0,0.0,0.0,0.0,0.0,0.0,0.0,0.0,0.0,0.0,0.0,0.0,0.0,0.0,0.0,0.0,0.0,0.0,0.0,0.0,0.0,0.0,0.0,0.0,0.0,0.0,0.0,0.0,0.0,0.0,0.0,0.0,0.0,0.0,0.0,0.0,0.0,0.0,0.0,0.0,0.0,0.0,0.0,0.0,0.0,0.0,0.0,0.0,0.0,0.0,0.0,0.0,0.0,0.0,0.0,0.0,0.0,0.0,0.0,0.0,0.0,0.0,0.0,0.0,0.0,0.0,0.0,0.0,0.0,0.0,0.0,0.0,0.0,0.0,0.0,0.0,0.0,0.0,0.0,0.0,0.0,0.0,0.0,0.0,0.0,0.0,0.0,0.0,0.0,0.0,0.0,0.0,0.0,0.0,0.0,0.0,0.0,0.0,0.0,0.0,0.0,0.0,0.0,0.0,0.0,0.0,0.0,0.0,0.0,2.4288,2.4191,2.3813,2.3086,2.2355,2.1673,0.0,0.0,0.0,0.0,0.0,0.0,0.0,0.0,0.0,0.0,0.0,0.0,0.0,0.0,0.0,0.0,0.0,0.0,0.0,0.0,0.0,0.0,0.0,0.0,0.0,0.0,0.0,0.0,0.0,0.0,0.0,0.0,0.0,0.0,0.0,0.0,0.0,0.0,0.0,0.0,0.0,0.0,0.0,0.0,0.0,0.0,0.0,0.0,0.0,0.0,0.0,0.0,0.0,0.0,0.0,0.0,0.0,0.0,0.0,0.0,0.0,0.0,0.0,0.0,0.0,0.0,0.0,0.0,0.0,0.0,0.0,0.0,0.0,0.0,0.0,0.0,0.0,0.0,0.0,0.0,0.0,0.0,0.0,0.0,0.0,0.0,0.0,0.0,0.0,0.0,0.0,0.0,0.0,0.0,0.0,0.0,0.0,0.0,0.0,0.0,0.0,0.0,0.0,0.0,0.0,0.0,0.0,0.0,0.0,2.6315,2.57,2.4962,2.4103,2.343,2.2548,2.1531,0.0,0.0,0.0,0.0,0.0,0.0,0.0,0.0,0.0,0.0,0.0,0.0,0.0,0.0,0.0,0.0,0.0,0.0,0.0,0.0,0.0,0.0,0.0,0.0,0.0,0.0,0.0,0.0,0.0,0.0,0.0,0.0,0.0,0.0,0.0,0.0,0.0,0.0,0.0,0.0,0.0,0.0,0.0,0.0,0.0,0.0,0.0,0.0,0.0,0.0,0.0,0.0,0.0,0.0,0.0,0.0,0.0,0.0,0.0,0.0,0.0,0.0,0.0,0.0,0.0,0.0,0.0,0.0,0.0,0.0,0.0,0.0,0.0,0.0,0.0,0.0,0.0,0.0,0.0,0.0,0.0,0.0,0.0,0.0,0.0,0.0,0.0,0.0,0.0,0.0,0.0,0.0,0.0,0.0,0.0,0.0,0.0,0.0,0.0,0.0,0.0,0.0,0.0,0.0,0.0,0.0,0.0,0.0,2.8429,2.6867,2.5612,2.47,2.4408,2.341,0.0,0.0,0.0,0.0,0.0,0.0,0.0,0.0,0.0,0.0,0.0,0.0,0.0,0.0,0.0,0.0,0.0,0.0,0.0,0.0,0.0,0.0,0.0,0.0,0.0,0.0,0.0,0.0,0.0,0.0,0.0,0.0,0.0,0.0,0.0,0.0,0.0,0.0,0.0,0.0,0.0,0.0,0.0,0.0,0.0,0.0,0.0,0.0,0.0,0.0,0.0,0.0,0.0,0.0,0.0,0.0,0.0,0.0,0.0,0.0,0.0,0.0,0.0,0.0,0.0,0.0,0.0,0.0,0.0,0.0,0.0,0.0,0.0,0.0,0.0,0.0,0.0,0.0,0.0,0.0,0.0,0.0,0.0,0.0,0.0,0.0,0.0,0.0,0.0,0.0,0.0,0.0,0.0,0.0,0.0,0.0,0.0,0.0,0.0,0.0,0.0,0.0,0.0,0.0,0.0,0.0,0.0,0.0,0.0,2.9074,2.8694,2.7859,2.6594,2.5521,2.4257,0.0,0.0,0.0,0.0,0.0,0.0,0.0,0.0,0.0,0.0,0.0,0.0,0.0,0.0,0.0,0.0,0.0,0.0,0.0,0.0,0.0,0.0,0.0,0.0,0.0,0.0,0.0,0.0,0.0,0.0,0.0,0.0,0.0,0.0,0.0,0.0,0.0,0.0,0.0,0.0,0.0,0.0,0.0,0.0,0.0,0.0,0.0,0.0,0.0,0.0,0.0,0.0,0.0,0.0,0.0,0.0,0.0,0.0,0.0,0.0,0.0,0.0,0.0,0.0,0.0,0.0,0.0,0.0,0.0,0.0,0.0,0.0,0.0,0.0,0.0,0.0,0.0,0.0,0.0,0.0,0.0,0.0,0.0,0.0,0.0,0.0,0.0,0.0,0.0,0.0,0.0,0.0,0.0,0.0,0.0,0.0,0.0,0.0,0.0,0.0,0.0,0.0,0.0,0.0,0.0,0.0,0.0,0.0,2.9393,3.0138,3.0112,2.9555,2.8467,2.6791,2.5186,0.0,0.0,0.0,0.0,0.0,0.0,0.0,0.0,0.0,0.0,0.0,0.0,0.0,0.0,0.0,0.0,0.0,0.0,0.0,0.0,0.0,0.0,0.0,0.0,0.0,0.0,0.0,0.0,0.0,0.0,0.0,0.0,0.0,0.0,0.0,0.0,0.0,0.0,0.0,0.0,0.0,0.0,0.0,0.0,0.0,0.0,0.0,0.0,0.0,0.0,0.0,0.0,0.0,0.0,0.0,0.0,0.0,0.0,0.0,0.0,0.0,0.0,0.0,0.0,0.0,0.0,0.0,0.0,0.0,0.0,0.0,0.0,0.0,0.0,0.0,0.0,0.0,0.0,0.0,0.0,0.0,0.0,0.0,0.0,0.0,0.0,0.0,0.0,0.0,0.0,0.0,0.0,0.0,0.0,0.0,0.0,0.0,0.0,0.0,0.0,0.0,0.0,0.0,0.0,0.0,0.0,0.0,0.0,2.987,3.1219,3.1122,3.0698,2.9957,2.8041,2.6111,0.0,0.0,0.0,0.0,0.0,0.0,0.0,0.0,0.0,0.0,0.0,0.0,0.0,0.0,0.0,0.0,0.0,0.0,0.0,0.0,0.0,0.0,0.0,0.0,0.0,0.0,0.0,0.0,0.0,0.0,0.0,0.0,0.0,0.0,0.0,0.0,0.0,0.0,0.0,0.0,0.0,0.0,0.0,0.0,0.0,0.0,0.0,0.0,0.0,0.0,0.0,0.0,0.0,0.0,0.0,0.0,0.0,0.0,0.0,0.0,0.0,0.0,0.0,0.0,0.0,0.0,0.0,0.0,0.0,0.0,0.0,0.0,0.0,0.0,0.0,0.0,0.0,0.0,0.0,0.0,0.0,0.0,0.0,0.0,0.0,0.0,0.0,0.0,0.0,0.0,0.0,0.0,0.0,0.0,0.0,0.0,0.0,0.0,0.0,0.0,0.0,0.0,0.0,0.0,0.0,0.0,0.0,0.0,3.0839,3.165,3.1398,3.0798,2.9843,2.8466,2.6665,0.0,0.0,0.0,0.0,0.0,0.0,0.0,0.0,0.0,0.0,0.0,0.0,0.0,0.0,0.0,0.0,0.0,0.0,0.0,0.0,0.0,0.0,0.0,0.0,0.0,0.0,0.0,0.0,0.0,0.0,0.0,0.0,0.0,0.0,0.0,0.0,0.0,0.0,0.0,0.0,0.0,0.0,0.0,0.0,0.0,0.0,0.0,0.0,2.7968,0.0,0.0,0.0,0.0,0.0,0.0,0.0,0.0,0.0,0.0,0.0,0.0,0.0,0.0,0.0,0.0,0.0,0.0,0.0,0.0,0.0,0.0,0.0,0.0,0.0,0.0,0.0,0.0,0.0,0.0,0.0,0.0,0.0,0.0,0.0,0.0,0.0,0.0,0.0,0.0,0.0,0.0,0.0,0.0,0.0,0.0,0.0,0.0,0.0,0.0,0.0,0.0,0.0,0.0,0.0,0.0,0.0,0.0,0.0,3.153,3.2156,3.2104,3.1495,3.0338,2.9085,2.7343,0.0,0.0,0.0,0.0,0.0,0.0,0.0,0.0,0.0,0.0,0.0,0.0,0.0,0.0,0.0,0.0,0.0,0.0,0.0,0.0,0.0,0.0,0.0,0.0,0.0,0.0,0.0,0.0,0.0,0.0,0.0,0.0,0.0,0.0,0.0,0.0,0.0,0.0,0.0,0.0,0.0,0.0,0.0,0.0,0.0,0.0,0.0,0.0,0.0,0.0,0.0,0.0,0.0,0.0,0.0,0.0,0.0,0.0,0.0,0.0,0.0,0.0,0.0,0.0,0.0,0.0,0.0,0.0,0.0,0.0,0.0,0.0,0.0,0.0,0.0,0.0,0.0,0.0,0.0,0.0,0.0,0.0,0.0,0.0,0.0,0.0,0.0,0.0,0.0,0.0,0.0,0.0,0.0,0.0,0.0,0.0,0.0,0.0,0.0,0.0,0.0,0.0,0.0,0.0,0.0,0.0,0.0,3.1126,3.2149,3.2728,3.2878,3.229,3.0947,2.964,2.7881,2.5534,0.0,0.0,0.0,0.0,0.0,0.0,0.0,0.0,0.0,0.0,0.0,0.0,0.0,0.0,0.0,0.0,0.0,0.0,0.0,0.0,0.0,0.0,0.0,0.0,0.0,0.0,0.0,0.0,0.0,0.0,0.0,0.0,0.0,0.0,0.0,0.0,0.0,0.0,2.5463,2.6593,0.0,0.0,0.0,0.0,0.0,0.0,0.0,0.0,2.973,0.0,0.0,0.0,0.0,0.0,0.0,0.0,0.0,0.0,0.0,0.0,0.0,0.0,0.0,0.0,0.0,0.0,0.0,0.0,0.0,0.0,0.0,0.0,0.0,0.0,0.0,0.0,0.0,0.0,0.0,0.0,0.0,0.0,0.0,0.0,0.0,0.0,0.0,0.0,0.0,0.0,0.0,0.0,0.0,0.0,0.0,0.0,0.0,0.0,0.0,0.0,0.0,0.0,0.0,0.0,0.0,3.1067,3.2044,3.2819,3.3409,3.3193,3.2375,3.0947,2.9564,2.7864,2.5827,0.0,0.0,0.0,0.0,0.0,0.0,0.0,0.0,0.0,0.0,0.0,0.0,0.0,0.0,0.0,0.0,0.0,0.0,0.0,0.0,0.0,0.0,0.0,0.0,0.0,0.0,0.0,0.0,0.0,0.0,0.0,0.0,0.0,0.0,0.0,0.0,0.0,0.0,0.0,2.7626,2.8344,0.0,0.0,0.0,0.0,0.0,0.0,0.0,0.0,3.0511,0.0,0.0,0.0,0.0,0.0,0.0,0.0,0.0,0.0,0.0,0.0,0.0,0.0,0.0,0.0,0.0,0.0,0.0,0.0,0.0,0.0,0.0,0.0,0.0,0.0,0.0,0.0,0.0,0.0,0.0,0.0,0.0,0.0,0.0,0.0,0.0,0.0,0.0,0.0,0.0,0.0,0.0,0.0,0.0,0.0,0.0,0.0,0.0,0.0,0.0,0.0,0.0,0.0,0.0,0.0,3.1319,3.2498,3.3391,3.4004,3.3707,3.2837,3.1463,2.9919,2.8192,0.0,0.0,0.0,0.0,0.0,0.0,0.0,0.0,0.0,0.0,0.0,0.0,0.0,0.0,0.0,0.0,0.0,0.0,0.0,0.0,0.0,0.0,0.0,0.0,0.0,0.0,0.0,0.0,0.0,0.0,0.0,0.0,0.0,0.0,0.0,0.0,0.0,0.0,0.0,0.0,2.8902,2.9315,2.9968,0.0,0.0,0.0,0.0,0.0,0.0,3.1641,3.1544,0.0,0.0,0.0,0.0,0.0,0.0,0.0,0.0,0.0,0.0,0.0,0.0,0.0,0.0,0.0,0.0,0.0,0.0,0.0,0.0,0.0,0.0,0.0,0.0,0.0,0.0,0.0,0.0,0.0,0.0,0.0,0.0,0.0,0.0,0.0,0.0,0.0,0.0,0.0,0.0,0.0,0.0,0.0,0.0,0.0,0.0,0.0,0.0,0.0,0.0,0.0,0.0,0.0,0.0,0.0,3.185,3.3132,3.4075,3.4644,3.4338,3.3501,3.2161,3.0591,2.8879,0.0,0.0,0.0,0.0,0.0,0.0,0.0,0.0,0.0,0.0,0.0,0.0,0.0,0.0,0.0,0.0,0.0,0.0,0.0,0.0,0.0,0.0,0.0,0.0,0.0,0.0,0.0,0.0,0.0,0.0,0.0,0.0,0.0,0.0,0.0,0.0,0.0,0.0,0.0,0.0,0.0,3.0244,3.1154,3.1094,0.0,0.0,0.0,0.0,3.2541,3.2568,0.0,0.0,0.0,0.0,0.0,0.0,0.0,0.0,0.0,0.0,0.0,0.0,0.0,0.0,0.0,0.0,0.0,0.0,0.0,0.0,0.0,0.0,0.0,0.0,0.0,0.0,0.0,0.0,0.0,0.0,0.0,0.0,0.0,0.0,0.0,0.0,0.0,0.0,0.0,0.0,0.0,0.0,0.0,0.0,0.0,0.0,0.0,0.0,0.0,0.0,0.0,0.0,0.0,0.0,0.0,0.0,3.3729,3.4421,3.5051,3.5582,3.5234,3.4373,3.2924,3.1653,3.0117,0.0,0.0,0.0,0.0,0.0,0.0,0.0,0.0,0.0,0.0,0.0,0.0,0.0,0.0,0.0,0.0,0.0,0.0,0.0,0.0,0.0,0.0,0.0,0.0,0.0,0.0,0.0,0.0,0.0,0.0,0.0,0.0,0.0,0.0,0.0,0.0,0.0,0.0,0.0,0.0,0.0,3.0887,3.1774,3.1877,3.2065,0.0,0.0,3.2814,3.2839,3.2839,0.0,0.0,0.0,0.0,0.0,0.0,0.0,0.0,0.0,0.0,0.0,0.0,0.0,0.0,0.0,0.0,0.0,0.0,0.0,0.0,0.0,0.0,0.0,0.0,0.0,0.0,0.0,0.0,0.0,0.0,0.0,0.0,0.0,0.0,0.0,0.0,0.0,0.0,0.0,0.0,0.0,0.0,0.0,0.0,0.0,0.0,0.0,0.0,0.0,0.0,0.0,0.0,0.0,0.0,0.0,3.2545,3.409,3.5149,3.5933,3.6475,3.6403,3.5624,3.4093,3.2656,3.0948,0.0,0.0,0.0,0.0,0.0,0.0,0.0,0.0,0.0,0.0,0.0,0.0,0.0,0.0,0.0,0.0,0.0,0.0,0.0,0.0,0.0,0.0,0.0,0.0,0.0,0.0,0.0,0.0,0.0,0.0,0.0,0.0,0.0,0.0,0.0,0.0,0.0,0.0,0.0,0.0,0.0,0.0,3.2554,3.2804,0.0,0.0,0.0,3.4093,3.4375,0.0,0.0,0.0,0.0,0.0,0.0,0.0,0.0,0.0,0.0,0.0,0.0,0.0,0.0,0.0,0.0,0.0,0.0,0.0,0.0,0.0,0.0,0.0,0.0,0.0,0.0,0.0,0.0,0.0,0.0,0.0,0.0,0.0,0.0,0.0,0.0,0.0,0.0,0.0,0.0,0.0,0.0,0.0,0.0,0.0,0.0,0.0,0.0,0.0,0.0,0.0,0.0,0.0,0.0,0.0,0.0,0.0,3.4578,3.5949,3.6912,3.7482,3.7434,3.673,3.5359,3.374,0.0,0.0,0.0,0.0,0.0,0.0,0.0,0.0,0.0,0.0,0.0,0.0,0.0,0.0,0.0,0.0,0.0,0.0,0.0,0.0,0.0,0.0,0.0,0.0,0.0,0.0,0.0,2.3989,0.0,0.0,0.0,0.0,0.0,0.0,0.0,0.0,0.0,0.0,0.0,0.0,0.0,0.0,3.2656,3.3314,3.3696,3.3999,0.0,0.0,3.5039,3.5439,3.483,3.439,0.0,0.0,0.0,0.0,0.0,0.0,0.0,0.0,0.0,0.0,0.0,0.0,0.0,0.0,0.0,0.0,0.0,0.0,0.0,0.0,0.0,0.0,0.0,0.0,0.0,0.0,0.0,0.0,0.0,0.0,0.0,0.0,0.0,0.0,0.0,0.0,0.0,0.0,0.0,0.0,0.0,0.0,0.0,0.0,0.0,0.0,0.0,0.0,0.0,0.0,0.0,0.0,0.0,0.0,0.0,3.5935,3.6983,3.7963,3.8806,3.8212,3.7411,3.6485,3.4979,3.3354,0.0,0.0,0.0,0.0,0.0,0.0,0.0,0.0,0.0,0.0,0.0,0.0,0.0,0.0,0.0,0.0,0.0,0.0,0.0,0.0,0.0,0.0,0.0,0.0,0.0,0.0,0.0,0.0,0.0,0.0,0.0,0.0,0.0,0.0,0.0,0.0,0.0,0.0,0.0,0.0,0.0,3.36,3.3901,3.4368,3.4807,0.0,0.0,3.5178,3.5251,3.5178,3.5212,3.547,0.0,0.0,0.0,0.0,0.0,0.0,0.0,0.0,0.0,0.0,0.0,0.0,0.0,0.0,0.0,0.0,0.0,0.0,0.0,0.0,0.0,0.0,0.0,0.0,0.0,0.0,0.0,0.0,0.0,0.0,0.0,0.0,0.0,0.0,0.0,0.0,0.0,0.0,0.0,0.0,0.0,0.0,0.0,0.0,0.0,0.0,0.0,0.0,0.0,0.0,0.0,0.0,0.0,3.4888,3.6515,3.8004,3.9109,3.9779,3.98,3.9388,3.8588,3.6654,3.49,0.0,0.0,0.0,0.0,0.0,0.0,0.0,0.0,0.0,0.0,0.0,0.0,0.0,0.0,0.0,0.0,0.0,0.0,0.0,0.0,0.0,0.0,0.0,0.0,0.0,0.0,0.0,0.0,2.6764,2.7584,2.7782,0.0,0.0,0.0,0.0,0.0,0.0,0.0,0.0,0.0,0.0,3.4088,3.4633,3.5448,0.0,0.0,3.6394,3.681,3.681,3.6506,3.6379,3.6649,3.65,0.0,0.0,0.0,0.0,0.0,0.0,0.0,0.0,0.0,0.0,0.0,0.0,0.0,0.0,0.0,0.0,0.0,0.0,0.0,0.0,0.0,0.0,0.0,0.0,0.0,0.0,0.0,0.0,0.0,0.0,0.0,0.0,0.0,0.0,0.0,0.0,0.0,0.0,0.0,0.0,0.0,0.0,0.0,0.0,0.0,0.0,0.0,0.0,0.0,0.0,0.0,0.0,3.5466,3.6991,3.8778,4.0038,4.0674,4.1036,4.0813,3.9986,3.8067,3.6367,0.0,0.0,0.0,0.0,0.0,0.0,0.0,0.0,0.0,0.0,0.0,0.0,0.0,0.0,0.0,0.0,0.0,0.0,0.0,0.0,0.0,0.0,0.0,0.0,0.0,0.0,0.0,0.0,2.773,2.8524,2.8787,0.0,0.0,0.0,0.0,0.0,0.0,0.0,0.0,0.0,0.0,3.4876,3.5521,3.6267,3.6658,3.6465,3.7251,3.7908,3.7908,3.7753,3.7752,3.7927,0.0,0.0,0.0,0.0,0.0,0.0,0.0,0.0,0.0,0.0,0.0,0.0,0.0,0.0,0.0,0.0,0.0,0.0,0.0,0.0,0.0,0.0,0.0,0.0,0.0,0.0,0.0,0.0,0.0,0.0,2.1983,0.0,0.0,0.0,0.0,0.0,0.0,0.0,0.0,0.0,0.0,0.0,0.0,0.0,0.0,0.0,0.0,0.0,0.0,0.0,0.0,0.0,0.0,3.5967,3.7467,3.9275,4.0655,4.1524,4.1653,4.1285,4.0427,3.9131,3.7609,3.5775,0.0,0.0,0.0,0.0,0.0,0.0,0.0,0.0,0.0,0.0,0.0,0.0,0.0,0.0,0.0,0.0,0.0,0.0,0.0,0.0,0.0,0.0,0.0,0.0,0.0,0.0,2.8246,2.9214,2.9866,0.0,0.0,0.0,0.0,0.0,0.0,0.0,0.0,0.0,0.0,3.5695,3.6228,3.6508,3.6714,3.6857,3.6828,3.7566,3.8115,3.8138,3.8759,3.9262,0.0,0.0,0.0,0.0,0.0,0.0,0.0,0.0,0.0,0.0,0.0,0.0,0.0,0.0,0.0,0.0,0.0,0.0,0.0,0.0,0.0,0.0,0.0,0.0,0.0,0.0,0.0,2.1285,2.1774,0.0,0.0,0.0,0.0,0.0,0.0,0.0,0.0,0.0,0.0,0.0,3.3524,3.393,0.0,0.0,0.0,0.0,0.0,0.0,0.0,0.0,0.0,0.0,0.0,0.0,3.6931,3.8365,4.0199,4.1421,4.2058,4.2344,4.2229,4.1668,4.0062,3.7742,3.478,0.0,0.0,0.0,0.0,0.0,0.0,0.0,0.0,0.0,0.0,0.0,0.0,0.0,0.0,0.0,0.0,0.0,0.0,0.0,0.0,0.0,0.0,0.0,0.0,0.0,2.9479,0.0,0.0,0.0,0.0,0.0,0.0,0.0,0.0,0.0,0.0,0.0,3.4728,3.5447,3.6175,3.6765,3.7196,3.782,3.8246,0.0,0.0,0.0,0.0,0.0,0.0,0.0,0.0,0.0,0.0,0.0,0.0,0.0,0.0,4.2685,4.165,4.1759,4.2004,4.2004,0.0,0.0,0.0,0.0,0.0,0.0,0.0,0.0,0.0,0.0,0.0,0.0,0.0,0.0,0.0,0.0,2.3598,0.0,0.0,0.0,0.0,0.0,0.0,0.0,0.0,3.3742,3.4554,3.5345,3.5747,3.5896,0.0,3.6067,3.5541,0.0,0.0,0.0,0.0,0.0,0.0,0.0,0.0,3.7434,3.882,4.0634,4.183,4.2285,4.2849,4.287,4.2285,4.0179,3.76,3.4631,3.3069,3.1508,0.0,0.0,0.0,0.0,0.0,0.0,0.0,0.0,0.0,0.0,0.0,0.0,0.0,0.0,0.0,0.0,0.0,0.0,0.0,0.0,0.0,0.0,0.0,3.1277,0.0,0.0,0.0,0.0,0.0,0.0,0.0,0.0,0.0,3.4265,3.4978,3.5881,3.6579,3.7253,3.7851,3.8341,0.0,0.0,0.0,0.0,0.0,0.0,0.0,4.2413,4.2605,4.3244,4.3729,4.3882,4.4334,4.495,4.5674,0.0,0.0,4.4148,4.4056,4.4239,4.4239,4.4092,4.4025,4.4025,4.4164,4.4339,0.0,0.0,0.0,0.0,0.0,0.0,0.0,0.0,2.2226,2.287,0.0,2.4451,0.0,0.0,0.0,0.0,0.0,3.1151,0.0,0.0,3.52,3.6191,3.6954,3.753,3.784,3.7862,3.784,3.7818,3.7686,3.5912,0.0,0.0,0.0,0.0,0.0,0.0,3.7496,3.8841,4.0675,4.185,4.2306,4.3139,4.3159,4.2244,3.9675,3.7363,3.5542,3.4372,3.3092,3.1604,3.0438,0.0,0.0,0.0,0.0,0.0,0.0,0.0,0.0,0.0,0.0,0.0,0.0,0.0,0.0,0.0,0.0,0.0,0.0,0.0,0.0,3.2869,0.0,0.0,0.0,0.0,0.0,0.0,0.0,0.0,0.0,0.0,3.5545,3.651,3.7588,3.8216,0.0,0.0,0.0,0.0,4.0377,4.0399,4.1384,4.2132,4.2165,4.3562,4.4601,4.4658,0.0,0.0,4.5927,4.6266,4.6643,4.7136,4.764,4.7588,4.634,4.5884,4.5609,4.5577,4.535,4.4986,4.5,4.5554,4.5927,2.1439,0.0,0.0,0.0,0.0,2.2299,2.2467,2.2477,2.3546,2.4167,2.4424,2.5281,0.0,0.0,0.0,0.0,0.0,0.0,3.383,3.5066,3.6258,3.7371,3.8388,3.8578,3.8799,3.9082,3.9082,3.8875,3.8494,3.7968,3.7369,3.6762,0.0,0.0,0.0,0.0,3.8592,3.9358,4.1167,4.2161,4.2285,4.3139,4.3014,4.183,3.9744,3.791,3.6453,3.5049,3.3759,3.2545,3.1403,0.0,0.0,0.0,0.0,0.0,0.0,0.0,0.0,0.0,0.0,0.0,0.0,0.0,0.0,0.0,0.0,0.0,0.0,0.0,3.4174,3.4531,3.4835,0.0,0.0,0.0,0.0,0.0,0.0,0.0,0.0,0.0,3.9024,3.8797,3.8792,0.0,0.0,4.0662,4.1133,4.157,4.1939,4.2289,0.0,0.0,0.0,4.4607,4.5507,4.615,4.6954,4.7635,4.799,4.8132,4.8414,4.9178,4.9401,4.9509,4.9522,4.8862,4.8367,4.832,4.8216,4.8146,4.8169,4.8287,4.8416,2.3072,2.3154,2.245,2.2401,2.2833,2.3443,2.3612,2.355,2.4528,2.5125,2.5499,2.6228,2.6967,2.7618,2.8772,0.0,0.0,0.0,3.4432,3.5854,3.7076,3.818,3.9126,3.9636,3.9963,4.0192,4.0356,4.0148,3.9679,3.9657,3.9201,3.8313,0.0,0.0,3.8337,3.8658,3.913,3.9833,4.1421,4.2285,4.2306,4.2824,4.2638,4.1602,3.9751,3.8328,3.7288,3.5974,3.4765,3.3698,3.2728,3.1863,0.0,0.0,0.0,0.0,0.0,0.0,0.0,0.0,0.0,0.0,0.0,3.0632,3.1159,0.0,0.0,0.0,3.4817,3.55,3.6457,3.674,0.0,0.0,0.0,0.0,0.0,0.0,0.0,4.041,4.1273,4.1852,4.1911,4.1889,4.1473,4.0406,4.1352,4.2245,4.2542,0.0,4.3912,4.4219,4.4879,4.5403,4.565,4.6411,4.7268,4.7951,4.8745,4.9287,4.9531,4.973,5.0165,5.0792,5.1007,5.117,5.1658,5.1263,5.0685,5.026,5.0233,5.0262,5.0262,5.0262,5.0299,2.432,2.4855,2.3691,2.3247,2.3335,2.4297,2.4465,2.4254,2.5229,2.5845,2.626,2.7162,2.7998,2.8808,3.0143,0.0,3.2963,3.3364,3.4606,3.6435,3.7673,3.8628,3.9492,4.0579,4.1099,4.1133,4.1506,4.1435,4.0966,4.0966,4.0561,3.9766,3.8594,3.8411,3.9153,3.9012,3.9358,4.0247,4.1622,4.2327,4.241,4.2327,4.2099,4.1664,3.9847,3.8649,3.8115,3.7117,3.6041,3.5013,3.4351,3.3551,3.2682,0.0,0.0,0.0,0.0,0.0,0.0,0.0,0.0,0.0,0.0,0.0,0.0,0.0,0.0,0.0,3.7315,0.0,3.884,3.9309,0.0,0.0,0.0,4.062,4.0471,4.1291,4.204,4.2605,0.0,0.0,4.4346,0.0,4.506,4.2538,4.3346,4.4179,4.4222,4.5293,4.6049,4.6093,4.7139,4.7953,4.7953,4.8703,4.9465,4.9962,5.0452,5.0788,5.0834,5.1156,5.1684,5.209,5.2251,5.2343,5.2809,5.2802,5.2651,5.1592,5.1455,5.1523,5.1516,5.1493,5.1585,2.4979,2.5184,2.4981,2.4818,2.4653,2.5161,2.5167,2.491,2.5707,2.6389,2.6957,2.7182,2.8279,3.0017,3.0856,3.2091,3.3552,3.4483,3.5435,3.6455,3.7712,3.8848,3.992,4.0589,4.1007,4.1228,4.1353,4.1152,4.0724,4.0702,4.0571,4.0362,3.9825,3.9488,3.9382,3.9702,4.0179,4.0717,4.1767,4.2638,4.3242,4.2638,4.2244,4.212,4.0605,3.9579,3.9093,3.8295,3.74,3.6458,3.5809,3.5168,3.4556,3.3799,0.0,0.0,0.0,0.0,0.0,0.0,0.0,0.0,0.0,3.4299,3.4841,0.0,3.6811,0.0,3.9319,4.044,4.1117,4.1296,0.0,0.0,4.2319,4.2756,4.3474,4.3739,4.4382,4.5645,4.5943,4.6285,4.6868,4.745,4.7524,4.6614,4.6474,4.6608,4.7002,4.7262,4.7626,4.8029,4.8915,4.9534,4.964,5.0651,5.1454,5.1615,5.2028,5.235,5.235,5.2464,5.2602,5.2694,5.2717,5.2786,5.2901,5.3222,5.3423,5.3135,5.2802,5.2556,5.2533,5.2556,5.2573,2.563,2.573,2.6011,2.6068,2.6012,2.6197,2.6157,2.6041,2.6775,2.7471,2.818,2.8673,2.9633,3.0875,3.1435,3.2489,3.397,3.4633,3.5483,3.6503,3.7792,3.8842,3.9661,4.064,4.1215,4.139,4.1544,4.138,4.092,4.0899,4.0724,4.0396,4.038,4.0152,3.9805,4.0041,4.0551,4.1193,4.212,4.2911,4.3553,4.2762,4.238,4.2486,4.1136,4.0449,4.0482,3.9484,3.8678,3.813,3.7349,3.6697,3.6202,3.5631,3.533,0.0,0.0,0.0,0.0,0.0,0.0,0.0,0.0,0.0,0.0,0.0,3.9471,4.0824,4.1909,4.282,4.3447,4.3517,4.3775,4.4359,4.4635,4.5105,4.5852,4.615,4.6701,4.7757,4.7872,4.819,4.8954,4.9487,4.9821,4.9836,4.9813,4.9518,4.8861,4.9184,4.9704,4.9975,5.0737,5.1327,5.1327,5.2002,5.2487,5.2533,5.2924,5.3245,5.3245,5.3452,5.3566,5.3566,5.3566,5.3566,5.3589,5.3796,5.4003,5.398,5.3773,5.3589,5.3566,5.3566,5.3566,2.6205,2.6262,2.6746,2.7042,2.7173,2.719,2.7198,2.7227,2.7922,2.8597,2.9353,3.0446,3.116,3.1602,3.1872,3.2881,3.4353,3.4387,3.5153,3.6559,3.7901,3.867,3.9059,4.0645,4.1437,4.1437,4.17,4.1629,4.1262,4.1262,4.0876,4.0242,4.055,4.0563,4.0323,4.033,4.082,4.1685,4.2538,4.3201,4.3594,4.2824,4.2516,4.2722,4.1592,4.1262,4.1835,4.0641,3.991,3.9755,3.8956,3.827,3.7798,3.761,3.7465,0.0,3.7361,0.0,0.0,0.0,0.0,0.0,0.0,0.0,0.0,4.0968,4.2328,4.3906,4.4513,4.5073,4.5554,4.5599,4.5806,4.6274,4.6767,4.7202,4.7754,4.8282,4.8786,4.9342,4.9457,4.987,5.075,5.1278,5.1798,5.2081,5.2494,5.2074,5.0594,5.1022,5.1672,5.1786,5.2473,5.2861,5.2976,5.3084,5.313,5.3153,5.3475,5.3773,5.3773,5.4094,5.4393,5.437,5.4347,5.437,5.4416,5.4439,5.4508,5.4508,5.4554,5.4577,5.4508,5.4462,5.4531,2.6689,2.6285,2.7058,2.7431,2.7533,2.7797,2.7783,2.7625,2.8026,2.8597,2.9353,3.0157,3.1078,3.194,3.2061,3.3064,3.4755,3.4789,3.5408,3.6559,3.7866,3.867,3.9059,4.0398,4.1025,4.1025,4.1061,4.1055,4.0986,4.0986,4.0909,4.0776,4.0823,4.0809,4.0814,0.0,0.0,0.0,4.3014,4.3532,4.3594,4.3077,4.277,4.2764,4.2137,0.0,4.1891,4.1516,4.1152,4.076,4.0563,0.0,0.0,0.0,0.0,0.0,0.0,0.0,0.0,0.0,0.0,0.0,4.276,4.2388,4.1116,4.2556,4.4051,4.522,4.5759,4.6254,4.6689,4.6793,4.6995,4.7504,4.7662,4.8057,4.8867,4.9405,5.0019,5.0849,5.1339,5.1798,5.2327,5.2556,5.2648,5.2786,5.3222,5.3366,5.2931,5.2679,5.2644,5.2706,5.3182,5.3681,5.4072,5.4094,5.4026,5.414,5.4186,5.4255,5.4255,5.4324,5.4416,5.4416,5.4416,5.4416,5.4439,5.4737,5.5059,5.5059,5.5357,5.5476,5.5151,5.5059,5.5174,2.713,0.0,2.7609,2.8029,0.0,2.8315,2.8448,2.8491,2.8652,2.9144,2.988,3.0647,3.1514,3.24,3.24,3.3304,3.4921,3.4921,3.5497,3.6622,3.7709,3.8512,3.9085,4.0126,4.0704,4.0918,4.0918,4.0918,4.0918,4.0918,4.0918,4.0918,4.1125,4.125,4.127,4.1933,4.2352,4.258,4.3263,4.3615,4.3594,4.3122,4.3069,4.3394,0.0,0.0,0.0,0.0,0.0,0.0,0.0,0.0,0.0,0.0,0.0,4.1561,4.175,4.2049,4.2501,4.3021,4.3618,4.4291,4.4997,4.4941,4.3844,4.5108,4.6217,4.6768,4.7238,4.7559,4.7828,4.8074,4.8447,4.894,4.9208,4.9621,5.0348,5.0876,5.1321,5.1767,5.2254,5.2717,5.3222,5.3291,5.3406,5.3612,5.3865,5.4049,5.4026,5.3819,5.3635,5.3658,5.3842,5.4117,5.4347,5.4416,5.4416,5.4416,5.4416,5.4416,5.4416,5.4416,5.4416,5.4439,5.4623,5.4806,5.4852,5.522,5.5564,5.5545,5.5706,5.5935,5.5885,5.5748,5.5568,2.7507,2.7312,2.8201,2.8589,2.8618,2.8728,2.9021,2.9405,0.0,0.0,0.0,3.1258,3.2035,3.2684,3.2684,3.3504,3.4887,3.4921,3.5563,3.6714,3.7529,3.8316,3.9106,3.9927,4.0525,4.0882,4.0918,4.0918,4.0918,4.0918,4.0959,4.1063,4.1415,4.1685,4.1835,4.2538,4.2952,4.3056,4.337,4.3615,4.3594,4.3242,4.3331,4.396,4.3615,4.3769,4.446,4.4163,4.3967,4.4018,4.367,4.3475,4.3475,4.3475,4.3475,4.3475,4.3545,4.3777,4.427,4.4699,4.526,4.5893,4.6707,4.7037,4.6668,4.7507,4.8109,4.8198,4.8621,4.8889,4.8911,4.9268,4.9691,5.0114,5.0493,5.0894,5.1394,5.1895,5.2176,5.2422,5.2811,5.3257,5.375,5.3819,5.3957,5.4301,5.4347,5.4416,5.4416,5.4347,5.4324,5.4324,5.4324,5.4416,5.4554,5.4577,5.46,5.4737,5.4737,5.4668,5.4691,5.4668,5.4691,5.476,5.5082,5.5288,5.5357,5.5725,5.6004,5.6004,5.6119,5.6279,5.6666,5.6505,5.6211,2.7703,2.7301,2.8435,2.88,2.8633,2.8991,2.9371,2.9835,3.0121,3.0299,3.0477,3.1241,3.1999,3.2684,3.2684,3.3504,3.4887,3.4921,3.5528,0.0,3.7529,3.8316,3.9106,3.9927,4.0489,4.0882,4.0882,4.0918,4.0918,4.0918,4.1104,4.1477,4.156,4.1995,4.2646,4.2832,4.308,4.3511,4.3573,4.3615,4.3615,4.3553,4.3514,4.3567,4.3541,4.3685,4.415,4.4144,4.4235,4.4582,4.4539,4.4459,4.4497,4.4475,4.4459,4.4518,4.489,4.5292,4.5761,4.617,4.6969,4.8274,4.8907,4.8685,4.751,4.8211,4.8934,4.9328,4.9763,5.0074,5.0074,5.0136,5.018,5.0289,5.0315,5.0586,5.1105,5.1538,5.2127,5.2777,5.3347,5.3779,5.4151,5.4278,5.4278,5.4393,5.4416,5.4416,5.4416,5.4416,5.4416,5.4416,5.4416,5.46,5.4921,5.5105,5.5243,5.5614,5.5656,5.5587,5.5587,5.5545,5.5545,5.5679,5.5706,5.5775,5.5798,5.623,5.6505,5.6597,5.6873,5.7237,5.7309,5.7217,5.7194,2.7883,2.7618,2.8567,2.9041,2.919,2.9413,2.9652,2.9942,3.0264,3.0513,3.0797,3.1524,3.2158,3.2701,3.2911,3.3712,3.4921,3.5149,3.5908,3.7031,3.7618,3.8335,3.9146,3.9546,3.9986,4.0561,4.0561,4.0668,4.0882,4.1146,4.1395,4.1622,4.2042,4.2642,4.3242,4.3304,4.3408,4.3615,4.3615,4.3701,4.3967,4.3987,4.42,4.4604,4.4642,4.4854,4.5235,4.5235,4.532,4.5494,4.5516,4.5516,4.5494,4.5516,4.5622,4.5877,4.6091,4.6527,4.7272,4.7709,4.8236,4.8904,4.914,4.914,4.8731,4.9282,4.9759,4.9978,5.0218,5.0305,5.0327,5.0568,5.072,5.072,5.0961,5.1196,5.1446,5.1826,5.233,5.297,5.3501,5.3947,5.4375,5.4416,5.4416,5.4416,5.4416,5.4416,5.4416,5.4416,5.4416,5.4439,5.4646,5.4898,5.5197,5.5449,5.5679,5.5908,5.5889,5.5889,5.5889,5.5889,5.5912,5.5912,5.6096,5.6322,5.6345,5.6758,5.7033,5.7168,5.7286,5.747,5.747,5.747,5.747,2.7969,2.7776,2.8714,2.9358,2.9731,2.9854,2.9981,3.018,3.0414,3.0757,3.1187,3.1824,3.2333,3.2701,3.3139,3.3941,3.4988,3.543,3.6234,3.7406,3.7773,3.8344,3.9136,3.9176,3.9518,4.0094,4.0166,4.0387,4.0761,4.1162,4.1487,4.1792,4.2534,4.3149,4.3594,4.3615,4.3656,4.376,4.378,4.3946,4.4298,4.4401,4.4785,4.5391,4.5451,4.5649,4.6067,4.6067,4.6173,4.6363,4.6384,4.6426,4.6532,4.6532,4.6701,4.7039,4.7161,4.7578,4.84,4.8911,4.9146,4.9146,4.9273,4.9485,4.9825,5.0109,5.0387,5.0428,5.0513,5.0554,5.0701,5.1004,5.1286,5.1267,5.1572,5.1747,5.1833,5.2084,5.252,5.2995,5.3431,5.3824,5.4252,5.4416,5.4416,5.4416,5.4416,5.4416,5.4416,5.4416,5.4416,5.4508,5.4852,5.5243,5.5357,5.5794,5.6115,5.623,5.6322,5.6368,5.6368,5.6322,5.6299,5.6391,5.662,5.6827,5.6938,5.7171,5.7401,5.7424,5.747,5.747,5.747,5.747,5.747,2.8125,2.7833,2.8895,2.9723,3.0104,3.0218,3.0481,3.0865,3.092,3.1189,3.1592,3.1947,3.2351,3.2701,3.3139,3.416,3.5489,3.5562,3.6387,3.7686,3.7874,3.838,3.9119,3.9176,3.9393,3.9714,3.977,4.0028,4.046,4.0581,4.1096,4.2167,4.2736,4.3172,4.3577,4.3615,4.3822,4.4236,4.4236,4.4256,4.4319,4.4712,4.4999,4.508,4.508,4.5267,4.5782,4.5742,4.6116,4.6843,4.6946,4.7092,4.7465,4.7527,4.7548,4.7631,4.7982,4.8416,4.8893,4.9359,4.9572,4.9656,4.9975,5.0188,5.0273,5.0315,5.0568,5.0861,5.1009,5.1155,5.1576,5.1682,5.1682,5.1682,5.1747,5.1813,5.1813,5.1833,5.2167,5.2995,5.3225,5.345,5.4252,5.4416,5.4416,5.4416,5.4416,5.4416,5.4416,5.4485,5.4485,5.4531,5.4875,5.538,5.5729,5.6276,5.6712,5.7148,5.7286,5.7217,5.7148,5.7194,5.7309,5.7056,5.724,5.7352,5.7398,5.747,5.747,5.747,5.747,5.747,5.747,5.747,5.747,2.8265,2.7979,2.8778,2.9406,2.9892,3.0379,3.0926,3.13,3.13,3.1638,3.2316,3.2874,3.3126,3.3109,3.3926,3.4784,3.5625,3.6081,3.6759,3.7626,3.8075,3.8527,3.8829,3.8829,3.9011,3.9413,3.9632,3.9998,4.0402,4.0921,4.1693,4.2601,4.2922,4.3195,4.3577,4.3884,4.4112,4.4298,4.4836,4.5126,4.5147,4.5291,4.5519,4.5728,4.5788,4.6016,4.6389,4.6492,4.6782,4.7361,4.7424,4.7486,4.7714,4.7672,4.7859,4.8107,4.8524,4.888,4.9049,4.9237,4.9342,4.9342,4.9552,4.9657,4.9636,4.9849,5.021,5.0612,5.0907,5.1329,5.1707,5.1813,5.1813,5.1813,5.1813,5.1813,5.1813,5.2,5.2437,5.2995,5.3348,5.3719,5.4252,5.4416,5.4416,5.4416,5.4416,5.4439,5.4439,5.4668,5.4875,5.4967,5.5541,5.5954,5.6069,5.6643,5.7171,5.7401,5.747,5.747,5.747,5.747,5.747,5.747,5.747,5.747,5.7447,5.747,5.747,5.747,5.747,5.747,5.747,5.747,5.747,2.8254,2.8227,2.8797,2.9297,2.9816,3.0557,3.1146,3.1606,3.1626,3.2057,3.2762,3.3651,3.389,3.3803,3.4594,3.5262,3.5805,3.65,3.7107,3.7583,3.8292,3.8611,3.8611,3.8611,3.8835,3.9191,3.9468,3.9892,4.043,4.1185,4.1935,4.258,4.2774,4.3042,4.3427,4.3993,4.436,4.4567,4.5291,4.5747,4.583,4.5871,4.6016,4.6286,4.6431,4.6658,4.6989,4.7093,4.7424,4.7838,4.7879,4.7941,4.8107,4.8107,4.8252,4.8584,4.8915,4.9102,4.9102,4.9102,4.9102,4.9102,4.9102,4.9144,4.9273,4.9529,4.9955,5.0569,5.0886,5.1329,5.1729,5.1813,5.1813,5.1813,5.1813,5.1813,5.1813,5.2145,5.2561,5.3037,5.3495,5.3947,5.4293,5.4416,5.4416,5.4416,5.4554,5.4646,5.4691,5.5082,5.5362,5.5408,5.6138,5.6459,5.6276,5.685,5.7401,5.747,5.747,5.747,5.747,5.747,5.747,5.747,5.747,5.747,5.747,5.747,5.747,5.747,5.747,5.747,5.747,5.747,5.747,2.7986,2.8227,2.9071,2.9703,3.0114,3.0577,3.1249,3.193,3.1968,3.2254,3.2846,3.3932,3.4458,3.4424,3.4849,3.5428,3.6141,3.6651,3.7223,3.7932,3.8372,3.8611,3.8611,3.863,3.8826,3.9234,3.9351,3.9762,4.0506,4.0976,4.1424,4.1889,4.2293,4.2659,4.3183,4.3978,4.4526,4.4981,4.5478,4.5892,4.6203,4.6265,4.6286,4.6389,4.6741,4.6968,4.7072,4.7465,4.7858,4.8334,4.8355,4.8563,4.8957,4.8998,4.8998,4.906,4.9081,4.9102,4.9102,4.9102,4.9102,4.9102,4.9102,4.9273,4.9572,4.9699,5.0125,5.0971,5.1097,5.1308,5.1707,5.1813,5.1813,5.1813,5.1813,5.1813,5.1791,5.2187,5.2603,5.3059,5.36,5.4079,5.4421,5.4416,5.4531,5.4623,5.4875,5.5174,5.5243,5.5587,5.5862,5.6,5.6345,5.6689,5.6689,5.7079,5.7401,5.747,5.747,5.747,5.747,5.747,5.747,5.747,5.747,5.747,5.747,5.747,5.747,5.747,5.747,5.747,5.747,5.747,5.747,2.8036,2.8329,2.9154,2.9718,3.0144,3.0585,3.1239,3.1989,3.2292,3.2642,3.3143,3.4012,3.4588,3.4849,3.5225,3.5668,3.6257,3.6882,3.7343,3.7696,3.8282,3.8747,3.8965,3.8984,3.9219,3.9629,3.9922,4.0351,4.0879,4.1132,4.154,4.21,4.2331,4.2857,4.3762,4.4448,4.4981,4.5436,4.5871,4.6162,4.6327,4.6596,4.6741,4.6762,4.6906,4.7279,4.7879,4.8086,4.8334,4.8832,4.8874,4.8936,4.9081,4.9102,4.9102,4.9102,4.9102,4.9102,4.9102,4.9102,4.9102,4.9102,4.9102,4.9273,4.9657,4.9997,5.04,5.1013,5.1413,5.1623,5.1729,5.1813,5.1813,5.1813,5.1813,5.1813,5.1916,5.2395,5.2913,5.3228,5.3991,5.4756,5.4907,5.5174,5.538,5.5362,5.5522,5.5656,5.5748,5.6092,5.6413,5.6505,5.685,5.7194,5.7194,5.7309,5.747,5.747,5.747,5.747,5.747,5.747,5.747,5.747,5.747,5.747,5.747,5.747,5.747,5.747,5.747,5.747,5.747,5.747,5.747,2.8143,2.8329,2.8983,2.964,3.0129,3.0415,3.111,3.1993,3.2452,3.2816,3.3272,3.4046,3.4612,3.5007,3.5418,3.5829,3.6256,3.6923,3.7255,3.7458,3.8198,3.8815,3.918,3.9355,3.9668,4.0098,4.0527,4.0898,4.1172,4.1211,4.156,4.2177,4.2331,4.2959,4.4027,4.4696,4.5229,4.5685,4.6079,4.6307,4.6369,4.6762,4.7072,4.7217,4.7382,4.7734,4.8397,4.8563,4.877,4.906,4.9102,4.9102,4.9102,4.9102,4.9102,4.9102,4.9102,4.9102,4.9102,4.9102,4.9102,4.9102,4.923,4.9486,4.9912,5.0358,5.0823,5.1265,5.1581,5.1813,5.1813,5.1813,5.1813,5.1813,5.1813,5.1833,5.2064,5.28,5.3497,5.4116,5.4869,5.5343,5.543,5.5683,5.582,5.5889,5.6004,5.6161,5.623,5.6597,5.6942,5.6965,5.726,5.7401,5.7401,5.7447,5.747,5.747,5.747,5.747,5.747,5.747,5.747,5.747,5.747,5.747,5.747,5.747,5.747,5.747,5.747,5.747,5.747,5.747,5.747,2.8335,2.8213,2.8679,2.9392,3.0052,3.0129,3.0824,3.1916,3.2397,3.2778,3.3213,3.4009,3.4574,3.5007,3.5381,3.5791,3.6238,3.6627,3.7071,3.7497,3.8227,3.8848,3.9318,3.9726,4.0117,4.0527,4.0957,4.1191,4.1211,4.1211,4.1444,4.185,4.2315,4.2963,4.3757,4.4679,4.5271,4.5726,4.6121,4.6307,4.6369,4.6803,4.7258,4.7693,4.8107,4.8397,4.8459,4.8853,4.906,4.9102,4.9102,4.9102,4.9102,4.9102,4.9102,4.9102,4.9102,4.9102,4.9102,4.9102,4.9102,4.9144,4.9444,4.9827,5.0273,5.0738,5.1223,5.1623,5.1771,5.1813,5.1813,5.1813,5.1813,5.1813,5.1833,5.2,5.2486,5.332,5.442,5.5389,5.5843,5.5889,5.5889,5.6069,5.6119,5.6207,5.6436,5.6732,5.6712,5.7079,5.7401,5.7424,5.7447,5.747,5.747,5.747,5.747,5.747,5.747,5.747,5.747,5.747,5.747,5.747,5.747,5.747,5.747,5.747,5.747,5.747,5.747,5.747,5.747,5.747,5.747,2.8335,2.8147,2.8679,2.9353,3.0052,3.009,3.0686,3.1609,3.2299,3.2664,3.2947,3.363,3.4348,3.4894,3.5157,3.5568,3.6201,3.6367,3.6887,3.7782,3.8343,3.9139,3.9963,4.0254,4.0547,4.0937,4.1152,4.1211,4.1211,4.1211,4.156,4.2199,4.2653,4.3503,4.4539,4.5211,4.5685,4.6099,4.6245,4.6451,4.6782,4.7217,4.7693,4.8148,4.8646,4.8894,4.8894,4.9039,4.9102,4.9102,4.9102,4.9102,4.9102,4.9102,4.9102,4.9102,4.9102,4.9102,4.9102,4.9122,4.9122,4.9208,4.9486,4.9891,5.0358,5.0866,5.1351,5.1729,5.1813,5.1813,5.1813,5.1813,5.1856,5.1813,5.2042,5.2447,5.3094,5.4106,5.5076,5.5763,5.623,5.6413,5.6505,5.6689,5.6896,5.6896,5.7079,5.7237,5.7283,5.7375,5.7513,5.747,5.747,5.747,5.747,5.747,5.747,5.747,5.747,5.747,5.747,5.747,5.747,5.747,5.747,5.747,5.747,5.747,5.747,5.747,5.747,5.747,5.747,5.747,5.747,2.8503,2.833,2.8852,2.9457,3.0052,3.009,3.0608,3.1433,3.2069,3.2452,3.2719,3.3289,3.4122,3.4857,3.5007,3.5456,3.6163,3.6366,3.7072,3.8122,3.848,3.9335,4.0412,4.0703,4.0898,4.1152,4.1211,4.1211,4.1211,4.125,4.1618,4.2335,4.2851,4.3746,4.4902,4.5457,4.5892,4.6245,4.6307,4.6534,4.6968,4.7465,4.79,4.8418,4.8853,4.9081,4.9102,4.9102,4.9102,4.9102,4.9102,4.9102,4.9102,4.9102,4.9102,4.9102,4.9102,4.9102,4.9122,4.9288,4.9457,4.965,5.0162,5.0675,5.1146,5.1615,5.2018,5.2273,5.2359,5.2337,5.2337,5.2337,5.2357,5.259,5.2645,5.318,5.4074,5.5179,5.594,5.6486,5.6827,5.6942,5.7122,5.7194,5.747,5.747,5.747,5.747,5.747,5.747,5.747,5.747,5.747,5.747,5.747,5.747,5.747,5.747,5.747,5.747,5.747,5.747,5.747,5.747,5.747,5.747,5.747,5.747,5.747,5.747,5.747,5.747,5.747,5.747,5.747,2.8796,2.861,2.9141,2.9675,3.0067,3.009,3.0608,3.1379,3.184,3.2261,3.2626,3.3044,3.384,3.4782,3.4969,3.5436,3.6162,3.6585,3.7481,3.8424,3.8823,3.9452,4.0548,4.0957,4.1152,4.1191,4.1211,4.1211,4.1211,4.1288,4.1638,4.2472,4.305,4.3786,4.4966,4.5498,4.5954,4.6245,4.6348,4.6617,4.7072,4.7527,4.7982,4.848,4.8894,4.9102,4.9102,4.9102,4.9102,4.9102,4.9102,4.9102,4.9102,4.9102,4.9102,4.9122,4.9122,4.9185,4.9267,4.9599,5.0,5.0432,5.1139,5.1978,5.2261,5.2628,5.2928,5.3036,5.308,5.3123,5.3101,5.3144,5.3402,5.3853,5.3798,5.4315,5.5716,5.6411,5.683,5.7263,5.747,5.747,5.7444,5.7447,5.747,5.747,5.747,5.747,5.747,5.747,5.747,5.747,5.747,5.747,5.747,5.747,5.747,5.747,5.747,5.747,5.747,5.747,5.747,5.747,5.747,5.747,5.747,5.747,5.747,5.747,5.747,5.747,5.747,5.747,5.747,2.8796,2.857,2.9141,2.9665,3.0067,3.009,3.0608,3.1379,3.184,3.2184,3.2626,3.3006,3.3689,3.4536,3.4894,3.5412,3.6133,3.6636,3.7685,3.8974,3.9126,3.9855,4.0821,4.1132,4.1211,4.1211,4.1211,4.1211,4.1211,4.1502,4.2068,4.2932,4.3669,4.4531,4.5419,4.5912,4.6162,4.6348,4.6658,4.701,4.7486,4.7941,4.8459,4.8894,4.9039,4.9102,4.9102,4.9102,4.9102,4.9102,4.9102,4.9102,4.9122,4.9143,4.9164,4.9226,4.9454,4.962,4.9702,4.999,5.0437,5.0895,5.1543,5.1978,5.2455,5.2952,5.3168,5.3211,5.3211,5.3254,5.3275,5.3598,5.4245,5.5199,5.5237,5.5561,5.6348,5.6948,5.7355,5.747,5.747,5.747,5.747,5.747,5.747,5.747,5.747,5.747,5.747,5.747,5.747,5.747,5.747,5.747,5.747,5.747,5.747,5.747,5.747,5.747,5.747,5.747,5.747,5.747,5.747,5.747,5.747,5.747,5.747,5.747,5.747,5.747,5.747,5.747,5.747,2.9046,2.8827,2.9381,2.9784,3.0082,3.009,3.0608,3.1356,3.1648,3.2069,3.2566,3.2816,3.3517,3.4403,3.4837,3.5464,3.62,3.678,3.7889,3.9182,3.9874,4.0531,4.1094,4.1211,4.1211,4.1211,4.1211,4.1211,4.1328,4.1796,4.2462,4.3192,4.4113,4.4998,4.5664,4.6079,4.6307,4.6389,4.6762,4.7258,4.7693,4.8169,4.8625,4.8998,4.9102,4.9102,4.9122,4.9288,4.933,4.9164,4.9122,4.9185,4.9371,4.9392,4.9475,4.9597,4.9887,5.0075,5.0115,5.0446,5.1003,5.1618,5.2119,5.2708,5.3299,5.3692,5.3822,5.3844,5.3822,5.3953,5.4213,5.4733,5.547,5.6126,5.6496,5.671,5.701,5.7286,5.7447,5.747,5.747,5.747,5.747,5.747,5.747,5.747,5.747,5.747,5.747,5.747,5.747,5.747,5.747,5.747,5.747,5.747,5.747,5.747,5.747,5.747,5.747,5.747,5.747,5.747,5.747,5.747,5.747,5.747,5.747,5.747,5.747,5.747,5.747,5.747,5.747,2.938,2.922,2.9705,2.9963,3.0058,3.009,3.0608,3.1318,3.151,3.1955,3.2512,3.2642,3.3365,3.4365,3.4888,3.5497,3.625,3.7089,3.8206,3.941,4.0414,4.1152,4.1152,4.1211,4.1211,4.1211,4.1211,4.125,4.1483,4.215,4.28,4.3532,4.4517,4.5244,4.577,4.6141,4.6286,4.641,4.6865,4.732,4.7734,4.821,4.8749,4.9039,4.9247,4.9247,4.935,4.9578,4.9702,4.9288,4.9204,4.9516,4.9827,4.9868,4.997,5.028,5.0404,5.0487,5.0549,5.1011,5.1637,5.2434,5.2953,5.3676,5.4301,5.4477,5.4522,5.45,5.4675,5.4829,5.5356,5.6188,5.6577,5.686,5.7208,5.7427,5.747,5.747,5.747,5.747,5.747,5.747,5.747,5.747,5.747,5.747,5.747,5.747,5.747,5.747,5.747,5.747,5.747,5.747,5.747,5.747,5.747,5.747,5.747,5.747,5.747,5.747,5.747,5.7513,5.7599,5.7599,5.747,5.747,5.7556,5.747,5.747,5.747,5.747,5.747,5.747,2.938,2.922,2.9705,2.9963,3.0074,3.0129,3.0608,3.1395,3.1725,3.2108,3.2588,3.293,3.3403,3.4022,3.5003,3.5775,3.6379,3.7433,3.8576,3.979,4.0744,4.1172,4.1211,4.1211,4.1211,4.1211,4.1211,4.1366,4.1775,4.2522,4.3373,4.4171,4.4998,4.573,4.6141,4.6203,4.6307,4.6431,4.7113,4.7548,4.7879,4.8522,4.8977,4.9143,4.9433,4.962,4.9744,5.0032,5.0218,5.0156,5.0135,5.0197,5.0259,5.028,5.0363,5.0549,5.0818,5.0963,5.1091,5.1694,5.2389,5.2926,5.3435,5.4032,5.4564,5.4696,5.4696,5.4696,5.4696,5.5049,5.5818,5.6429,5.6907,5.7254,5.7383,5.747,5.747,5.747,5.747,5.747,5.747,5.747,5.747,5.747,5.747,5.747,5.747,5.747,5.747,5.747,5.747,5.747,5.747,5.747,5.747,5.747,5.747,5.747,5.747,5.747,5.747,5.7599,5.7642,5.7685,5.7814,5.7771,5.7728,5.7771,5.79,5.7685,5.7513,5.747,5.747,5.747,5.747,2.9503,2.9558,2.9987,3.0161,3.0151,3.0338,3.0778,3.1395,3.184,3.2222,3.2626,3.3006,3.3602,3.4398,3.5234,3.597,3.6988,3.8225,3.9245,3.9982,4.0782,4.1172,4.1211,4.1211,4.1211,4.1211,4.1211,4.1522,4.2227,4.2978,4.3834,4.4717,4.5507,4.5998,4.6265,4.6327,4.6451,4.672,4.732,4.7775,4.8149,4.8708,4.9102,4.9185,4.9537,4.9806,4.9827,5.0404,5.0694,5.0798,5.0922,5.0943,5.0777,5.0756,5.0839,5.1087,5.1253,5.1439,5.1612,5.2075,5.2671,5.3185,5.3632,5.4121,5.452,5.4696,5.4696,5.4696,5.4785,5.5049,5.5993,5.68,5.721,5.7383,5.747,5.747,5.747,5.747,5.747,5.747,5.747,5.747,5.747,5.747,5.747,5.747,5.747,5.747,5.747,5.747,5.747,5.747,5.747,5.747,5.747,5.747,5.747,5.747,5.747,5.747,5.747,5.7642,5.7814,5.79,5.8029,5.8177,5.8177,5.8177,5.8092,5.79,5.7728,5.7599,5.747,5.747,5.747,2.9596,2.9873,3.025,3.0314,3.019,3.0585,3.1048,3.1549,3.1916,3.2375,3.2735,3.3171,3.4034,3.4925,3.5613,3.6463,3.7722,3.8972,3.9844,3.9981,4.0821,4.1133,4.1211,4.1211,4.1211,4.1191,4.1445,4.1915,4.2623,4.3458,4.4358,4.5145,4.5857,4.6245,4.6286,4.641,4.6596,4.6948,4.7548,4.7982,4.8377,4.8853,4.9122,4.935,4.9702,5.0034,5.0262,5.0756,5.1212,5.1253,5.1605,5.1543,5.1336,5.1232,5.1357,5.175,5.1729,5.1708,5.1844,5.2312,5.2827,5.3185,5.3765,5.421,5.4608,5.4696,5.4696,5.4785,5.4939,5.5335,5.6037,5.693,5.7363,5.747,5.747,5.747,5.747,5.747,5.747,5.747,5.747,5.747,5.747,5.747,5.747,5.747,5.747,5.747,5.747,5.747,5.747,5.747,5.747,5.747,5.747,5.747,5.747,5.7539,5.7516,5.7516,5.7559,5.7771,5.792,5.8115,5.822,5.8477,5.8562,5.8434,5.8306,5.8134,5.7857,5.7556,5.747,5.747,5.747,2.9364,2.9496,2.9908,3.0064,3.0175,3.0624,3.1241,3.1878,3.2299,3.2702,3.3171,3.3877,3.4452,3.5194,3.6199,3.7266,3.8341,3.9393,3.9902,4.002,4.0782,4.1211,4.1211,4.1211,4.123,4.1425,4.1895,4.2544,4.3176,4.4176,4.4922,4.5568,4.6039,4.6307,4.641,4.6658,4.6865,4.7155,4.7796,4.8294,4.85,4.8936,4.933,4.962,5.0032,5.0446,5.086,5.1336,5.1688,5.1708,5.1771,5.175,5.1667,5.1646,5.1688,5.175,5.1791,5.1791,5.1972,5.2602,5.3006,5.3364,5.3988,5.4475,5.4652,5.4696,5.4696,5.4873,5.5335,5.5906,5.608,5.6951,5.7406,5.747,5.747,5.747,5.747,5.747,5.747,5.747,5.747,5.747,5.747,5.747,5.747,5.747,5.747,5.747,5.747,5.747,5.747,5.747,5.747,5.747,5.747,5.747,5.7493,5.7584,5.7607,5.7607,5.7714,5.79,5.8092,5.8286,5.8647,5.9031,5.8988,5.8818,5.8519,5.8306,5.7943,5.7513,5.747,5.747,5.747,2.9395,2.974,3.0135,3.0371,3.0577,3.1164,3.1625,3.2069,3.2626,3.3006,3.3466,3.4252,3.5082,3.5748,3.6635,3.7665,3.8627,3.9509,3.9863,4.0098,4.0782,4.1211,4.1211,4.1211,4.1367,4.1798,4.2585,4.3238,4.3515,4.4458,4.5347,4.5916,4.6224,4.6307,4.641,4.6762,4.7134,4.7465,4.8066,4.8542,4.8791,4.9205,4.9599,4.9868,5.0404,5.086,5.1108,5.1564,5.1791,5.1791,5.1791,5.1791,5.1791,5.1791,5.1791,5.1791,5.1791,5.1927,5.2197,5.2827,5.3275,5.3632,5.4298,5.4652,5.4696,5.4696,5.4696,5.4917,5.5511,5.6103,5.6147,5.6951,5.7383,5.747,5.747,5.747,5.747,5.747,5.747,5.747,5.747,5.747,5.747,5.747,5.747,5.747,5.747,5.747,5.747,5.747,5.747,5.747,5.7493,5.7539,5.7561,5.7607,5.7745,5.7837,5.786,5.786,5.799,5.8293,5.843,5.8566,5.8969,5.956,5.9539,5.9412,5.8988,5.8519,5.8134,5.7814,5.7599,5.747,5.7539,2.9435,2.9927,3.0345,3.0623,3.0925,3.1648,3.2031,3.2261,3.2854,3.3285,3.3593,3.4602,3.5579,3.6397,3.724,3.8052,3.8798,3.9588,3.9902,4.0216,4.0821,4.1211,4.1211,4.1348,4.1563,4.2132,4.324,4.3858,4.4018,4.4883,4.5653,4.6081,4.6286,4.6389,4.6555,4.6968,4.7382,4.7963,4.8399,4.8834,4.9251,4.958,4.9868,4.9972,5.0694,5.1129,5.1315,5.1605,5.1771,5.1791,5.1791,5.1791,5.1791,5.1791,5.1791,5.1791,5.1791,5.2062,5.2468,5.2917,5.3364,5.381,5.4387,5.4608,5.4696,5.4696,5.4696,5.4873,5.5555,5.6103,5.6234,5.6951,5.7383,5.747,5.747,5.747,5.747,5.747,5.747,5.747,5.7493,5.7516,5.7561,5.747,5.747,5.747,5.747,5.747,5.747,5.747,5.747,5.747,5.7516,5.7584,5.7676,5.7768,5.8021,5.8342,5.8365,5.8388,5.854,5.8736,5.8852,5.8968,5.9592,6.0115,6.0061,5.9835,5.9243,5.8733,5.8391,5.8029,5.7642,5.7674,5.7791,2.9184,2.9583,2.9996,3.0407,3.0894,3.1686,3.2222,3.2588,3.3023,3.3627,3.4261,3.5175,3.6025,3.6923,3.7913,3.8685,3.9214,3.9666,4.0098,4.0392,4.0919,4.1211,4.1269,4.1582,4.1935,4.2507,4.3699,4.4241,4.4603,4.5533,4.6061,4.6286,4.6327,4.6472,4.6844,4.7382,4.8046,4.884,4.9279,4.9551,4.9633,4.9772,5.0013,5.0384,5.086,5.1315,5.1584,5.175,5.1791,5.1791,5.1791,5.1791,5.1791,5.1791,5.1791,5.1791,5.1836,5.2017,5.2557,5.3051,5.3498,5.3988,5.4431,5.4652,5.4696,5.4696,5.4696,5.4741,5.5555,5.6037,5.6234,5.6973,5.734,5.747,5.747,5.747,5.7493,5.7676,5.7653,5.7699,5.7791,5.7699,5.7676,5.7561,5.747,5.747,5.7493,5.7493,5.747,5.747,5.747,5.747,5.7676,5.7768,5.7952,5.8021,5.8411,5.8801,5.887,5.8893,5.9026,5.9156,5.9307,5.9561,6.0147,6.0362,6.0219,5.9848,5.938,5.9068,5.8831,5.8261,5.7622,5.7766,5.8113,2.9484,2.9873,3.0299,3.0879,3.1533,3.2108,3.2566,3.3019,3.3585,3.4192,3.4873,3.5838,3.6823,3.7755,3.8426,3.8838,3.9312,3.9745,4.0137,4.0548,4.0958,4.1211,4.1308,4.1641,4.2112,4.3002,4.386,4.4704,4.521,4.5798,4.6307,4.6307,4.6327,4.6534,4.7072,4.7775,4.8421,4.9007,4.9448,4.9825,5.0054,5.0148,5.0342,5.0798,5.1253,5.1564,5.1729,5.1791,5.1791,5.1791,5.1791,5.1791,5.1791,5.1836,5.1882,5.2197,5.2197,5.2423,5.2872,5.3319,5.381,5.421,5.4564,5.4696,5.4696,5.4696,5.4696,5.4696,5.5555,5.5993,5.6277,5.6973,5.732,5.747,5.747,5.7516,5.7584,5.7837,5.7952,5.8021,5.809,5.809,5.8021,5.7814,5.7722,5.7699,5.7653,5.763,5.7561,5.747,5.747,5.747,5.7745,5.7998,5.8227,5.8388,5.887,5.9238,5.9375,5.9398,5.9398,5.9554,5.9706,5.9652,5.9838,6.0037,6.0205,6.022,6.0005,5.9684,5.9298,5.8748,5.822,5.8386,5.8687,2.9912,3.0299,3.0663,3.1279,3.2031,3.2413,3.2816,3.3285,3.4158,3.4782,3.5407,3.6471,3.7654,3.8466,3.8758,3.9075,3.9509,3.9863,4.0294,4.0685,4.0977,4.125,4.1543,4.1896,4.2645,4.344,4.4402,4.5169,4.5697,4.6145,4.6307,4.6307,4.6493,4.6762,4.734,4.8108,4.8923,4.9744,4.9871,5.0166,5.0479,5.0418,5.0655,5.1087,5.1501,5.1791,5.1791,5.1791,5.1791,5.1791,5.1791,5.1791,5.1791,5.1972,5.2152,5.2447,5.2671,5.3051,5.3364,5.3721,5.4165,5.452,5.4696,5.4696,5.4696,5.4696,5.4696,5.4696,5.5555,5.5993,5.6277,5.6973,5.7363,5.747,5.7493,5.7539,5.7676,5.7998,5.8296,5.8457,5.8572,5.8732,5.8572,5.8204,5.8021,5.7929,5.786,5.7814,5.7814,5.7791,5.7883,5.7998,5.8181,5.8503,5.8778,5.9031,5.9444,5.9651,5.9789,5.988,5.9858,5.9902,5.9991,5.9893,5.9814,6.0193,6.0702,6.0709,6.0671,5.996,5.943,5.9286,5.9091,5.9166,5.9284,3.0338,3.074,3.0778,3.1279,3.2069,3.2452,3.2816,3.3395,3.4477,3.5243,3.5895,3.7159,3.813,3.86,3.9035,3.9391,3.9863,4.0275,4.0646,4.0958,4.123,4.1387,4.1798,4.2506,4.336,4.4241,4.5008,4.5657,4.6124,4.6226,4.6307,4.6348,4.6658,4.7175,4.788,4.8735,4.9763,5.0419,5.0485,5.0549,5.0758,5.0743,5.0653,5.1129,5.1543,5.1791,5.1791,5.1791,5.1791,5.1791,5.1791,5.1882,5.1972,5.2197,5.2402,5.2806,5.3253,5.3632,5.3899,5.3988,5.421,5.452,5.4696,5.4696,5.4696,5.4696,5.4696,5.4785,5.5555,5.5993,5.6365,5.6864,5.7383,5.7516,5.7584,5.7791,5.7975,5.8296,5.8595,5.8847,5.91,5.9306,5.9352,5.9031,5.8595,5.8503,5.8457,5.8411,5.8526,5.8549,5.8641,5.8755,5.8824,5.91,5.9467,5.9743,5.988,6.0018,6.0156,6.0248,6.0339,6.0339,6.0246,6.0337,6.0309,6.0742,6.0991,6.0748,6.0417,5.9893,5.9582,5.9595,5.9623,5.9581,5.9835,3.0778,3.1202,3.1417,3.184,3.2413,3.2778,3.3331,3.4022,3.4942,3.6064,3.7102,3.7979,3.8441,3.8719,3.9114,3.9509,3.9902,4.0314,4.0763,4.1055,4.125,4.1426,4.1974,4.2724,4.352,4.4462,4.5312,4.5922,4.6226,4.6307,4.6307,4.6431,4.6844,4.7464,4.8254,4.9469,5.0672,5.1032,5.093,5.0762,5.1248,5.0848,5.0777,5.1522,5.1626,5.1791,5.1791,5.1791,5.1791,5.1791,5.1791,5.1927,5.2152,5.2402,5.2761,5.3209,5.3744,5.401,5.4298,5.4387,5.452,5.4564,5.4696,5.4696,5.4696,5.4696,5.4696,5.4961,5.5555,5.6059,5.6211,5.6907,5.7493,5.7561,5.7722,5.7975,5.8342,5.8687,5.9031,5.9375,5.972,6.004,5.9995,5.9926,5.9467,5.9077,5.9054,5.9031,5.9123,5.9169,5.9238,5.9306,5.9375,5.9444,5.9766,6.0018,6.0225,6.034,6.05,6.05,6.05,6.05,6.0408,6.0591,6.0614,6.0726,6.07,6.0537,6.0374,6.021,6.0146,6.0129,6.0131,6.0018,6.0202,3.1087,3.1609,3.2031,3.2337,3.2626,3.3006,3.3682,3.4496,3.5382,3.666,3.8185,3.8481,3.8679,3.8877,3.9272,3.9745,4.0137,4.0568,4.088,4.1152,4.1387,4.168,4.2309,4.3121,4.408,4.4805,4.5433,4.6064,4.6266,4.6307,4.641,4.6678,4.7112,4.7837,4.8586,5.0099,5.1308,5.1455,5.1165,5.0975,5.1589,5.114,5.0943,5.1667,5.1791,5.1791,5.1791,5.1791,5.1791,5.1791,5.1836,5.2062,5.2357,5.2716,5.3119,5.3676,5.4076,5.4343,5.4564,5.4696,5.4696,5.4696,5.4696,5.4696,5.4696,5.4696,5.4696,5.4785,5.5511,5.6103,5.6168,5.6907,5.761,5.7768,5.7929,5.8204,5.8801,5.9215,5.9559,5.9903,6.0179,6.0385,6.0339,6.0225,6.0041,5.972,5.9743,5.9697,5.9697,5.972,5.9674,5.9743,5.9812,5.988,5.9972,6.0179,6.034,6.0408,6.05,6.05,6.05,6.05,6.05,6.05,6.0545,6.05,6.0476,6.0474,6.0678,6.0838,6.0634,6.0384,6.0339,6.0248,6.0362,3.1279,3.2031,3.2413,3.2588,3.2719,3.3044,3.3716,3.4642,3.5814,3.7123,3.8444,3.86,3.8838,3.9233,3.9627,4.002,4.0451,4.088,4.1211,4.1308,4.1602,4.221,4.3042,4.3819,4.4523,4.5515,4.6003,4.6226,4.6307,4.6307,4.6513,4.7133,4.7754,4.8524,4.8607,5.0205,5.1286,5.1646,5.1273,5.138,5.1544,5.1264,5.1363,5.1646,5.1791,5.1791,5.1791,5.1791,5.1791,5.1791,5.1882,5.2152,5.2536,5.3006,5.3453,5.3943,5.4387,5.4608,5.4696,5.4696,5.4696,5.4696,5.4696,5.4696,5.4696,5.4696,5.4741,5.4917,5.5599,5.6037,5.6429,5.6932,5.7617,5.8021,5.8204,5.8618,5.9215,5.9674,5.9995,6.0179,6.0317,6.05,6.05,6.0477,6.0477,6.0385,6.0454,6.0408,6.027,6.0201,6.0086,6.0109,6.0133,6.0179,6.0225,6.034,6.0477,6.05,6.05,6.05,6.05,6.05,6.05,6.05,6.05,6.05,6.05,6.0477,6.0636,6.0681,6.0636,6.0454,6.05,6.05,6.05,3.151,3.2031,3.2452,3.274,3.3078,3.3712,3.444,3.5357,3.6735,3.7831,3.8484,3.86,3.8877,3.9312,3.9745,4.0137,4.0548,4.0977,4.1289,4.1582,4.1836,4.2545,4.3379,4.4201,4.4906,4.5596,4.6064,4.6307,4.6307,4.6348,4.6596,4.7195,4.8566,4.9551,5.0225,5.1201,5.1665,5.171,5.138,5.1293,5.1674,5.1412,5.1336,5.1771,5.1791,5.1791,5.1791,5.1791,5.1791,5.1836,5.1972,5.2423,5.2917,5.3364,5.3854,5.4298,5.4696,5.4696,5.4696,5.4696,5.4696,5.4696,5.4696,5.4696,5.4696,5.4696,5.4829,5.5181,5.5774,5.6168,5.6647,5.7423,5.8046,5.8319,5.8595,5.9146,5.9697,6.0041,6.034,6.0363,6.05,6.0545,6.0545,6.05,6.05,6.05,6.05,6.05,6.0408,6.0408,6.0362,6.0362,6.0408,6.0454,6.05,6.05,6.05,6.05,6.05,6.05,6.05,6.05,6.05,6.05,6.05,6.05,6.05,6.05,6.05,6.05,6.05,6.05,6.05,6.05,6.05,3.1725,3.2222,3.249,3.293,3.3454,3.4116,3.4968,3.6131,3.7421,3.8243,3.856,3.8758,3.9114,3.9548,3.9941,4.0333,4.0763,4.1191,4.1445,4.1875,4.2308,4.308,4.3879,4.4563,4.5311,4.586,4.6104,4.6307,4.6327,4.6472,4.7132,4.8253,4.9404,5.0437,5.1179,5.1601,5.1665,5.1587,5.1338,5.1398,5.1516,5.1428,5.1501,5.1708,5.1791,5.1791,5.1791,5.1791,5.1791,5.1927,5.2242,5.2737,5.3185,5.3676,5.4165,5.452,5.4696,5.4696,5.4696,5.4696,5.4696,5.4696,5.4696,5.4696,5.4741,5.4873,5.5093,5.5445,5.6015,5.6543,5.7095,5.794,5.8455,5.8729,5.9321,5.9875,6.0445,6.0837,6.0906,6.0907,6.0862,6.0862,6.075,6.0545,6.05,6.05,6.05,6.05,6.05,6.05,6.05,6.05,6.05,6.05,6.05,6.05,6.05,6.05,6.05,6.05,6.05,6.05,6.05,6.05,6.0545,6.0545,6.05,6.05,6.0545,6.0545,6.05,6.05,6.05,6.05,6.05,3.1878,3.255,3.2626,3.3099,3.3791,3.4341,3.543,3.6855,3.7683,3.8243,3.864,3.9075,3.943,3.9902,4.0275,4.0724,4.1133,4.1582,4.1817,4.2229,4.294,4.3758,4.4523,4.521,4.5718,4.6063,4.6307,4.6307,4.6369,4.6967,4.8044,4.9361,5.0353,5.1115,5.1559,5.1707,5.1625,5.1527,5.1574,5.1523,5.1488,5.1607,5.1691,5.1791,5.1791,5.1791,5.1791,5.1791,5.1791,5.1972,5.2288,5.2737,5.323,5.3655,5.4165,5.452,5.4696,5.4718,5.4806,5.4828,5.4915,5.5002,5.4915,5.4806,5.4851,5.5203,5.5578,5.6019,5.6569,5.7101,5.7612,5.8348,5.9043,5.9589,6.0274,6.0848,6.1464,6.1718,6.1718,6.1697,6.1652,6.1562,6.1202,6.0953,6.0636,6.0636,6.0636,6.05,6.05,6.05,6.05,6.05,6.05,6.05,6.05,6.05,6.05,6.05,6.05,6.05,6.05,6.0545,6.0681,6.0726,6.0659,6.0704,6.0907,6.0862,6.0726,6.0681,6.0772,6.0545,6.0545,6.05,6.0523,3.2146,3.2642,3.2892,3.3327,3.3939,3.5121,3.6461,3.7647,3.8206,3.8521,3.86,3.9114,3.9548,3.9921,4.0314,4.0763,4.1211,4.168,4.221,4.2803,4.3437,4.4341,4.5089,4.5596,4.5942,4.6185,4.6307,4.6368,4.6635,4.7318,4.871,5.0052,5.084,5.1348,5.1665,5.1813,5.1672,5.1615,5.1722,5.1605,5.1587,5.1705,5.1774,5.1791,5.1791,5.1791,5.1791,5.1791,5.1791,5.1927,5.2602,5.3096,5.3185,5.3943,5.4608,5.4652,5.474,5.4806,5.5134,5.5221,5.5286,5.5526,5.5636,5.5466,5.5446,5.5711,5.622,5.6773,5.7327,5.7885,5.8489,5.9162,5.977,6.0429,6.1048,6.1573,6.21,6.2145,6.2145,6.2145,6.2145,6.1966,6.1652,6.1202,6.0931,6.0885,6.0795,6.0591,6.05,6.05,6.05,6.05,6.05,6.05,6.05,6.05,6.05,6.05,6.05,6.0545,6.0636,6.0726,6.0931,6.1021,6.1111,6.1292,6.1562,6.1427,6.1178,6.1292,6.1337,6.0931,6.0659,6.0568,6.0659,3.2222,3.2642,3.3006,3.3784,3.487,3.5944,3.7108,3.8152,3.8481,3.8679,3.8917,3.9351,3.9784,4.0216,4.0607,4.0977,4.123,4.1856,4.2406,4.3001,4.3838,4.4704,4.5434,4.5881,4.6104,4.6266,4.6389,4.6532,4.7108,4.8435,4.984,5.0582,5.1159,5.1496,5.1729,5.1772,5.1783,5.1767,5.1763,5.1708,5.1663,5.1698,5.1774,5.1791,5.1791,5.1791,5.1791,5.1791,5.1882,5.2107,5.2872,5.3275,5.3498,5.4254,5.4652,5.474,5.4959,5.5112,5.5308,5.5592,5.581,5.6074,5.6319,5.635,5.6398,5.6599,5.7133,5.7644,5.8203,5.8809,5.9417,6.0071,6.0659,6.1249,6.1752,6.2255,6.2368,6.2457,6.2457,6.2457,6.2413,6.2279,6.1966,6.1517,6.1156,6.1021,6.084,6.0545,6.05,6.05,6.05,6.05,6.05,6.05,6.05,6.05,6.05,6.05,6.05,6.0545,6.0681,6.0976,6.1202,6.1427,6.1652,6.1831,6.1966,6.1876,6.1742,6.1786,6.1652,6.1202,6.084,6.0614,6.0795,3.2261,3.2626,3.3099,3.4405,3.6068,3.6564,3.746,3.8524,3.86,3.8838,3.9272,3.9706,4.0098,4.0431,4.088,4.1094,4.1484,4.2013,4.2723,4.3241,4.4441,4.5332,4.5759,4.6104,4.6226,4.6266,4.6531,4.7002,4.814,4.929,5.0327,5.1118,5.1539,5.1771,5.1771,5.1813,5.1783,5.1787,5.1739,5.1687,5.1503,5.1564,5.1791,5.1791,5.1791,5.1791,5.1791,5.1882,5.2017,5.2468,5.294,5.3409,5.3988,5.4387,5.4608,5.4849,5.509,5.5351,5.5613,5.5919,5.6181,5.6427,5.6633,5.7107,5.7445,5.7559,5.7985,5.8499,5.9039,5.9581,6.0192,6.0687,6.1207,6.1817,6.2339,6.2725,6.2858,6.2902,6.2902,6.2902,6.2814,6.268,6.2547,6.2121,6.1628,6.1337,6.0976,6.0681,6.05,6.05,6.05,6.05,6.05,6.05,6.05,6.05,6.05,6.05,6.0546,6.0681,6.0931,6.1247,6.1517,6.1921,6.2324,6.219,6.219,6.2234,6.2279,6.219,6.1966,6.1472,6.1111,6.0886,6.0976,3.2528,3.2702,3.3668,3.4953,3.618,3.6641,3.7499,3.8582,3.86,3.8877,3.9312,3.9745,4.0137,4.0588,4.0997,4.1211,4.1445,4.2329,4.3121,4.388,4.4906,4.5657,4.6064,4.6226,4.6307,4.6428,4.6795,4.774,4.9011,5.0044,5.0831,5.1538,5.1813,5.1813,5.1813,5.1771,5.1784,5.1871,5.1781,5.1768,5.1726,5.1667,5.1791,5.1791,5.1791,5.1791,5.1791,5.1791,5.2062,5.2492,5.2961,5.3632,5.4475,5.4608,5.4696,5.4784,5.5221,5.5548,5.5963,5.6356,5.6706,5.7171,5.7582,5.8085,5.8476,5.8593,5.8864,5.9337,5.9789,6.0356,6.0878,6.1283,6.1733,6.2363,6.2879,6.3124,6.3301,6.3301,6.3277,6.3233,6.3145,6.3056,6.2967,6.2656,6.2166,6.1718,6.1337,6.0976,6.0591,6.05,6.05,6.05,6.05,6.05,6.0546,6.0661,6.073,6.073,6.073,6.0956,6.1203,6.1742,6.2279,6.268,6.2991,6.2861,6.2796,6.2971,6.2971,6.2891,6.2426,6.2048,6.1593,6.1298,6.134,3.2702,3.3023,3.416,3.524,3.6184,3.6814,3.7654,3.8508,3.8838,3.9154,3.9548,3.9823,4.0216,4.0724,4.1094,4.1367,4.1621,4.2605,4.34,4.4241,4.5128,4.5799,4.6145,4.6347,4.6509,4.6712,4.7842,4.8943,4.9954,5.0721,5.1427,5.1749,5.1813,5.1813,5.1813,5.1794,5.189,5.2131,5.1935,5.194,5.2003,5.1927,5.1791,5.1791,5.1791,5.1791,5.1791,5.1836,5.2242,5.2872,5.3498,5.3988,5.4564,5.4652,5.4828,5.5112,5.546,5.5919,5.6378,5.6815,5.7162,5.7587,5.8278,5.8697,5.8927,5.9068,5.9658,6.0065,6.0088,6.0566,6.122,6.1693,6.2229,6.279,6.3056,6.3257,6.3301,6.3301,6.3277,6.3277,6.3233,6.3189,6.3056,6.279,6.23,6.1876,6.1472,6.1021,6.0681,6.0523,6.0523,6.0523,6.0524,6.0707,6.0868,6.096,6.1028,6.1006,6.1006,6.1531,6.194,6.2489,6.3036,6.3289,6.3449,6.3381,6.3425,6.359,6.3923,6.3942,6.3333,6.2675,6.2216,6.1759,6.176,3.2892,3.3462,3.4519,3.5488,3.6317,3.7083,3.7849,3.8606,3.9114,3.9509,3.9863,3.9941,4.049,4.0977,4.123,4.1523,4.2053,4.2883,4.366,4.4543,4.5433,4.5941,4.6226,4.6388,4.6814,4.7675,4.8753,4.9616,5.0465,5.1191,5.1642,5.1749,5.1813,5.1813,5.1813,5.1816,5.1975,5.2197,5.2215,5.2203,5.2135,5.2062,5.1882,5.1791,5.1791,5.1791,5.1836,5.2017,5.2423,5.3185,5.4032,5.4431,5.4608,5.4718,5.5002,5.5287,5.5723,5.6203,5.6706,5.7164,5.7336,5.7722,5.8555,5.9016,5.9223,5.968,6.025,6.0477,6.05,6.0862,6.1517,6.21,6.2591,6.3036,6.3189,6.3277,6.3277,6.3277,6.3277,6.3277,6.3277,6.3277,6.3145,6.2879,6.2502,6.2011,6.1517,6.1066,6.0704,6.0614,6.0592,6.057,6.0593,6.0822,6.1097,6.1327,6.1396,6.1511,6.1626,6.2179,6.2749,6.3306,6.3631,6.3665,6.3758,6.3902,6.4022,6.4167,6.4524,6.4698,6.3874,6.3027,6.2662,6.2294,6.218,3.3213,3.4215,3.4799,3.5658,3.6664,3.718,3.7849,3.8606,3.9114,3.9548,3.9941,4.0294,4.0724,4.1211,4.1211,4.1602,4.2428,4.32,4.4059,4.4924,4.5737,4.6103,4.6388,4.6732,4.7568,4.8497,4.9396,5.0076,5.0867,5.1469,5.1813,5.1813,5.1813,5.1813,5.1813,5.186,5.2016,5.2326,5.2476,5.2425,5.2353,5.2197,5.1882,5.1791,5.1791,5.2062,5.2222,5.2357,5.294,5.3676,5.4298,5.4608,5.4696,5.474,5.5024,5.5439,5.5919,5.6378,5.6858,5.7273,5.7492,5.7722,5.8416,5.9016,5.9383,5.9909,6.0364,6.0545,6.0726,6.1202,6.1786,6.2255,6.2701,6.3056,6.3277,6.3277,6.3277,6.3277,6.3277,6.3277,6.3277,6.3277,6.3277,6.2991,6.2725,6.2234,6.1831,6.1337,6.0614,6.0637,6.0707,6.0662,6.0661,6.0868,6.1097,6.1601,6.1808,6.1946,6.2202,6.2758,6.3356,6.4154,6.4416,6.4263,6.4404,6.4596,6.4716,6.4765,6.4682,6.4691,6.4,6.331,6.3013,6.2712,6.2595]},{"header":{"parameterUnit":"m.s-1","parameterCategory":1,"la1":31.0,"la2":29.5877,"lo1":-88.7671,"lo2":-86.6584,"dy":0.0162,"dx":0.0185,"nx":115,"ny":88,"refTime":"2023-05-26T18:00:00:Z","depth":0,"parameterNumber":3,"parameterNumberName":"V-component_of_WINDS"},"data":[0.0,0.0,0.0,0.0,0.0,0.0,0.0,0.0,0.0,0.0,0.0,0.0,0.0,0.0,0.0,0.0,0.0,0.0,0.0,0.0,0.0,0.0,0.0,0.0,0.0,0.0,0.0,0.0,0.0,0.0,0.0,0.0,0.0,0.0,0.0,0.0,0.0,0.0,0.0,0.0,0.0,0.0,0.0,0.0,0.0,0.0,0.0,0.0,0.0,0.0,0.0,0.0,0.0,0.0,0.0,0.0,0.0,0.0,0.0,0.0,0.0,0.0,0.0,0.0,0.0,0.0,0.0,0.0,0.0,0.0,0.0,0.0,0.0,0.0,0.0,0.0,0.0,0.0,0.0,0.0,0.0,0.0,0.0,0.0,0.0,0.0,0.0,0.0,0.0,0.0,0.0,0.0,0.0,0.0,0.0,0.0,0.0,0.0,0.0,0.0,0.0,0.0,0.0,0.0,0.0,0.0,0.0,0.0,0.0,0.0,0.0,0.0,0.0,0.0,0.0,0.0,0.0,0.0,0.0,0.0,0.0,0.0,0.0,0.0,0.0,0.0,0.0,0.0,0.0,0.0,0.0,0.0,0.0,0.0,0.0,0.0,0.0,0.0,0.0,0.0,0.0,0.0,0.0,0.0,0.0,0.0,0.0,0.0,0.0,0.0,0.0,0.0,0.0,0.0,0.0,0.0,0.0,0.0,0.0,0.0,0.0,0.0,0.0,0.0,0.0,0.0,0.0,0.0,0.0,0.0,0.0,0.0,0.0,0.0,0.0,0.0,0.0,0.0,0.0,0.0,0.0,0.0,0.0,0.0,0.0,0.0,0.0,0.0,0.0,0.0,0.0,0.0,0.0,0.0,0.0,0.0,0.0,0.0,0.0,0.0,0.0,0.0,0.0,0.0,0.0,0.0,0.0,0.0,0.0,0.0,0.0,0.0,0.0,0.0,0.0,0.0,0.0,0.0,0.0,0.0,0.0,0.0,0.0,0.0,0.0,0.0,0.0,0.0,0.0,0.0,0.0,0.0,0.0,0.0,0.0,0.0,0.0,0.0,0.0,0.0,0.0,0.0,0.0,0.0,0.0,0.0,0.0,0.0,0.0,0.0,0.0,0.0,0.0,0.0,0.0,0.0,0.0,0.0,0.0,0.0,0.0,0.0,0.0,0.0,0.0,0.0,0.0,0.0,0.0,0.0,0.0,0.0,0.0,0.0,0.0,0.0,0.0,0.0,0.0,0.0,0.0,0.0,0.0,0.0,0.0,0.0,0.0,0.0,0.0,0.0,0.0,0.0,0.0,0.0,0.0,0.0,0.0,0.0,0.0,0.0,0.0,0.0,0.0,0.0,0.0,0.0,0.0,0.0,0.0,0.0,0.0,0.0,0.0,0.0,0.0,0.0,0.0,0.0,0.0,0.0,0.0,0.0,0.0,0.0,0.0,0.0,0.0,0.0,0.0,0.0,0.0,0.0,0.0,0.0,0.0,0.0,0.0,0.0,0.0,0.0,0.0,0.0,0.0,0.0,0.0,0.0,0.0,0.0,0.0,0.0,0.0,0.0,0.0,0.0,0.0,0.0,0.0,0.0,0.0,0.0,0.0,0.0,0.0,0.0,0.0,0.0,0.0,0.0,0.0,0.0,0.0,0.0,0.0,0.0,0.0,0.0,0.0,0.0,0.0,0.0,0.0,0.0,0.0,0.0,0.0,0.0,0.0,0.0,0.0,0.0,0.0,0.0,0.0,0.0,0.0,0.0,0.0,0.0,0.0,0.0,0.0,0.0,0.0,0.0,0.0,0.0,0.0,0.0,0.0,0.0,0.0,0.0,0.0,0.0,0.0,0.0,0.0,0.0,0.0,0.0,0.0,0.0,0.0,0.0,0.0,0.0,0.0,0.0,0.0,0.0,0.0,0.0,0.0,0.0,0.0,0.0,0.0,0.0,0.0,0.0,0.0,0.0,0.0,0.0,0.0,0.0,0.0,0.0,0.0,0.0,0.0,0.0,0.0,0.0,0.0,0.0,0.0,0.0,0.0,0.0,0.0,0.0,0.0,0.0,0.0,0.0,0.0,0.0,0.0,0.0,0.0,0.0,0.0,0.0,0.0,0.0,0.0,0.0,0.0,0.0,0.0,0.0,0.0,0.0,0.0,0.0,0.0,0.0,0.0,0.0,0.0,0.0,0.0,0.0,0.0,0.0,0.0,0.0,0.0,0.0,0.0,0.0,0.0,0.0,0.0,0.0,0.0,0.0,0.0,0.0,0.0,0.0,0.0,0.0,0.0,0.0,0.0,0.0,0.0,0.0,0.0,0.0,0.0,0.0,0.0,0.0,0.0,0.0,0.0,0.0,0.0,0.0,0.0,0.0,0.0,0.0,0.0,0.0,0.0,0.0,0.0,0.0,0.0,0.0,0.0,0.0,0.0,0.0,0.0,0.0,0.0,0.0,0.0,0.0,0.0,0.0,0.0,0.0,0.0,0.0,0.0,0.0,0.0,0.0,0.0,0.0,0.0,0.0,0.0,0.0,0.0,0.0,0.0,0.0,0.0,0.0,0.0,0.0,0.0,0.0,0.0,0.0,0.0,0.0,0.0,0.0,0.0,0.0,0.0,0.0,0.0,0.0,0.0,0.0,0.0,0.0,0.0,0.0,0.0,0.0,0.0,0.0,0.0,0.0,0.0,0.0,0.0,0.0,0.0,0.0,0.0,0.0,0.0,0.0,0.0,0.0,0.0,0.0,0.0,0.0,0.0,0.0,0.0,0.0,0.0,0.0,0.0,0.0,0.0,0.0,0.0,0.0,0.0,0.0,0.0,0.0,0.0,0.0,0.0,0.0,0.0,0.0,0.0,0.0,0.0,0.0,0.0,0.0,0.0,0.0,0.0,0.0,0.0,0.0,0.0,0.0,0.0,0.0,0.0,0.0,0.0,0.0,0.0,0.0,0.0,0.0,0.0,0.0,0.0,0.0,0.0,0.0,0.0,0.0,0.0,0.0,0.0,0.0,0.0,0.0,0.0,0.0,0.0,0.0,0.0,0.0,0.0,0.0,0.0,0.0,0.0,0.0,0.0,0.0,0.0,0.0,0.0,0.0,0.0,0.0,0.0,0.0,0.0,0.0,0.0,0.0,0.0,0.0,0.0,0.0,0.0,0.0,0.0,0.0,0.0,0.0,0.0,0.0,0.0,0.0,0.0,0.0,0.0,0.0,0.0,0.0,0.0,0.0,0.0,0.0,0.0,0.0,0.0,0.0,0.0,0.0,0.0,0.0,0.0,0.0,0.0,0.0,0.0,0.0,0.0,0.0,0.0,0.0,0.0,0.0,0.0,0.0,0.0,0.0,0.0,0.0,0.0,0.0,0.0,0.0,0.0,0.0,0.0,0.0,0.0,0.0,0.0,0.0,0.0,0.0,0.0,0.0,0.0,0.0,0.0,0.0,0.0,0.0,0.0,0.0,0.0,0.0,0.0,0.0,0.0,0.0,0.0,0.0,0.0,0.0,0.0,0.0,0.0,0.0,0.0,0.0,0.0,0.0,0.0,0.0,0.0,0.0,0.0,0.0,0.0,0.0,0.0,0.0,0.0,0.0,0.0,0.0,0.0,0.0,0.0,0.0,0.0,0.0,0.0,0.0,0.0,0.0,0.0,0.0,0.0,0.0,0.0,0.0,0.0,0.0,0.0,0.0,0.0,0.0,0.0,0.0,0.0,0.0,0.0,0.0,0.0,0.0,0.0,0.0,0.0,0.0,0.0,0.0,0.0,0.0,0.0,0.0,0.0,0.0,0.0,0.0,0.0,0.0,0.0,0.0,0.0,0.0,0.0,0.0,0.0,0.0,0.0,0.0,0.0,0.0,0.0,0.0,0.0,0.0,0.0,0.0,0.0,0.0,0.0,0.0,0.0,0.0,0.0,0.0,0.0,0.0,0.0,0.0,0.0,0.0,0.0,0.0,0.0,0.0,0.0,0.0,0.0,0.0,0.0,0.0,0.0,0.0,0.0,0.0,0.0,0.0,0.0,0.0,0.0,0.0,0.0,0.0,0.0,0.0,0.0,0.0,0.0,0.0,0.0,0.0,0.0,0.0,0.0,0.0,0.0,0.0,0.0,0.0,0.0,0.0,0.0,0.0,0.0,0.0,0.0,0.0,0.0,0.0,0.0,0.0,0.0,0.0,0.0,0.0,0.0,0.0,0.0,0.0,0.0,0.0,0.0,0.0,0.0,0.0,0.0,0.0,0.0,0.0,0.0,0.0,0.0,0.0,0.0,0.0,0.0,0.0,2.6185,0.0,0.0,0.0,0.0,0.0,0.0,0.0,0.0,0.0,0.0,0.0,0.0,0.0,0.0,0.0,0.0,0.0,0.0,0.0,0.0,0.0,0.0,0.0,0.0,0.0,0.0,0.0,0.0,0.0,0.0,0.0,0.0,0.0,0.0,0.0,0.0,0.0,0.0,0.0,0.0,0.0,0.0,0.0,0.0,0.0,0.0,0.0,0.0,0.0,0.0,0.0,0.0,0.0,0.0,0.0,0.0,0.0,0.0,0.0,0.0,0.0,0.0,0.0,0.0,0.0,0.0,0.0,0.0,0.0,0.0,0.0,0.0,0.0,0.0,0.0,0.0,0.0,0.0,0.0,0.0,0.0,0.0,0.0,0.0,0.0,0.0,0.0,0.0,0.0,0.0,0.0,0.0,0.0,0.0,0.0,0.0,0.0,0.0,0.0,0.0,0.0,0.0,0.0,0.0,0.0,0.0,0.0,0.0,0.0,0.0,2.675,2.6491,2.6825,2.6902,2.6592,0.0,0.0,0.0,0.0,0.0,0.0,0.0,0.0,0.0,0.0,0.0,0.0,0.0,0.0,0.0,0.0,0.0,0.0,0.0,0.0,0.0,0.0,0.0,0.0,0.0,0.0,0.0,0.0,0.0,0.0,0.0,0.0,0.0,0.0,0.0,0.0,0.0,0.0,0.0,0.0,0.0,0.0,0.0,0.0,0.0,0.0,0.0,0.0,0.0,0.0,0.0,0.0,0.0,0.0,0.0,0.0,0.0,0.0,0.0,0.0,0.0,0.0,0.0,0.0,0.0,0.0,0.0,0.0,0.0,0.0,0.0,0.0,0.0,0.0,0.0,0.0,0.0,0.0,0.0,0.0,0.0,0.0,0.0,0.0,0.0,0.0,0.0,0.0,0.0,0.0,0.0,0.0,0.0,0.0,0.0,0.0,0.0,0.0,0.0,0.0,0.0,0.0,0.0,0.0,0.0,0.0,0.0,0.0,0.0,0.0,0.0,0.0,2.7729,2.7643,2.701,0.0,0.0,0.0,0.0,0.0,0.0,0.0,0.0,0.0,0.0,0.0,0.0,0.0,0.0,0.0,0.0,0.0,0.0,0.0,0.0,0.0,0.0,0.0,0.0,0.0,0.0,0.0,0.0,0.0,0.0,0.0,0.0,0.0,0.0,0.0,0.0,0.0,0.0,0.0,0.0,0.0,0.0,0.0,0.0,0.0,0.0,0.0,0.0,0.0,0.0,0.0,0.0,0.0,0.0,0.0,0.0,0.0,0.0,0.0,0.0,0.0,0.0,0.0,0.0,0.0,0.0,0.0,0.0,0.0,0.0,0.0,0.0,0.0,0.0,0.0,0.0,0.0,0.0,0.0,0.0,0.0,0.0,0.0,0.0,0.0,0.0,0.0,0.0,0.0,0.0,0.0,0.0,0.0,0.0,0.0,0.0,0.0,0.0,0.0,0.0,0.0,0.0,0.0,0.0,0.0,0.0,0.0,0.0,0.0,0.0,2.7846,2.7412,2.7618,0.0,2.7194,0.0,0.0,0.0,0.0,0.0,0.0,0.0,0.0,0.0,0.0,0.0,0.0,0.0,0.0,0.0,0.0,0.0,0.0,0.0,0.0,0.0,0.0,0.0,0.0,0.0,0.0,0.0,0.0,0.0,0.0,0.0,0.0,0.0,0.0,0.0,0.0,0.0,0.0,0.0,0.0,0.0,0.0,0.0,0.0,0.0,0.0,0.0,0.0,0.0,0.0,0.0,0.0,0.0,0.0,0.0,0.0,0.0,0.0,0.0,0.0,0.0,0.0,0.0,0.0,0.0,0.0,0.0,0.0,0.0,0.0,0.0,0.0,0.0,0.0,0.0,0.0,0.0,0.0,0.0,0.0,0.0,0.0,0.0,0.0,0.0,0.0,0.0,0.0,0.0,0.0,0.0,0.0,0.0,0.0,0.0,0.0,0.0,0.0,0.0,0.0,0.0,0.0,0.0,0.0,0.0,0.0,0.0,0.0,0.0,0.0,2.867,2.8648,2.8563,2.8514,0.0,0.0,0.0,0.0,0.0,0.0,0.0,0.0,0.0,0.0,0.0,0.0,0.0,0.0,0.0,0.0,0.0,0.0,0.0,0.0,0.0,0.0,0.0,0.0,0.0,0.0,0.0,0.0,0.0,0.0,0.0,0.0,0.0,0.0,0.0,0.0,0.0,0.0,0.0,0.0,0.0,0.0,0.0,0.0,0.0,0.0,0.0,0.0,0.0,0.0,0.0,0.0,0.0,0.0,0.0,0.0,0.0,0.0,0.0,0.0,0.0,0.0,0.0,0.0,0.0,0.0,0.0,0.0,0.0,0.0,0.0,0.0,0.0,0.0,0.0,0.0,0.0,0.0,0.0,0.0,0.0,0.0,0.0,0.0,0.0,0.0,0.0,0.0,0.0,0.0,0.0,0.0,0.0,0.0,0.0,0.0,0.0,0.0,0.0,0.0,0.0,0.0,0.0,0.0,0.0,0.0,0.0,0.0,0.0,0.0,2.8963,2.9206,2.948,2.9437,2.9352,2.9237,0.0,0.0,0.0,0.0,0.0,0.0,0.0,0.0,0.0,0.0,0.0,0.0,0.0,0.0,0.0,0.0,0.0,0.0,0.0,0.0,0.0,0.0,0.0,0.0,0.0,0.0,0.0,0.0,0.0,0.0,0.0,0.0,0.0,0.0,0.0,0.0,0.0,0.0,0.0,0.0,0.0,0.0,0.0,0.0,0.0,0.0,0.0,0.0,0.0,0.0,0.0,0.0,0.0,0.0,0.0,0.0,0.0,0.0,0.0,0.0,0.0,0.0,0.0,0.0,0.0,0.0,0.0,0.0,0.0,0.0,0.0,0.0,0.0,0.0,0.0,0.0,0.0,0.0,0.0,0.0,0.0,0.0,0.0,0.0,0.0,0.0,0.0,0.0,0.0,0.0,0.0,0.0,0.0,0.0,0.0,0.0,0.0,0.0,0.0,0.0,0.0,0.0,0.0,0.0,0.0,0.0,0.0,0.0,2.8838,2.8881,2.9094,2.9544,2.9924,2.9855,0.0,0.0,0.0,0.0,0.0,0.0,0.0,0.0,0.0,0.0,0.0,0.0,0.0,0.0,0.0,0.0,0.0,0.0,0.0,0.0,0.0,0.0,0.0,0.0,0.0,0.0,0.0,0.0,0.0,0.0,0.0,0.0,0.0,0.0,0.0,0.0,0.0,0.0,0.0,0.0,0.0,0.0,0.0,0.0,0.0,0.0,0.0,0.0,0.0,0.0,0.0,0.0,0.0,0.0,0.0,0.0,0.0,0.0,0.0,0.0,0.0,0.0,0.0,0.0,0.0,0.0,0.0,0.0,0.0,0.0,0.0,0.0,0.0,0.0,0.0,0.0,0.0,0.0,0.0,0.0,0.0,0.0,0.0,0.0,0.0,0.0,0.0,0.0,0.0,0.0,0.0,0.0,0.0,0.0,0.0,0.0,0.0,0.0,0.0,0.0,0.0,0.0,0.0,0.0,0.0,0.0,0.0,0.0,0.0,2.9474,3.0212,3.0767,3.1103,3.0967,3.0806,0.0,0.0,0.0,0.0,0.0,0.0,0.0,0.0,0.0,0.0,0.0,0.0,0.0,0.0,0.0,0.0,0.0,0.0,0.0,0.0,0.0,0.0,0.0,0.0,0.0,0.0,0.0,0.0,0.0,0.0,0.0,0.0,0.0,0.0,0.0,0.0,0.0,0.0,0.0,0.0,0.0,0.0,0.0,0.0,0.0,0.0,0.0,0.0,0.0,0.0,0.0,0.0,0.0,0.0,0.0,0.0,0.0,0.0,0.0,0.0,0.0,0.0,0.0,0.0,0.0,0.0,0.0,0.0,0.0,0.0,0.0,0.0,0.0,0.0,0.0,0.0,0.0,0.0,0.0,0.0,0.0,0.0,0.0,0.0,0.0,0.0,0.0,0.0,0.0,0.0,0.0,0.0,0.0,0.0,0.0,0.0,0.0,0.0,0.0,0.0,0.0,0.0,0.0,0.0,0.0,0.0,0.0,0.0,0.0,3.0357,0.0,3.1726,3.1987,3.1774,3.1594,0.0,0.0,0.0,0.0,0.0,0.0,0.0,0.0,0.0,0.0,0.0,0.0,0.0,0.0,0.0,0.0,0.0,0.0,0.0,0.0,0.0,0.0,0.0,0.0,0.0,0.0,0.0,0.0,0.0,0.0,0.0,0.0,0.0,0.0,0.0,0.0,0.0,0.0,0.0,0.0,0.0,0.0,0.0,0.0,0.0,0.0,0.0,0.0,0.0,0.0,0.0,0.0,0.0,0.0,0.0,0.0,0.0,0.0,0.0,0.0,0.0,0.0,0.0,0.0,0.0,0.0,0.0,0.0,0.0,0.0,0.0,0.0,0.0,0.0,0.0,0.0,0.0,0.0,0.0,0.0,0.0,0.0,0.0,0.0,0.0,0.0,0.0,0.0,0.0,0.0,0.0,0.0,0.0,0.0,0.0,0.0,0.0,0.0,0.0,0.0,0.0,0.0,0.0,0.0,0.0,0.0,0.0,0.0,3.1236,3.1439,3.1649,3.1963,3.2063,3.2373,3.2185,0.0,0.0,0.0,0.0,0.0,0.0,0.0,0.0,0.0,0.0,0.0,0.0,0.0,0.0,0.0,0.0,0.0,0.0,0.0,0.0,0.0,0.0,0.0,0.0,0.0,0.0,0.0,0.0,0.0,0.0,0.0,0.0,0.0,0.0,0.0,0.0,0.0,0.0,0.0,0.0,0.0,0.0,0.0,0.0,0.0,0.0,0.0,0.0,0.0,0.0,0.0,0.0,0.0,0.0,0.0,0.0,0.0,0.0,0.0,0.0,0.0,0.0,0.0,0.0,0.0,0.0,0.0,0.0,0.0,0.0,0.0,0.0,0.0,0.0,0.0,0.0,0.0,0.0,0.0,0.0,0.0,0.0,0.0,0.0,0.0,0.0,0.0,0.0,0.0,0.0,0.0,0.0,0.0,0.0,0.0,0.0,0.0,0.0,0.0,0.0,0.0,0.0,0.0,0.0,0.0,0.0,0.0,0.0,0.0,3.4447,3.4468,3.4729,3.517,3.4341,3.3898,0.0,0.0,0.0,0.0,0.0,0.0,0.0,0.0,0.0,0.0,0.0,0.0,0.0,0.0,0.0,0.0,0.0,0.0,0.0,0.0,0.0,0.0,0.0,0.0,0.0,0.0,0.0,0.0,0.0,0.0,0.0,0.0,0.0,0.0,0.0,0.0,0.0,0.0,0.0,0.0,0.0,0.0,0.0,0.0,0.0,0.0,0.0,0.0,0.0,0.0,0.0,0.0,0.0,0.0,0.0,0.0,0.0,0.0,0.0,0.0,0.0,0.0,0.0,0.0,0.0,0.0,0.0,0.0,0.0,0.0,0.0,0.0,0.0,0.0,0.0,0.0,0.0,0.0,0.0,0.0,0.0,0.0,0.0,0.0,0.0,0.0,0.0,0.0,0.0,0.0,0.0,0.0,0.0,0.0,0.0,0.0,0.0,0.0,0.0,0.0,0.0,0.0,0.0,0.0,0.0,0.0,0.0,0.0,0.0,3.7844,3.7177,3.6877,3.7072,3.6252,3.5564,3.5093,0.0,0.0,0.0,0.0,0.0,0.0,0.0,0.0,0.0,0.0,0.0,0.0,0.0,0.0,0.0,0.0,0.0,0.0,0.0,0.0,0.0,0.0,0.0,0.0,0.0,0.0,0.0,0.0,0.0,0.0,0.0,0.0,0.0,0.0,0.0,0.0,0.0,0.0,0.0,0.0,0.0,0.0,0.0,0.0,0.0,0.0,0.0,0.0,0.0,0.0,0.0,0.0,0.0,0.0,0.0,0.0,0.0,0.0,0.0,0.0,0.0,0.0,0.0,0.0,0.0,0.0,0.0,0.0,0.0,0.0,0.0,0.0,0.0,0.0,0.0,0.0,0.0,0.0,0.0,0.0,0.0,0.0,0.0,0.0,0.0,0.0,0.0,0.0,0.0,0.0,0.0,0.0,0.0,0.0,0.0,0.0,0.0,0.0,0.0,0.0,0.0,0.0,0.0,0.0,0.0,0.0,0.0,0.0,4.151,3.9739,3.8558,3.7989,3.8084,3.7237,0.0,0.0,0.0,0.0,0.0,0.0,0.0,0.0,0.0,0.0,0.0,0.0,0.0,0.0,0.0,0.0,0.0,0.0,0.0,0.0,0.0,0.0,0.0,0.0,0.0,0.0,0.0,0.0,0.0,0.0,0.0,0.0,0.0,0.0,0.0,0.0,0.0,0.0,0.0,0.0,0.0,0.0,0.0,0.0,0.0,0.0,0.0,0.0,0.0,0.0,0.0,0.0,0.0,0.0,0.0,0.0,0.0,0.0,0.0,0.0,0.0,0.0,0.0,0.0,0.0,0.0,0.0,0.0,0.0,0.0,0.0,0.0,0.0,0.0,0.0,0.0,0.0,0.0,0.0,0.0,0.0,0.0,0.0,0.0,0.0,0.0,0.0,0.0,0.0,0.0,0.0,0.0,0.0,0.0,0.0,0.0,0.0,0.0,0.0,0.0,0.0,0.0,0.0,0.0,0.0,0.0,0.0,0.0,0.0,4.3103,4.3404,4.2644,4.0951,4.0108,3.9057,0.0,0.0,0.0,0.0,0.0,0.0,0.0,0.0,0.0,0.0,0.0,0.0,0.0,0.0,0.0,0.0,0.0,0.0,0.0,0.0,0.0,0.0,0.0,0.0,0.0,0.0,0.0,0.0,0.0,0.0,0.0,0.0,0.0,0.0,0.0,0.0,0.0,0.0,0.0,0.0,0.0,0.0,0.0,0.0,0.0,0.0,0.0,0.0,0.0,0.0,0.0,0.0,0.0,0.0,0.0,0.0,0.0,0.0,0.0,0.0,0.0,0.0,0.0,0.0,0.0,0.0,0.0,0.0,0.0,0.0,0.0,0.0,0.0,0.0,0.0,0.0,0.0,0.0,0.0,0.0,0.0,0.0,0.0,0.0,0.0,0.0,0.0,0.0,0.0,0.0,0.0,0.0,0.0,0.0,0.0,0.0,0.0,0.0,0.0,0.0,0.0,0.0,0.0,0.0,0.0,0.0,0.0,0.0,4.3783,4.5211,4.6258,4.6059,4.4576,4.2771,4.11,0.0,0.0,0.0,0.0,0.0,0.0,0.0,0.0,0.0,0.0,0.0,0.0,0.0,0.0,0.0,0.0,0.0,0.0,0.0,0.0,0.0,0.0,0.0,0.0,0.0,0.0,0.0,0.0,0.0,0.0,0.0,0.0,0.0,0.0,0.0,0.0,0.0,0.0,0.0,0.0,0.0,0.0,0.0,0.0,0.0,0.0,0.0,0.0,0.0,0.0,0.0,0.0,0.0,0.0,0.0,0.0,0.0,0.0,0.0,0.0,0.0,0.0,0.0,0.0,0.0,0.0,0.0,0.0,0.0,0.0,0.0,0.0,0.0,0.0,0.0,0.0,0.0,0.0,0.0,0.0,0.0,0.0,0.0,0.0,0.0,0.0,0.0,0.0,0.0,0.0,0.0,0.0,0.0,0.0,0.0,0.0,0.0,0.0,0.0,0.0,0.0,0.0,0.0,0.0,0.0,0.0,0.0,0.0,4.5343,4.7447,4.8442,4.8712,4.8116,4.5535,4.3189,0.0,0.0,0.0,0.0,0.0,0.0,0.0,0.0,0.0,0.0,0.0,0.0,0.0,0.0,0.0,0.0,0.0,0.0,0.0,0.0,0.0,0.0,0.0,0.0,0.0,0.0,0.0,0.0,0.0,0.0,0.0,0.0,0.0,0.0,0.0,0.0,0.0,0.0,0.0,0.0,0.0,0.0,0.0,0.0,0.0,0.0,0.0,0.0,0.0,0.0,0.0,0.0,0.0,0.0,0.0,0.0,0.0,0.0,0.0,0.0,0.0,0.0,0.0,0.0,0.0,0.0,0.0,0.0,0.0,0.0,0.0,0.0,0.0,0.0,0.0,0.0,0.0,0.0,0.0,0.0,0.0,0.0,0.0,0.0,0.0,0.0,0.0,0.0,0.0,0.0,0.0,0.0,0.0,0.0,0.0,0.0,0.0,0.0,0.0,0.0,0.0,0.0,0.0,0.0,0.0,0.0,0.0,0.0,4.7602,4.9264,4.9702,4.9709,4.924,4.6969,4.4543,0.0,0.0,0.0,0.0,0.0,0.0,0.0,0.0,0.0,0.0,0.0,0.0,0.0,0.0,0.0,0.0,0.0,0.0,0.0,0.0,0.0,0.0,0.0,0.0,0.0,0.0,0.0,0.0,0.0,0.0,0.0,0.0,0.0,0.0,0.0,0.0,0.0,0.0,0.0,0.0,0.0,0.0,0.0,0.0,0.0,0.0,0.0,0.0,3.3184,0.0,0.0,0.0,0.0,0.0,0.0,0.0,0.0,0.0,0.0,0.0,0.0,0.0,0.0,0.0,0.0,0.0,0.0,0.0,0.0,0.0,0.0,0.0,0.0,0.0,0.0,0.0,0.0,0.0,0.0,0.0,0.0,0.0,0.0,0.0,0.0,0.0,0.0,0.0,0.0,0.0,0.0,0.0,0.0,0.0,0.0,0.0,0.0,0.0,0.0,0.0,0.0,0.0,0.0,0.0,0.0,0.0,0.0,0.0,4.9433,5.1025,5.1565,5.1711,5.1311,4.9193,4.6593,0.0,0.0,0.0,0.0,0.0,0.0,0.0,0.0,0.0,0.0,0.0,0.0,0.0,0.0,0.0,0.0,0.0,0.0,0.0,0.0,0.0,0.0,0.0,0.0,0.0,0.0,0.0,0.0,0.0,0.0,0.0,0.0,0.0,0.0,0.0,0.0,0.0,0.0,0.0,0.0,0.0,0.0,0.0,0.0,0.0,0.0,0.0,0.0,0.0,0.0,0.0,0.0,0.0,0.0,0.0,0.0,0.0,0.0,0.0,0.0,0.0,0.0,0.0,0.0,0.0,0.0,0.0,0.0,0.0,0.0,0.0,0.0,0.0,0.0,0.0,0.0,0.0,0.0,0.0,0.0,0.0,0.0,0.0,0.0,0.0,0.0,0.0,0.0,0.0,0.0,0.0,0.0,0.0,0.0,0.0,0.0,0.0,0.0,0.0,0.0,0.0,0.0,0.0,0.0,0.0,0.0,0.0,4.8857,5.1076,5.2695,5.3521,5.374,5.3399,5.1402,4.8719,4.5245,0.0,0.0,0.0,0.0,0.0,0.0,0.0,0.0,0.0,0.0,0.0,0.0,0.0,0.0,0.0,0.0,0.0,0.0,0.0,0.0,0.0,0.0,0.0,0.0,0.0,0.0,0.0,0.0,0.0,0.0,0.0,0.0,0.0,0.0,0.0,0.0,0.0,0.0,2.7848,2.9828,0.0,0.0,0.0,0.0,0.0,0.0,0.0,0.0,3.6795,0.0,0.0,0.0,0.0,0.0,0.0,0.0,0.0,0.0,0.0,0.0,0.0,0.0,0.0,0.0,0.0,0.0,0.0,0.0,0.0,0.0,0.0,0.0,0.0,0.0,0.0,0.0,0.0,0.0,0.0,0.0,0.0,0.0,0.0,0.0,0.0,0.0,0.0,0.0,0.0,0.0,0.0,0.0,0.0,0.0,0.0,0.0,0.0,0.0,0.0,0.0,0.0,0.0,0.0,0.0,0.0,4.9357,5.1095,5.2776,5.4386,5.4701,5.4418,5.3399,5.2121,5.0074,4.7138,0.0,0.0,0.0,0.0,0.0,0.0,0.0,0.0,0.0,0.0,0.0,0.0,0.0,0.0,0.0,0.0,0.0,0.0,0.0,0.0,0.0,0.0,0.0,0.0,0.0,0.0,0.0,0.0,0.0,0.0,0.0,0.0,0.0,0.0,0.0,0.0,0.0,0.0,0.0,3.178,3.3224,0.0,0.0,0.0,0.0,0.0,0.0,0.0,0.0,3.772,0.0,0.0,0.0,0.0,0.0,0.0,0.0,0.0,0.0,0.0,0.0,0.0,0.0,0.0,0.0,0.0,0.0,0.0,0.0,0.0,0.0,0.0,0.0,0.0,0.0,0.0,0.0,0.0,0.0,0.0,0.0,0.0,0.0,0.0,0.0,0.0,0.0,0.0,0.0,0.0,0.0,0.0,0.0,0.0,0.0,0.0,0.0,0.0,0.0,0.0,0.0,0.0,0.0,0.0,0.0,5.0121,5.2516,5.4489,5.6037,5.6307,5.6096,5.54,5.3356,5.1188,0.0,0.0,0.0,0.0,0.0,0.0,0.0,0.0,0.0,0.0,0.0,0.0,0.0,0.0,0.0,0.0,0.0,0.0,0.0,0.0,0.0,0.0,0.0,0.0,0.0,0.0,0.0,0.0,0.0,0.0,0.0,0.0,0.0,0.0,0.0,0.0,0.0,0.0,0.0,0.0,3.3878,3.4859,3.5993,0.0,0.0,0.0,0.0,0.0,0.0,3.9868,3.9746,0.0,0.0,0.0,0.0,0.0,0.0,0.0,0.0,0.0,0.0,0.0,0.0,0.0,0.0,0.0,0.0,0.0,0.0,0.0,0.0,0.0,0.0,0.0,0.0,0.0,0.0,0.0,0.0,0.0,0.0,0.0,0.0,0.0,0.0,0.0,0.0,0.0,0.0,0.0,0.0,0.0,0.0,0.0,0.0,0.0,0.0,0.0,0.0,0.0,0.0,0.0,0.0,0.0,0.0,0.0,5.1033,5.3869,5.6085,5.7658,5.7932,5.7879,5.7428,5.4904,5.2504,0.0,0.0,0.0,0.0,0.0,0.0,0.0,0.0,0.0,0.0,0.0,0.0,0.0,0.0,0.0,0.0,0.0,0.0,0.0,0.0,0.0,0.0,0.0,0.0,0.0,0.0,0.0,0.0,0.0,0.0,0.0,0.0,0.0,0.0,0.0,0.0,0.0,0.0,0.0,0.0,0.0,3.6526,3.8003,3.8355,0.0,0.0,0.0,0.0,4.1745,4.1873,0.0,0.0,0.0,0.0,0.0,0.0,0.0,0.0,0.0,0.0,0.0,0.0,0.0,0.0,0.0,0.0,0.0,0.0,0.0,0.0,0.0,0.0,0.0,0.0,0.0,0.0,0.0,0.0,0.0,0.0,0.0,0.0,0.0,0.0,0.0,0.0,0.0,0.0,0.0,0.0,0.0,0.0,0.0,0.0,0.0,0.0,0.0,0.0,0.0,0.0,0.0,0.0,0.0,0.0,0.0,0.0,5.3912,5.5827,5.7549,5.9145,5.9444,5.9089,5.8119,5.6593,5.4542,0.0,0.0,0.0,0.0,0.0,0.0,0.0,0.0,0.0,0.0,0.0,0.0,0.0,0.0,0.0,0.0,0.0,0.0,0.0,0.0,0.0,0.0,0.0,0.0,0.0,0.0,0.0,0.0,0.0,0.0,0.0,0.0,0.0,0.0,0.0,0.0,0.0,0.0,0.0,0.0,0.0,3.827,3.9812,4.003,4.0629,0.0,0.0,4.262,4.2749,4.2749,0.0,0.0,0.0,0.0,0.0,0.0,0.0,0.0,0.0,0.0,0.0,0.0,0.0,0.0,0.0,0.0,0.0,0.0,0.0,0.0,0.0,0.0,0.0,0.0,0.0,0.0,0.0,0.0,0.0,0.0,0.0,0.0,0.0,0.0,0.0,0.0,0.0,0.0,0.0,0.0,0.0,0.0,0.0,0.0,0.0,0.0,0.0,0.0,0.0,0.0,0.0,0.0,0.0,0.0,0.0,5.0963,5.4423,5.6939,5.907,6.0705,6.1339,6.1163,6.0106,5.7867,5.5332,0.0,0.0,0.0,0.0,0.0,0.0,0.0,0.0,0.0,0.0,0.0,0.0,0.0,0.0,0.0,0.0,0.0,0.0,0.0,0.0,0.0,0.0,0.0,0.0,0.0,0.0,0.0,0.0,0.0,0.0,0.0,0.0,0.0,0.0,0.0,0.0,0.0,0.0,0.0,0.0,0.0,0.0,4.1387,4.2035,0.0,0.0,0.0,4.4937,4.536,0.0,0.0,0.0,0.0,0.0,0.0,0.0,0.0,0.0,0.0,0.0,0.0,0.0,0.0,0.0,0.0,0.0,0.0,0.0,0.0,0.0,0.0,0.0,0.0,0.0,0.0,0.0,0.0,0.0,0.0,0.0,0.0,0.0,0.0,0.0,0.0,0.0,0.0,0.0,0.0,0.0,0.0,0.0,0.0,0.0,0.0,0.0,0.0,0.0,0.0,0.0,0.0,0.0,0.0,0.0,0.0,0.0,5.527,5.8235,6.0531,6.215,6.2999,6.2824,6.1632,5.9183,0.0,0.0,0.0,0.0,0.0,0.0,0.0,0.0,0.0,0.0,0.0,0.0,0.0,0.0,0.0,0.0,0.0,0.0,0.0,0.0,0.0,0.0,0.0,0.0,0.0,0.0,0.0,2.8057,0.0,0.0,0.0,0.0,0.0,0.0,0.0,0.0,0.0,0.0,0.0,0.0,0.0,0.0,4.1704,4.3074,4.3963,4.4812,0.0,0.0,4.6816,4.7297,4.6485,4.5741,0.0,0.0,0.0,0.0,0.0,0.0,0.0,0.0,0.0,0.0,0.0,0.0,0.0,0.0,0.0,0.0,0.0,0.0,0.0,0.0,0.0,0.0,0.0,0.0,0.0,0.0,0.0,0.0,0.0,0.0,0.0,0.0,0.0,0.0,0.0,0.0,0.0,0.0,0.0,0.0,0.0,0.0,0.0,0.0,0.0,0.0,0.0,0.0,0.0,0.0,0.0,0.0,0.0,0.0,0.0,5.7508,5.9984,6.1949,6.3403,6.399,6.3511,6.2017,6.0814,5.8728,0.0,0.0,0.0,0.0,0.0,0.0,0.0,0.0,0.0,0.0,0.0,0.0,0.0,0.0,0.0,0.0,0.0,0.0,0.0,0.0,0.0,0.0,0.0,0.0,0.0,0.0,0.0,0.0,0.0,0.0,0.0,0.0,0.0,0.0,0.0,0.0,0.0,0.0,0.0,0.0,0.0,4.3987,4.4886,4.5659,4.6453,0.0,0.0,4.754,4.7584,4.754,4.737,4.7177,0.0,0.0,0.0,0.0,0.0,0.0,0.0,0.0,0.0,0.0,0.0,0.0,0.0,0.0,0.0,0.0,0.0,0.0,0.0,0.0,0.0,0.0,0.0,0.0,0.0,0.0,0.0,0.0,0.0,0.0,0.0,0.0,0.0,0.0,0.0,0.0,0.0,0.0,0.0,0.0,0.0,0.0,0.0,0.0,0.0,0.0,0.0,0.0,0.0,0.0,0.0,0.0,0.0,5.5028,5.8436,6.119,6.3354,6.4914,6.5588,6.5471,6.4539,6.1917,5.9323,0.0,0.0,0.0,0.0,0.0,0.0,0.0,0.0,0.0,0.0,0.0,0.0,0.0,0.0,0.0,0.0,0.0,0.0,0.0,0.0,0.0,0.0,0.0,0.0,0.0,0.0,0.0,0.0,3.2002,3.2946,3.3442,0.0,0.0,0.0,0.0,0.0,0.0,0.0,0.0,0.0,0.0,4.5185,4.6485,4.7632,0.0,0.0,4.9749,5.0317,5.0317,4.9958,4.9615,4.9416,4.8602,0.0,0.0,0.0,0.0,0.0,0.0,0.0,0.0,0.0,0.0,0.0,0.0,0.0,0.0,0.0,0.0,0.0,0.0,0.0,0.0,0.0,0.0,0.0,0.0,0.0,0.0,0.0,0.0,0.0,0.0,0.0,0.0,0.0,0.0,0.0,0.0,0.0,0.0,0.0,0.0,0.0,0.0,0.0,0.0,0.0,0.0,0.0,0.0,0.0,0.0,0.0,0.0,5.6142,5.9198,6.2134,6.4387,6.5969,6.6801,6.6846,6.5977,6.312,6.0451,0.0,0.0,0.0,0.0,0.0,0.0,0.0,0.0,0.0,0.0,0.0,0.0,0.0,0.0,0.0,0.0,0.0,0.0,0.0,0.0,0.0,0.0,0.0,0.0,0.0,0.0,0.0,0.0,3.394,3.5107,3.5949,0.0,0.0,0.0,0.0,0.0,0.0,0.0,0.0,0.0,0.0,4.7132,4.85,4.9746,5.0572,5.0711,5.1686,5.2416,5.2416,5.2142,5.1902,5.1726,0.0,0.0,0.0,0.0,0.0,0.0,0.0,0.0,0.0,0.0,0.0,0.0,0.0,0.0,0.0,0.0,0.0,0.0,0.0,0.0,0.0,0.0,0.0,0.0,0.0,0.0,0.0,0.0,0.0,0.0,4.0647,0.0,0.0,0.0,0.0,0.0,0.0,0.0,0.0,0.0,0.0,0.0,0.0,0.0,0.0,0.0,0.0,0.0,0.0,0.0,0.0,0.0,0.0,5.6935,5.996,6.2929,6.5061,6.6452,6.7476,6.7289,6.5891,6.4486,6.2438,5.9393,0.0,0.0,0.0,0.0,0.0,0.0,0.0,0.0,0.0,0.0,0.0,0.0,0.0,0.0,0.0,0.0,0.0,0.0,0.0,0.0,0.0,0.0,0.0,0.0,0.0,0.0,3.488,3.6157,3.7337,0.0,0.0,0.0,0.0,0.0,0.0,0.0,0.0,0.0,0.0,4.8906,5.0208,5.1065,5.2069,5.2637,5.2657,5.3093,5.3374,5.3405,5.3777,5.404,0.0,0.0,0.0,0.0,0.0,0.0,0.0,0.0,0.0,0.0,0.0,0.0,0.0,0.0,0.0,0.0,0.0,0.0,0.0,0.0,0.0,0.0,0.0,0.0,0.0,0.0,0.0,4.4941,4.4706,0.0,0.0,0.0,0.0,0.0,0.0,0.0,0.0,0.0,0.0,0.0,4.976,4.9485,0.0,0.0,0.0,0.0,0.0,0.0,0.0,0.0,0.0,0.0,0.0,0.0,5.8959,6.1471,6.4332,6.6287,6.7224,6.8012,6.7992,6.7007,6.474,6.1214,5.634,0.0,0.0,0.0,0.0,0.0,0.0,0.0,0.0,0.0,0.0,0.0,0.0,0.0,0.0,0.0,0.0,0.0,0.0,0.0,0.0,0.0,0.0,0.0,0.0,0.0,3.6445,0.0,0.0,0.0,0.0,0.0,0.0,0.0,0.0,0.0,0.0,0.0,4.758,4.9182,5.0775,5.2081,5.2876,5.4013,5.4811,0.0,0.0,0.0,0.0,0.0,0.0,0.0,0.0,0.0,0.0,0.0,0.0,0.0,0.0,5.3844,5.1721,5.1683,5.1987,5.1987,0.0,0.0,0.0,0.0,0.0,0.0,0.0,0.0,0.0,0.0,0.0,0.0,0.0,0.0,0.0,0.0,4.7072,0.0,0.0,0.0,0.0,0.0,0.0,0.0,0.0,5.1772,5.2267,5.2773,5.2501,5.2352,0.0,5.2234,5.1173,0.0,0.0,0.0,0.0,0.0,0.0,0.0,0.0,5.998,6.22,6.5028,6.686,6.7589,6.8572,6.8606,6.7589,6.4299,6.0245,5.5421,5.2666,4.9817,0.0,0.0,0.0,0.0,0.0,0.0,0.0,0.0,0.0,0.0,0.0,0.0,0.0,0.0,0.0,0.0,0.0,0.0,0.0,0.0,0.0,0.0,0.0,3.9409,0.0,0.0,0.0,0.0,0.0,0.0,0.0,0.0,0.0,4.7,4.8365,5.0073,5.1638,5.3265,5.4562,5.5268,0.0,0.0,0.0,0.0,0.0,0.0,0.0,5.8848,5.8708,5.9113,5.9435,5.9371,5.9034,5.8911,5.939,0.0,0.0,5.5625,5.5448,5.5803,5.5803,5.5868,5.5971,5.5971,5.621,5.637,0.0,0.0,0.0,0.0,0.0,0.0,0.0,0.0,4.8982,4.9116,0.0,4.931,0.0,0.0,0.0,0.0,0.0,5.1462,0.0,0.0,5.4922,5.5398,5.5831,5.5445,5.5187,5.5219,5.5187,5.5155,5.4961,5.2436,0.0,0.0,0.0,0.0,0.0,0.0,6.0079,6.2233,6.5094,6.6893,6.7622,6.9036,6.9069,6.7523,6.3416,5.9794,5.6879,5.4477,5.1819,4.8782,4.6371,0.0,0.0,0.0,0.0,0.0,0.0,0.0,0.0,0.0,0.0,0.0,0.0,0.0,0.0,0.0,0.0,0.0,0.0,0.0,0.0,4.1835,0.0,0.0,0.0,0.0,0.0,0.0,0.0,0.0,0.0,0.0,4.9833,5.1304,5.3125,5.4642,0.0,0.0,0.0,0.0,5.9792,5.9824,6.0003,6.0101,6.0078,6.086,6.1459,6.1466,0.0,0.0,6.228,6.2028,6.2039,6.2694,6.3293,6.2794,5.9714,5.9327,5.9439,5.9464,5.9638,5.9766,5.9853,6.0316,6.0671,5.7917,0.0,0.0,0.0,0.0,5.3339,5.2929,5.2712,5.25,5.2347,5.2228,5.2122,0.0,0.0,0.0,0.0,0.0,0.0,5.5273,5.6117,5.712,5.7752,5.8067,5.7941,5.7793,5.7602,5.7602,5.7365,5.6869,5.6092,5.5271,5.4503,0.0,0.0,0.0,0.0,6.1836,6.3062,6.5801,6.739,6.7589,6.9036,6.8837,6.686,6.3603,6.0742,5.8336,5.5482,5.2737,5.0174,4.7841,0.0,0.0,0.0,0.0,0.0,0.0,0.0,0.0,0.0,0.0,0.0,0.0,0.0,0.0,0.0,0.0,0.0,0.0,0.0,4.4186,4.4749,4.5501,0.0,0.0,0.0,0.0,0.0,0.0,0.0,0.0,0.0,5.541,5.5665,5.6049,0.0,0.0,6.0071,6.0696,6.1485,6.2178,6.2696,0.0,0.0,0.0,6.2753,6.3214,6.352,6.4626,6.5339,6.5078,6.4973,6.5056,6.5558,6.5781,6.57,6.5347,6.4475,6.3968,6.3905,6.3984,6.4037,6.4068,6.4224,6.4323,6.2019,6.0318,5.858,5.751,5.6961,5.6163,5.5626,5.5312,5.4929,5.4658,5.4528,5.4528,5.4384,5.4057,5.4469,0.0,0.0,0.0,5.7375,5.8294,5.919,5.9786,6.0106,6.0239,6.0163,6.001,5.99,5.9522,5.8896,5.8864,5.8323,5.7272,0.0,0.0,5.9175,6.1195,6.2697,6.3824,6.6287,6.7589,6.7622,6.845,6.8152,6.6496,6.3691,6.1264,5.9242,5.6468,5.3855,5.1521,4.9447,4.763,0.0,0.0,0.0,0.0,0.0,0.0,0.0,0.0,0.0,0.0,0.0,3.9518,4.0197,0.0,0.0,0.0,4.517,4.6369,4.7998,4.8371,0.0,0.0,0.0,0.0,0.0,0.0,0.0,5.562,5.7069,5.8337,5.9302,6.0033,6.0132,5.9206,6.1019,6.2631,6.2996,0.0,6.4569,6.5021,6.4995,6.4917,6.4743,6.5065,6.5508,6.6075,6.7091,6.776,6.763,6.7823,6.8182,6.8642,6.8774,6.8994,6.9653,6.912,6.8186,6.7383,6.75,6.777,6.777,6.777,6.7743,6.5264,6.4644,6.1618,5.9779,5.8863,5.8388,5.7725,5.6966,5.6583,5.6305,5.6155,5.6549,5.6619,5.6387,5.6616,0.0,5.8411,5.8228,5.9043,6.0638,6.1027,6.1444,6.1915,6.2189,6.2315,6.2293,6.2045,6.1575,6.0949,6.0949,6.0704,6.0294,5.9147,5.9219,6.0507,6.1756,6.3062,6.4487,6.6529,6.7655,6.7787,6.7655,6.7291,6.6595,6.3769,6.1478,5.9828,5.7498,5.5169,5.29,5.1229,4.9742,4.8397,0.0,0.0,0.0,0.0,0.0,0.0,0.0,0.0,0.0,0.0,0.0,0.0,0.0,0.0,0.0,4.9406,0.0,5.1778,5.2403,0.0,0.0,0.0,5.5273,5.5576,5.6767,5.7864,5.8708,0.0,0.0,6.2028,0.0,6.4727,6.2622,6.3962,6.519,6.5255,6.6133,6.6846,6.691,6.7087,6.7228,6.7228,6.7652,6.8161,6.8766,6.9521,6.9904,6.9967,7.041,7.1136,7.1614,7.1835,7.1961,7.2685,7.2593,7.222,7.0042,7.0336,7.0915,7.0824,7.0792,7.0676,6.6477,6.5606,6.4135,6.2604,6.1113,6.0187,5.9379,5.8597,5.8251,5.7989,5.7727,5.788,5.8222,5.8753,5.8493,5.9028,6.0141,6.0333,6.0459,6.0671,6.1691,6.2321,6.2661,6.3254,6.3448,6.3259,6.3224,6.2842,6.2188,6.2156,6.2102,6.2004,6.1841,6.1686,6.1521,6.3076,6.4299,6.516,6.6761,6.8152,6.9202,6.8152,6.7523,6.7324,6.4354,6.2276,6.1289,5.8829,5.6707,5.5082,5.3402,5.2139,5.1232,4.9006,0.0,0.0,0.0,0.0,0.0,0.0,0.0,0.0,0.0,4.5516,4.6183,0.0,4.8905,0.0,5.2297,5.4094,5.544,5.5745,0.0,0.0,5.8047,5.8647,5.9768,6.0202,6.1087,6.2825,6.3381,6.4146,6.5555,6.6676,6.7245,6.6882,6.6836,6.7029,6.7516,6.7811,6.8176,6.8752,6.9133,6.9363,6.9432,7.0196,7.082,7.1042,7.161,7.2053,7.2053,7.2211,7.2401,7.2527,7.2559,7.2653,7.2811,7.3254,7.3446,7.2883,7.2593,7.2337,7.2306,7.2337,7.2277,6.7985,6.7028,6.6458,6.5133,6.3385,6.2378,6.1717,6.1257,6.094,6.0629,6.0346,6.0113,6.0256,6.0595,6.0306,6.0544,6.1205,6.1371,6.138,6.128,6.251,6.3152,6.3241,6.4101,6.4383,6.4271,6.4125,6.3719,6.3086,6.3054,6.2934,6.2727,6.3155,6.3254,6.3011,6.3924,6.4895,6.5922,6.7324,6.8672,6.9699,6.835,6.7576,6.7417,6.4804,6.3111,6.2486,6.0152,5.8297,5.7066,5.5568,5.4405,5.3609,5.1965,5.0987,0.0,0.0,0.0,0.0,0.0,0.0,0.0,0.0,0.0,0.0,0.0,5.3159,5.5171,5.6701,5.8067,5.9255,5.9349,5.9838,6.1055,6.1435,6.201,6.311,6.352,6.4279,6.5732,6.589,6.648,6.8001,6.882,6.9446,6.9867,6.9836,6.9662,6.9457,6.9755,7.0249,7.0631,7.1048,7.1298,7.1298,7.1822,7.2243,7.2306,7.2843,7.3285,7.3285,7.357,7.3728,7.3728,7.3728,7.3728,7.3759,7.4044,7.4328,7.4297,7.4012,7.3759,7.3728,7.3728,7.3728,6.9397,6.8414,6.8226,6.7142,6.54,6.4546,6.4076,6.3851,6.3551,6.3207,6.2859,6.2424,6.2158,6.2022,6.1884,6.1841,6.1975,6.1956,6.1974,6.2064,6.3312,6.3805,6.366,6.4652,6.5122,6.5122,6.4907,6.4488,6.3842,6.3842,6.3626,6.3243,6.3881,6.4288,6.4531,6.4619,6.5326,6.6628,6.8076,6.9136,6.9765,6.845,6.7629,6.7221,6.5208,6.3842,6.3281,6.1401,5.987,5.8939,5.7687,5.6737,5.5972,5.5108,5.4639,0.0,5.3856,0.0,0.0,0.0,0.0,0.0,0.0,0.0,0.0,5.5938,5.7993,6.0709,6.1619,6.2323,6.2988,6.3051,6.3336,6.4058,6.4665,6.5267,6.5879,6.6607,6.7303,6.7913,6.8071,6.864,6.9932,7.0659,7.1294,7.1765,7.2334,7.2252,7.1341,7.1613,7.2108,7.2267,7.2639,7.284,7.2998,7.3064,7.3127,7.3159,7.3601,7.4012,7.4012,7.4455,7.4866,7.4834,7.4802,7.4834,7.4897,7.4929,7.5024,7.5024,7.5087,7.5118,7.5024,7.496,7.5055,6.9756,6.8363,6.8145,6.7363,6.6265,6.5985,6.5058,6.3723,6.3505,6.3207,6.2859,6.2521,6.2504,6.2771,6.2753,6.2761,6.278,6.2761,6.2503,6.2064,6.3332,6.3805,6.366,6.4807,6.5336,6.5336,6.5314,6.5225,6.5038,6.5038,6.4994,6.4939,6.5094,6.5149,6.5238,0.0,0.0,0.0,6.8837,6.9666,6.9765,6.8937,6.8115,6.7287,6.5509,0.0,6.329,6.2133,6.1154,6.0429,6.0137,0.0,0.0,0.0,0.0,0.0,0.0,0.0,0.0,0.0,0.0,0.0,6.0997,6.0256,5.8381,6.0424,6.262,6.4282,6.5048,6.5751,6.6448,6.6518,6.6806,6.7451,6.7674,6.7921,6.8351,6.9024,6.9641,7.0149,7.0662,7.1294,7.2021,7.2337,7.2464,7.2653,7.3254,7.3536,7.3272,7.2924,7.2708,7.2711,7.3283,7.3886,7.4423,7.4455,7.436,7.4518,7.4581,7.4676,7.4676,7.4771,7.4897,7.4897,7.4897,7.4897,7.4929,7.534,7.5782,7.5782,7.6193,7.6444,7.5908,7.5782,7.594,7.0675,0.0,6.8766,6.7878,0.0,6.6403,6.5622,6.4751,6.4637,6.4417,6.4079,6.3716,6.3553,6.3588,6.3588,6.3385,6.3,6.3,6.2901,6.2797,6.3698,6.4174,6.4331,6.5159,6.5537,6.5403,6.5403,6.5403,6.5403,6.5403,6.5403,6.5403,6.5734,6.5933,6.5966,6.7026,6.7777,6.8142,6.9235,6.9798,6.9765,6.9093,6.8342,6.7626,0.0,0.0,0.0,0.0,0.0,0.0,0.0,0.0,0.0,0.0,0.0,6.1113,6.1031,6.1253,6.1984,6.267,6.3539,6.4594,6.5625,6.5237,6.2908,6.4646,6.6158,6.6869,6.7542,6.808,6.8464,6.8816,6.927,6.9974,7.0359,7.0785,7.1324,7.1573,7.1783,7.1992,7.217,7.2559,7.3254,7.3349,7.3507,7.3791,7.4139,7.4391,7.436,7.4075,7.3823,7.3854,7.4107,7.4486,7.4802,7.4897,7.4897,7.4897,7.4897,7.4897,7.4897,7.4897,7.4897,7.4929,7.5182,7.5434,7.5498,7.6003,7.6477,7.6539,7.676,7.7077,7.692,7.673,7.6571,7.1659,7.0688,6.958,6.8491,6.742,6.6565,6.6054,6.5756,0.0,0.0,0.0,6.4895,6.4516,6.4233,6.4233,6.3765,6.3019,6.3,6.3178,6.3511,6.4031,6.4564,6.5003,6.5556,6.5647,6.5425,6.5403,6.5403,6.5403,6.5403,6.5469,6.5635,6.6198,6.6628,6.6949,6.8076,6.8738,6.8904,6.9491,6.9798,6.9765,6.9202,6.8592,6.8098,6.7484,6.6918,6.6461,6.5861,6.5569,6.5722,6.5203,6.4911,6.4911,6.4911,6.4911,6.4911,6.4864,6.5132,6.5788,6.6347,6.71,6.8039,6.9328,6.9246,6.7272,6.8402,6.9268,6.9396,7.0006,7.0391,7.0423,7.0936,7.1546,7.2155,7.2701,7.3278,7.374,7.377,7.3572,7.3493,7.3359,7.347,7.3981,7.4075,7.4265,7.4739,7.4802,7.4897,7.4897,7.4802,7.4771,7.4771,7.4771,7.4897,7.5087,7.5118,7.515,7.534,7.534,7.5245,7.5276,7.5245,7.5276,7.5371,7.5814,7.6098,7.6193,7.6698,7.7171,7.7171,7.7329,7.7551,7.7994,7.7773,7.7456,7.217,7.0776,7.016,6.8996,6.7456,6.7175,6.6455,6.5562,6.5431,6.5349,6.5266,6.486,6.4533,6.4233,6.4233,6.3765,6.3019,6.3,6.3198,0.0,6.4031,6.4564,6.5003,6.5556,6.567,6.5425,6.5425,6.5403,6.5403,6.5403,6.5701,6.6297,6.643,6.7125,6.8331,6.8629,6.9027,6.9633,6.9732,6.9798,6.9798,6.9699,6.9216,6.8304,6.8181,6.7997,6.7742,6.7653,6.7873,6.8486,6.8421,6.838,6.8355,6.8323,6.838,6.8388,6.8144,6.8347,6.8974,6.8936,6.9716,7.1569,7.2508,7.2093,7.0105,7.114,7.2207,7.2789,7.3344,7.3889,7.3889,7.3894,7.3958,7.412,7.4245,7.4296,7.4272,7.4638,7.4705,7.4247,7.4704,7.4876,7.4703,7.4707,7.4707,7.4866,7.4897,7.4897,7.4897,7.4897,7.4897,7.4897,7.4897,7.515,7.5592,7.5845,7.6035,7.6634,7.6604,7.6509,7.6509,7.6539,7.6539,7.6635,7.676,7.6855,7.6887,7.7394,7.7773,7.7899,7.8279,7.869,7.8879,7.8753,7.8721,7.2519,7.1366,7.0485,6.9573,6.8662,6.7545,6.6501,6.5513,6.5365,6.5249,6.5115,6.4723,6.4411,6.418,6.4073,6.3655,6.3,6.341,6.3791,6.414,6.4748,6.5324,6.5798,6.606,6.5977,6.5625,6.5625,6.5559,6.5425,6.5767,6.6165,6.6529,6.7281,6.8241,6.9202,6.9301,6.9467,6.9798,6.9798,7.0021,7.0361,7.0394,7.0307,7.0098,7.0074,6.9985,6.9739,6.9739,6.987,7.0223,7.0255,7.0255,7.0223,7.0255,7.0419,7.0813,7.072,7.1135,7.2188,7.2509,7.305,7.4061,7.4419,7.4419,7.38,7.3668,7.3771,7.4095,7.4451,7.4581,7.4613,7.4969,7.5196,7.5196,7.5552,7.5723,7.5648,7.5673,7.561,7.5211,7.5266,7.5283,7.4927,7.4897,7.4897,7.4897,7.4897,7.4897,7.4897,7.4897,7.4897,7.4929,7.5213,7.5561,7.5972,7.6319,7.6635,7.6951,7.7013,7.7013,7.7013,7.7013,7.7045,7.7045,7.7298,7.752,7.7552,7.8121,7.85,7.8595,7.8847,7.91,7.91,7.91,7.91,7.2863,7.1891,7.0847,7.0118,6.962,6.7949,6.6653,6.5748,6.5597,6.5307,6.4929,6.4533,6.4323,6.418,6.3999,6.3666,6.3365,6.3835,6.437,6.4871,6.5425,6.5998,6.644,6.6507,6.6259,6.5911,6.5867,6.5824,6.5869,6.6356,6.6798,6.7206,6.84,6.9306,6.9765,6.9798,6.9864,7.003,7.0063,7.0328,7.0891,7.1057,7.1324,7.168,7.1689,7.1655,7.162,7.162,7.1784,7.208,7.2112,7.2178,7.2342,7.2342,7.2605,7.3131,7.3145,7.3527,7.453,7.5316,7.5769,7.5769,7.5873,7.6201,7.6632,7.5886,7.5232,7.5204,7.5242,7.5214,7.5256,7.5617,7.5945,7.6006,7.6459,7.6718,7.6755,7.6585,7.6239,7.5861,7.5603,7.5372,7.5016,7.4897,7.4897,7.4897,7.4897,7.4897,7.4897,7.4897,7.4897,7.5024,7.5498,7.6035,7.6193,7.6793,7.7236,7.7394,7.752,7.7583,7.7583,7.752,7.7488,7.7615,7.7931,7.8215,7.8279,7.8689,7.9005,7.9037,7.91,7.91,7.91,7.91,7.91,7.3389,7.2036,7.1406,7.0557,6.9545,6.8472,6.7371,6.6378,6.6309,6.5665,6.4864,6.4515,6.4358,6.418,6.3999,6.3992,6.4025,6.4074,6.4642,6.5521,6.5683,6.5977,6.6495,6.6507,6.6378,6.6095,6.6107,6.6454,6.6923,6.7123,6.7725,6.8811,6.9653,6.9935,6.9822,6.9798,7.0129,7.0792,7.0792,7.0825,7.0924,7.1554,7.1927,7.1969,7.1969,7.2266,7.2912,7.2937,7.3532,7.4782,7.4856,7.518,7.5683,7.5783,7.5816,7.5856,7.568,7.5543,7.5468,7.6097,7.6517,7.6556,7.7047,7.7375,7.7506,7.7386,7.7221,7.6934,7.6883,7.6739,7.6645,7.6621,7.6621,7.6621,7.6718,7.6815,7.6815,7.6755,7.6528,7.5861,7.5748,7.5542,7.5016,7.4897,7.4897,7.4897,7.4897,7.4897,7.4897,7.4992,7.4992,7.5055,7.5529,7.6224,7.6792,7.7457,7.8057,7.8658,7.8847,7.8753,7.8658,7.8721,7.8879,7.8531,7.8784,7.8848,7.8911,7.91,7.91,7.91,7.91,7.91,7.91,7.91,7.91,7.3754,7.265,7.179,7.0775,6.9679,6.9041,6.8155,6.7123,6.7123,6.6705,6.6075,6.5756,6.5366,6.4893,6.4999,6.5076,6.502,6.526,6.5553,6.5915,6.6198,6.6479,6.6665,6.6665,6.6558,6.6412,6.6781,6.7064,6.7323,6.8104,6.8962,6.969,7.0043,7.0059,6.9822,7.0229,7.0593,7.0891,7.1753,7.2216,7.225,7.2481,7.2846,7.3268,7.3276,7.3641,7.4329,7.4403,7.4867,7.5794,7.5894,7.5993,7.6265,7.6291,7.6497,7.6894,7.7279,7.7377,7.727,7.7567,7.7732,7.7732,7.7969,7.8134,7.8101,7.7965,7.778,7.7472,7.7278,7.7092,7.6839,7.6815,7.6815,7.6815,7.6815,7.6815,7.6815,7.6641,7.6296,7.5861,7.5661,7.5398,7.5016,7.4897,7.4897,7.4897,7.4897,7.4929,7.4929,7.5245,7.5529,7.5656,7.6446,7.7014,7.7172,7.7963,7.8689,7.9005,7.91,7.91,7.91,7.91,7.91,7.91,7.91,7.91,7.9069,7.91,7.91,7.91,7.91,7.91,7.91,7.91,7.91,7.3967,7.3057,7.1951,7.0947,7.0136,6.9859,6.9042,6.7972,6.7919,6.7588,6.6987,6.6852,6.6512,6.5986,6.5928,6.5884,6.5945,6.6189,6.6343,6.6344,6.6659,6.6791,6.6791,6.6791,6.6842,6.6951,6.7423,6.7808,6.8125,6.9312,7.0138,7.0343,7.0316,7.0153,7.0007,7.0575,7.0991,7.1322,7.2481,7.321,7.3343,7.3409,7.3641,7.4163,7.4395,7.476,7.529,7.5455,7.5894,7.6556,7.6622,7.6722,7.6894,7.6894,7.7126,7.7656,7.8186,7.8484,7.8484,7.8484,7.8484,7.8484,7.8484,7.8457,7.8376,7.8215,7.7943,7.7499,7.7338,7.7092,7.6872,7.6815,7.6815,7.6815,7.6815,7.6815,7.6815,7.6496,7.621,7.5832,7.5606,7.5283,7.4986,7.4897,7.4897,7.4897,7.5087,7.5213,7.5276,7.5814,7.6286,7.6349,7.7267,7.771,7.7457,7.8247,7.9005,7.91,7.91,7.91,7.91,7.91,7.91,7.91,7.91,7.91,7.91,7.91,7.91,7.91,7.91,7.91,7.91,7.91,7.91,7.4111,7.3057,7.1841,7.1159,7.0943,7.0745,6.998,6.8769,6.8751,6.8099,6.7251,6.741,6.7537,6.738,6.65,6.6194,6.6563,6.6462,6.6636,6.7044,6.6883,6.6791,6.6791,6.6825,6.7163,6.7784,6.7987,6.8697,6.9982,7.0793,7.112,7.0848,7.0561,7.0386,7.0296,7.0722,7.1256,7.1985,7.278,7.3442,7.403,7.413,7.4163,7.4329,7.4892,7.5257,7.5422,7.596,7.6589,7.7351,7.7384,7.7623,7.8252,7.8318,7.8318,7.8418,7.8451,7.8484,7.8484,7.8484,7.8484,7.8484,7.8484,7.8376,7.8188,7.8107,7.7834,7.7283,7.7199,7.706,7.6839,7.6815,7.6815,7.6815,7.6815,7.6815,7.6783,7.6467,7.6181,7.5864,7.5579,7.5381,7.499,7.4897,7.5055,7.5182,7.5529,7.594,7.6035,7.6509,7.6888,7.7078,7.7552,7.8026,7.8026,7.8563,7.9005,7.91,7.91,7.91,7.91,7.91,7.91,7.91,7.91,7.91,7.91,7.91,7.91,7.91,7.91,7.91,7.91,7.91,7.91,7.3757,7.2263,7.1596,7.1195,7.1015,7.0869,7.037,6.9688,6.9548,6.9212,6.8713,6.8593,6.8435,6.8303,6.7758,6.7526,6.7566,6.7227,6.7196,6.7312,6.698,6.7028,6.7489,6.7523,6.7929,6.8639,6.9147,6.9891,7.0804,7.1154,7.1052,7.0676,7.0538,7.054,7.0719,7.1304,7.1985,7.2713,7.3409,7.3964,7.4229,7.466,7.4892,7.4925,7.5157,7.5754,7.6622,7.6861,7.7351,7.8053,7.8119,7.8219,7.8451,7.8484,7.8484,7.8484,7.8484,7.8484,7.8484,7.8484,7.8484,7.8484,7.8484,7.8376,7.8134,7.7916,7.761,7.7255,7.7036,7.6896,7.6872,7.6815,7.6815,7.6815,7.6815,7.6815,7.6698,7.6324,7.5919,7.5841,7.578,7.5712,7.5747,7.594,7.6224,7.6286,7.6508,7.6604,7.673,7.7204,7.7646,7.7773,7.8247,7.8721,7.8721,7.8879,7.91,7.91,7.91,7.91,7.91,7.91,7.91,7.91,7.91,7.91,7.91,7.91,7.91,7.91,7.91,7.91,7.91,7.91,7.91,7.3675,7.2263,7.1623,7.1227,7.0979,7.09,7.0598,7.0202,6.9991,6.9778,6.9561,6.9229,6.8948,6.8705,6.8494,6.828,6.8098,6.7739,6.7557,6.7489,6.7343,6.7485,6.7861,6.8166,6.8707,6.9451,7.0195,7.0838,7.1222,7.1289,7.1086,7.0631,7.0538,7.0707,7.106,7.1702,7.2382,7.3111,7.3832,7.4196,7.4296,7.4925,7.5422,7.5654,7.5827,7.639,7.7358,7.7623,7.7954,7.8418,7.8484,7.8484,7.8484,7.8484,7.8484,7.8484,7.8484,7.8484,7.8484,7.8484,7.8484,7.8484,7.8403,7.8242,7.7971,7.7637,7.7334,7.7088,7.6924,7.6815,7.6815,7.6815,7.6815,7.6815,7.6815,7.6755,7.6645,7.6378,7.6225,7.6219,7.6305,7.6348,7.6381,7.6729,7.6918,7.7013,7.7171,7.7299,7.7394,7.7899,7.8373,7.8405,7.8721,7.9005,7.9005,7.9069,7.91,7.91,7.91,7.91,7.91,7.91,7.91,7.91,7.91,7.91,7.91,7.91,7.91,7.91,7.91,7.91,7.91,7.91,7.91,7.3936,7.302,7.1998,7.1288,7.1012,7.0979,7.068,7.0237,6.9973,6.9796,6.9633,6.9248,6.8967,6.8705,6.8513,6.8299,6.8064,6.7899,6.7747,6.7646,6.7999,6.8142,6.8187,6.8808,6.9485,7.0195,7.0939,7.1255,7.1289,7.1289,7.1154,7.087,7.0685,7.0887,7.1318,7.185,7.2448,7.3177,7.3898,7.4196,7.4296,7.4991,7.5721,7.6324,7.6987,7.7358,7.7457,7.8086,7.8418,7.8484,7.8484,7.8484,7.8484,7.8484,7.8484,7.8484,7.8484,7.8484,7.8484,7.8484,7.8484,7.8457,7.8269,7.8025,7.7692,7.7389,7.7116,7.6896,7.6844,7.6815,7.6815,7.6815,7.6815,7.6815,7.6755,7.6641,7.6546,7.6682,7.6913,7.6941,7.695,7.7013,7.7013,7.7172,7.7329,7.7362,7.7678,7.7995,7.8057,7.8563,7.9005,7.9037,7.9069,7.91,7.91,7.91,7.91,7.91,7.91,7.91,7.91,7.91,7.91,7.91,7.91,7.91,7.91,7.91,7.91,7.91,7.91,7.91,7.91,7.91,7.91,7.3936,7.3087,7.1998,7.1304,7.1012,7.0996,7.0783,7.0375,7.0062,6.9849,6.9759,6.9432,6.908,6.8762,6.8628,6.8416,6.8083,6.8039,6.8114,6.8248,6.8292,6.874,6.9393,6.9722,7.0229,7.0906,7.1188,7.1289,7.1289,7.1289,7.1086,7.0754,7.1074,7.1427,7.1799,7.244,7.3111,7.3773,7.4097,7.4428,7.4958,7.5654,7.6324,7.7053,7.7755,7.8153,7.8153,7.8384,7.8484,7.8484,7.8484,7.8484,7.8484,7.8484,7.8484,7.8484,7.8484,7.8484,7.8484,7.8517,7.8517,7.8463,7.8242,7.7938,7.7637,7.7399,7.7125,7.6872,7.6815,7.6815,7.6815,7.6815,7.688,7.6815,7.6613,7.6668,7.6982,7.7182,7.7214,7.7105,7.7394,7.7646,7.7773,7.8026,7.831,7.831,7.8563,7.869,7.8753,7.8879,7.9069,7.91,7.91,7.91,7.91,7.91,7.91,7.91,7.91,7.91,7.91,7.91,7.91,7.91,7.91,7.91,7.91,7.91,7.91,7.91,7.91,7.91,7.91,7.91,7.91,7.4374,7.3561,7.2434,7.1557,7.1012,7.0996,7.0817,7.0497,7.0167,6.9991,6.9867,6.9597,6.9192,6.8781,6.8705,6.8474,6.8192,6.8394,6.8724,6.8952,6.8887,6.9347,7.0172,7.05,7.0838,7.1188,7.1289,7.1289,7.1289,7.1267,7.1007,7.0719,7.1229,7.1737,7.2034,7.2746,7.3442,7.4097,7.4196,7.4561,7.5257,7.596,7.6655,7.7391,7.8086,7.8451,7.8484,7.8484,7.8484,7.8484,7.8484,7.8484,7.8484,7.8484,7.8484,7.8484,7.8484,7.8484,7.8517,7.8782,7.886,7.8785,7.8738,7.8595,7.8289,7.7981,7.7759,7.7589,7.7625,7.7593,7.7593,7.7593,7.7532,7.7421,7.6958,7.7017,7.7585,7.7716,7.7796,7.7835,7.8215,7.8373,7.8532,7.8721,7.91,7.91,7.91,7.91,7.91,7.91,7.91,7.91,7.91,7.91,7.91,7.91,7.91,7.91,7.91,7.91,7.91,7.91,7.91,7.91,7.91,7.91,7.91,7.91,7.91,7.91,7.91,7.91,7.91,7.91,7.91,7.514,7.429,7.3159,7.1974,7.1048,7.0996,7.0817,7.0478,7.0272,7.0079,6.9867,6.967,6.9287,6.8819,6.8724,6.8528,6.8369,6.8897,6.9392,6.9678,6.9769,6.9999,7.0409,7.0939,7.1188,7.1255,7.1289,7.1289,7.1289,7.1244,7.1041,7.0773,7.1382,7.1804,7.2224,7.2813,7.3541,7.4097,7.4262,7.4693,7.5422,7.6059,7.6788,7.749,7.8153,7.8484,7.8484,7.8484,7.8484,7.8484,7.8484,7.8484,7.8484,7.8484,7.8484,7.8517,7.8517,7.8616,7.8749,7.9279,7.9534,7.9353,7.9504,7.9659,7.9146,7.8856,7.8654,7.8629,7.8694,7.8758,7.8726,7.8697,7.8523,7.8356,7.773,7.7751,7.8292,7.8179,7.831,7.8816,7.91,7.91,7.8974,7.9069,7.91,7.91,7.91,7.91,7.91,7.91,7.91,7.91,7.91,7.91,7.91,7.91,7.91,7.91,7.91,7.91,7.91,7.91,7.91,7.91,7.91,7.91,7.91,7.91,7.91,7.91,7.91,7.91,7.91,7.91,7.91,7.514,7.4306,7.3159,7.2062,7.1048,7.0996,7.0817,7.0478,7.0272,7.0114,6.9867,6.9688,6.9361,6.8986,6.8762,6.8849,6.9135,6.9267,6.977,7.0401,7.0495,7.0714,7.0973,7.1154,7.1289,7.1289,7.1289,7.1289,7.1289,7.1165,7.115,7.1362,7.1875,7.2401,7.2862,7.3475,7.3964,7.4262,7.476,7.5323,7.5993,7.6722,7.7457,7.8153,7.8384,7.8484,7.8484,7.8484,7.8484,7.8484,7.8484,7.8484,7.8517,7.855,7.8583,7.8682,7.9047,7.9312,7.9444,8.0001,8.0228,7.9985,7.9941,7.9659,7.9345,7.9062,7.8917,7.8888,7.8888,7.8953,7.8891,7.872,7.856,7.8467,7.8249,7.8163,7.8272,7.8562,7.8942,7.91,7.91,7.91,7.91,7.91,7.91,7.91,7.91,7.91,7.91,7.91,7.91,7.91,7.91,7.91,7.91,7.91,7.91,7.91,7.91,7.91,7.91,7.91,7.91,7.91,7.91,7.91,7.91,7.91,7.91,7.91,7.91,7.91,7.91,7.91,7.91,7.542,7.4249,7.3527,7.2351,7.1084,7.0996,7.0817,7.0531,7.0358,7.0167,6.9938,6.9778,6.9487,6.9096,6.8835,6.9042,6.954,6.9722,7.0148,7.0687,7.0927,7.1094,7.1266,7.1289,7.1289,7.1289,7.1289,7.1289,7.1312,7.131,7.1461,7.1707,7.2428,7.2894,7.3078,7.3832,7.4196,7.4329,7.4925,7.5628,7.6324,7.6994,7.7722,7.8318,7.8484,7.8484,7.8517,7.8782,7.8848,7.8583,7.8517,7.8616,7.8914,7.8947,7.908,7.9372,7.9836,8.004,8.02,8.073,8.0933,8.0636,8.0545,8.0488,8.0145,7.9883,7.9795,7.9827,7.9795,7.9707,7.953,7.9173,7.8945,7.8959,7.884,7.8685,7.8468,7.8847,7.9069,7.91,7.91,7.91,7.91,7.91,7.91,7.91,7.91,7.91,7.91,7.91,7.91,7.91,7.91,7.91,7.91,7.91,7.91,7.91,7.91,7.91,7.91,7.91,7.91,7.91,7.91,7.91,7.91,7.91,7.91,7.91,7.91,7.91,7.91,7.91,7.91,7.5794,7.4179,7.3986,7.2785,7.1137,7.0996,7.0817,7.0548,7.0463,7.0219,6.992,6.9902,6.956,6.9115,6.9028,6.92,6.9822,7.0309,7.0642,7.1007,7.116,7.1278,7.1278,7.1289,7.1289,7.1289,7.1289,7.1267,7.1312,7.1646,7.1851,7.2004,7.2823,7.3292,7.3426,7.3931,7.4163,7.4362,7.5091,7.5728,7.639,7.7152,7.7921,7.8384,7.8716,7.8716,7.8881,7.9245,7.9444,7.8782,7.8742,7.9146,7.9643,7.9709,7.9968,8.0465,8.0664,8.0796,8.0896,8.1436,8.1642,8.1226,8.1541,8.1675,8.0979,8.0766,8.0736,8.0704,8.0963,8.0622,8.0262,7.9873,7.9501,7.9348,7.9193,7.9132,7.91,7.91,7.91,7.91,7.91,7.91,7.91,7.91,7.91,7.91,7.91,7.91,7.91,7.91,7.91,7.91,7.91,7.91,7.91,7.91,7.91,7.91,7.91,7.91,7.91,7.91,7.91,7.9069,7.9006,7.9006,7.91,7.91,7.9037,7.91,7.91,7.91,7.91,7.91,7.91,7.5794,7.4179,7.3986,7.2785,7.1173,7.0979,7.0817,7.0514,7.0324,7.0149,6.9885,6.9724,6.9542,6.9372,6.9539,7.0023,7.0635,7.1055,7.1419,7.169,7.1377,7.1312,7.1289,7.1289,7.1289,7.1289,7.1289,7.1199,7.1186,7.1562,7.1918,7.2347,7.2894,7.3451,7.3931,7.403,7.4196,7.4395,7.5397,7.6092,7.653,7.7557,7.8285,7.855,7.9014,7.9312,7.951,8.0067,8.0366,8.0266,8.0233,8.0332,8.0432,8.0465,8.0598,8.0896,8.1326,8.1558,8.1663,8.193,8.2136,8.1791,8.16,8.144,8.1085,8.0995,8.0995,8.0995,8.0995,8.0756,8.0274,7.9846,7.9506,7.9257,7.9163,7.91,7.91,7.91,7.91,7.91,7.91,7.91,7.91,7.91,7.91,7.91,7.91,7.91,7.91,7.91,7.91,7.91,7.91,7.91,7.91,7.91,7.91,7.91,7.91,7.91,7.91,7.9006,7.8975,7.8943,7.8849,7.888,7.8912,7.888,7.8786,7.8943,7.9069,7.91,7.91,7.91,7.91,7.5746,7.4087,7.3872,7.2703,7.114,7.0933,7.0785,7.0514,7.0272,7.0097,6.9867,6.9688,6.9663,6.9753,6.9903,7.0406,7.1244,7.1608,7.1812,7.1851,7.1535,7.1312,7.1289,7.1289,7.1289,7.1289,7.1289,7.1289,7.1509,7.1882,7.2415,7.2883,7.336,7.379,7.413,7.4229,7.4428,7.4859,7.5728,7.6457,7.696,7.7855,7.8484,7.8616,7.9179,7.961,7.9643,8.0664,8.1128,8.1293,8.1492,8.1525,8.126,8.1227,8.1359,8.1757,8.2022,8.232,8.2396,8.2335,8.228,8.1996,8.1704,8.1381,8.1115,8.0995,8.0995,8.0995,8.0936,8.0756,8.0152,7.963,7.9288,7.9163,7.91,7.91,7.91,7.91,7.91,7.91,7.91,7.91,7.91,7.91,7.91,7.91,7.91,7.91,7.91,7.91,7.91,7.91,7.91,7.91,7.91,7.91,7.91,7.91,7.91,7.91,7.91,7.8975,7.8849,7.8786,7.8691,7.8533,7.8533,7.8533,7.8596,7.8786,7.8912,7.9006,7.91,7.91,7.91,7.5374,7.3707,7.3596,7.2512,7.1123,7.0869,7.0667,7.0445,7.0237,7.0026,6.9902,6.974,6.9974,7.0145,7.0368,7.0987,7.1698,7.1871,7.1973,7.1942,7.1513,7.1334,7.1289,7.1289,7.1289,7.1345,7.1424,7.1603,7.1911,7.2505,7.292,7.34,7.3924,7.4097,7.4163,7.4362,7.466,7.5223,7.6092,7.6788,7.7325,7.8086,7.8517,7.8881,7.9444,7.9974,8.0338,8.1227,8.1956,8.2022,8.2585,8.2486,8.2154,8.1989,8.2188,8.2817,8.2784,8.2751,8.2666,8.251,8.2227,8.1996,8.1617,8.1322,8.1055,8.0995,8.0995,8.0936,8.0878,8.0608,8.0122,7.9537,7.9226,7.91,7.91,7.91,7.91,7.91,7.91,7.91,7.91,7.91,7.91,7.91,7.91,7.91,7.91,7.91,7.91,7.91,7.91,7.91,7.91,7.91,7.91,7.91,7.91,7.9195,7.9163,7.9163,7.9132,7.888,7.8723,7.8627,7.8501,7.831,7.8246,7.8342,7.8437,7.8564,7.8817,7.9037,7.91,7.91,7.91,7.3954,7.2891,7.2765,7.2024,7.1087,7.0852,7.0582,7.0254,7.0062,6.9831,6.974,7.0137,7.0248,7.0492,7.1429,7.2067,7.2299,7.2176,7.1985,7.192,7.1535,7.1289,7.1289,7.1289,7.1323,7.1391,7.1659,7.1867,7.2036,7.271,7.3216,7.3368,7.3857,7.4196,7.4362,7.476,7.5091,7.5555,7.649,7.7192,7.7616,7.8219,7.8848,7.9312,8.0067,8.073,8.1393,8.2154,8.2718,8.2751,8.285,8.2817,8.2684,8.2651,8.2718,8.2817,8.2883,8.2883,8.277,8.2371,8.2112,8.188,8.147,8.1144,8.1025,8.0995,8.0995,8.0876,8.0608,8.0213,8.0091,7.9475,7.9194,7.91,7.91,7.91,7.91,7.91,7.91,7.91,7.91,7.91,7.91,7.91,7.91,7.91,7.91,7.91,7.91,7.91,7.91,7.91,7.91,7.91,7.91,7.91,7.9132,7.9258,7.929,7.929,7.9164,7.8786,7.8596,7.85,7.8182,7.7893,7.7925,7.8054,7.8278,7.8437,7.8754,7.9069,7.91,7.91,7.91,7.3563,7.2581,7.2417,7.1768,7.0957,7.0616,7.0411,7.0167,6.9867,6.9688,6.9772,7.0129,7.046,7.0826,7.1514,7.2257,7.2456,7.2202,7.2007,7.1876,7.1535,7.1289,7.1289,7.1289,7.156,7.1852,7.2205,7.2317,7.2242,7.2995,7.3459,7.3749,7.4064,7.4196,7.4362,7.4925,7.543,7.596,7.6828,7.759,7.7987,7.8649,7.9279,7.9709,8.0664,8.1393,8.179,8.2519,8.2883,8.2883,8.2883,8.2883,8.2883,8.2883,8.2883,8.2883,8.2883,8.2798,8.2628,8.2227,8.1938,8.1704,8.1263,8.1025,8.0995,8.0995,8.0995,8.0846,8.0487,8.0123,8.0093,7.9475,7.9163,7.91,7.91,7.91,7.91,7.91,7.91,7.91,7.91,7.91,7.91,7.91,7.91,7.91,7.91,7.91,7.91,7.91,7.91,7.91,7.9132,7.9195,7.9227,7.929,7.9479,7.9606,7.9637,7.9637,7.9543,7.9321,7.8783,7.8341,7.7989,7.7883,7.7505,7.7603,7.7925,7.8278,7.8564,7.8849,7.9006,7.91,7.9195,7.3084,7.225,7.2033,7.1491,7.0807,7.0358,7.0184,7.0079,6.976,6.9685,6.9841,7.0262,7.0779,7.1241,7.1729,7.223,7.2586,7.2159,7.1985,7.181,7.1513,7.1289,7.1289,7.1526,7.1808,7.2154,7.2771,7.2902,7.2988,7.3423,7.3775,7.4015,7.4163,7.4329,7.4594,7.5257,7.5827,7.6478,7.7173,7.7868,7.8436,7.9152,7.9709,7.9875,8.1128,8.1823,8.2121,8.2585,8.285,8.2883,8.2883,8.2883,8.2883,8.2883,8.2883,8.2883,8.2883,8.2713,8.2457,8.2169,8.188,8.1587,8.1204,8.1055,8.0995,8.0995,8.0995,8.0876,8.0456,8.0123,8.0031,7.9475,7.9163,7.91,7.91,7.91,7.91,7.91,7.91,7.91,7.9132,7.9163,7.9227,7.91,7.91,7.91,7.91,7.91,7.91,7.91,7.91,7.91,7.9163,7.9258,7.9385,7.9511,7.9859,8.0301,8.0333,8.0364,8.0205,8.0014,7.9443,7.8967,7.8546,7.8343,7.7744,7.7277,7.7732,7.8118,7.8374,7.8691,7.8975,7.929,7.9543,7.1669,7.142,7.1205,7.0988,7.0735,7.0341,7.0097,6.9885,6.9723,6.9911,7.0342,7.0937,7.1473,7.198,7.2347,7.2469,7.2318,7.2115,7.1876,7.1666,7.1412,7.1289,7.1391,7.2022,7.2088,7.2433,7.3179,7.3629,7.3684,7.394,7.4073,7.4163,7.4229,7.4461,7.5058,7.5643,7.6425,7.694,7.7633,7.8062,7.838,7.917,7.9941,8.0631,8.1393,8.2121,8.2552,8.2817,8.2883,8.2883,8.2883,8.2883,8.2883,8.2883,8.2883,8.2883,8.2855,8.2742,8.2399,8.2083,8.1792,8.147,8.1174,8.1025,8.0995,8.0995,8.0995,8.0966,8.0456,8.0122,8.0031,7.9506,7.9194,7.91,7.91,7.91,7.9132,7.9385,7.9353,7.9416,7.9543,7.9416,7.9385,7.9227,7.91,7.91,7.9132,7.9132,7.91,7.91,7.91,7.91,7.9385,7.9511,7.9764,7.9859,8.0396,8.0933,8.1028,8.106,8.0963,8.0771,8.0515,8.0035,7.9547,7.8843,7.8214,7.7908,7.7824,7.8208,7.8874,7.9005,7.9038,7.9416,7.9985,7.1292,7.113,7.0949,7.0699,7.041,7.0149,6.9938,6.9812,7.0018,7.0202,7.052,7.1392,7.2076,7.243,7.2651,7.2565,7.2309,7.2072,7.1854,7.1578,7.139,7.1289,7.1458,7.2033,7.2392,7.2821,7.3357,7.3943,7.4138,7.419,7.4196,7.4196,7.4229,7.4561,7.533,7.5811,7.6373,7.7019,7.7711,7.8304,7.8853,7.9672,8.0564,8.1293,8.2022,8.2519,8.2784,8.2883,8.2883,8.2883,8.2883,8.2883,8.2883,8.2855,8.2827,8.2628,8.2628,8.2485,8.2198,8.1909,8.1587,8.1322,8.1085,8.0995,8.0995,8.0995,8.0995,8.0995,8.0456,8.0152,8.0001,7.9506,7.9257,7.91,7.91,7.9163,7.9258,7.9606,7.9764,7.9859,7.9953,7.9953,7.9859,7.9574,7.9448,7.9416,7.9353,7.9321,7.9227,7.91,7.91,7.91,7.9479,7.9827,8.0143,8.0364,8.1028,8.1534,8.1723,8.1755,8.1755,8.1593,8.1336,8.0891,8.0316,7.9581,7.8816,7.8657,7.8821,7.9113,7.95,7.9665,7.9858,8.0269,8.0775,7.1114,7.0949,7.0836,7.0565,7.0184,7.0009,6.9778,6.9685,7.0131,7.0434,7.0822,7.1773,7.2526,7.263,7.2607,7.2437,7.2202,7.2007,7.1766,7.1546,7.1424,7.1447,7.1774,7.2292,7.285,7.3288,7.3806,7.4163,7.4298,7.4297,7.4196,7.4196,7.4494,7.4925,7.5485,7.6063,7.6609,7.7058,7.7626,7.8272,7.9046,8.0102,8.0967,8.1757,8.2419,8.2883,8.2883,8.2883,8.2883,8.2883,8.2883,8.2883,8.2883,8.277,8.2656,8.2424,8.228,8.2083,8.188,8.1646,8.1352,8.1115,8.0995,8.0995,8.0995,8.0995,8.0995,8.0995,8.0456,8.0152,8.0001,7.9506,7.9226,7.91,7.9132,7.9195,7.9385,7.9827,8.0238,8.0459,8.0617,8.0838,8.0617,8.0111,7.9859,7.9732,7.9637,7.9574,7.9574,7.9543,7.9669,7.9827,8.008,8.0522,8.0902,8.1249,8.1818,8.2102,8.2292,8.2418,8.2387,8.2354,8.2193,8.1684,8.1111,8.0977,8.0645,8.0199,7.9787,7.9932,8.0132,8.0579,8.0867,8.1248,8.1597,7.0933,7.0802,7.0785,7.0565,7.0167,6.9991,6.9778,6.9719,7.0106,7.0686,7.1408,7.2343,7.2763,7.2692,7.2459,7.2266,7.2007,7.1732,7.1568,7.139,7.1323,7.1684,7.2123,7.2705,7.3245,7.372,7.417,7.4323,7.4264,7.4247,7.4196,7.4262,7.476,7.5496,7.6068,7.6498,7.6812,7.7178,7.7555,7.8118,7.9006,8.0035,8.1061,8.1823,8.2486,8.2883,8.2883,8.2883,8.2883,8.2883,8.2883,8.2827,8.277,8.2628,8.2452,8.2194,8.1905,8.1704,8.1529,8.147,8.1322,8.1115,8.0995,8.0995,8.0995,8.0995,8.0995,8.0936,8.0456,8.0152,7.9939,7.9537,7.9163,7.9163,7.9258,7.9543,7.9795,8.0238,8.0649,8.0996,8.1344,8.1628,8.1692,8.1249,8.0649,8.0522,8.0459,8.0396,8.0554,8.0585,8.0712,8.087,8.0965,8.1344,8.185,8.2229,8.2418,8.2608,8.2798,8.2924,8.2954,8.2954,8.2732,8.2666,8.2251,8.2369,8.233,8.1537,8.0908,8.0664,8.0797,8.137,8.1688,8.1912,8.2355,7.0785,7.0599,7.0461,7.0272,7.0009,6.9796,6.988,7.0241,7.0661,7.1453,7.2328,7.2666,7.2776,7.2628,7.2416,7.2202,7.1985,7.171,7.1501,7.1379,7.1357,7.1751,7.2337,7.2894,7.3332,7.3815,7.4305,7.4481,7.4247,7.4196,7.4196,7.4395,7.4966,7.5499,7.6109,7.6724,7.7012,7.7102,7.7497,7.8167,7.9388,8.02,8.126,8.2453,8.2618,8.2883,8.2883,8.2883,8.2883,8.2883,8.2883,8.2798,8.2656,8.2452,8.2223,8.1934,8.1584,8.1408,8.1263,8.1204,8.1115,8.1085,8.0995,8.0995,8.0995,8.0995,8.0995,8.0816,8.0456,8.0154,7.9999,7.9506,7.9132,7.9227,7.9448,7.9795,8.0301,8.0775,8.1249,8.1723,8.2197,8.2544,8.2576,8.2482,8.185,8.1312,8.1281,8.1249,8.1376,8.1439,8.1534,8.1628,8.1723,8.1818,8.226,8.2608,8.2892,8.305,8.3175,8.3175,8.3175,8.3175,8.3049,8.3109,8.3141,8.2914,8.269,8.2374,8.2058,8.1742,8.1935,8.2382,8.2574,8.2608,8.2861,7.065,7.0375,7.0184,7.0044,6.9867,6.9688,6.9928,7.0532,7.0965,7.1852,7.2866,7.2755,7.2649,7.2544,7.2331,7.2072,7.1854,7.1612,7.1434,7.1458,7.1594,7.201,7.2549,7.3114,7.3634,7.4019,7.4231,7.4347,7.4221,7.4196,7.4362,7.4701,7.5121,7.5634,7.599,7.6687,7.706,7.7008,7.767,7.8494,7.9725,8.0662,8.1525,8.2684,8.2883,8.2883,8.2883,8.2883,8.2883,8.2883,8.2855,8.2713,8.2481,8.2252,8.1992,8.1675,8.1411,8.1233,8.1085,8.0995,8.0995,8.0995,8.0995,8.0995,8.0995,8.0995,8.0995,8.0936,8.0487,8.0123,8.003,7.9506,7.9384,7.9511,7.9732,8.0111,8.0933,8.1502,8.1976,8.245,8.2829,8.3018,8.2954,8.2892,8.264,8.2197,8.2229,8.2166,8.2166,8.2197,8.2134,8.2229,8.2324,8.2418,8.2545,8.2829,8.305,8.3049,8.3175,8.3175,8.3175,8.3175,8.3175,8.3175,8.3142,8.3175,8.3048,8.2759,8.2755,8.2783,8.2884,8.2921,8.2954,8.2924,8.2986,7.0565,7.0184,7.0009,6.9885,6.9867,6.967,6.9998,7.0634,7.1054,7.179,7.2686,7.2692,7.2565,7.2352,7.2137,7.192,7.1678,7.1434,7.1379,7.1548,7.1966,7.2561,7.307,7.3563,7.3915,7.4364,7.4431,7.4247,7.4196,7.4196,7.4528,7.5154,7.5594,7.5984,7.6023,7.6758,7.7027,7.7021,7.8019,7.893,7.9847,8.0954,8.1999,8.2651,8.2883,8.2883,8.2883,8.2883,8.2883,8.2883,8.2827,8.2656,8.2367,8.2112,8.1821,8.1499,8.1204,8.1055,8.0995,8.0995,8.0995,8.0995,8.0995,8.0995,8.0995,8.0995,8.0966,8.0846,8.0426,8.0122,7.9846,7.9632,7.9669,7.9859,8.0111,8.068,8.1502,8.2134,8.2576,8.2829,8.3019,8.3175,8.3175,8.3144,8.3144,8.3018,8.3112,8.3049,8.286,8.2765,8.2607,8.2638,8.2766,8.2829,8.2892,8.305,8.3144,8.3175,8.3175,8.3175,8.3175,8.3175,8.3175,8.3175,8.3175,8.3175,8.3175,8.3144,8.3076,8.3043,8.3076,8.3112,8.3175,8.3175,8.3175,7.0463,7.0184,6.9991,6.9813,6.974,7.0087,7.0515,7.1109,7.1902,7.2479,7.2665,7.2692,7.2544,7.2309,7.2072,7.1854,7.1578,7.1424,7.1424,7.2022,7.2371,7.3044,7.3551,7.3836,7.4094,7.4406,7.4347,7.4196,7.4196,7.4262,7.466,7.5253,7.605,7.6484,7.6698,7.699,7.6868,7.7025,7.7996,7.9079,7.9856,8.1091,8.2154,8.285,8.2883,8.2883,8.2883,8.2883,8.2883,8.2855,8.277,8.2485,8.2169,8.188,8.1558,8.1263,8.0995,8.0995,8.0995,8.0995,8.0995,8.0995,8.0995,8.0995,8.0995,8.0995,8.0906,8.0666,8.0305,8.003,7.9691,7.9857,7.9985,8.0269,8.0649,8.1407,8.2166,8.264,8.305,8.3082,8.3175,8.3142,8.3142,8.3175,8.3175,8.3175,8.3175,8.3175,8.3049,8.3049,8.2986,8.2986,8.3049,8.3112,8.3175,8.3175,8.3175,8.3175,8.3175,8.3175,8.3175,8.3175,8.3175,8.3175,8.3175,8.3175,8.3175,8.3175,8.3175,8.3175,8.3175,8.3175,8.3175,8.3175,8.3175,7.0324,7.0097,6.9973,6.9724,6.9648,7.0239,7.0909,7.1682,7.2559,7.288,7.2713,7.2607,7.2416,7.218,7.1963,7.1744,7.1501,7.1706,7.1785,7.2439,7.2911,7.341,7.3845,7.4074,7.4214,7.4381,7.4322,7.4196,7.4229,7.4461,7.5062,7.5833,7.644,7.6746,7.6958,7.6863,7.6868,7.7296,7.8304,7.943,8.0283,8.1312,8.2419,8.2751,8.2883,8.2883,8.2883,8.2883,8.2883,8.2798,8.26,8.2285,8.1996,8.1675,8.1352,8.1115,8.0995,8.0995,8.0995,8.0995,8.0995,8.0995,8.0995,8.0995,8.0966,8.0876,8.0726,8.0485,8.0184,8.01,8.0044,8.0207,8.0364,8.0648,8.1182,8.1939,8.2248,8.2687,8.2781,8.2878,8.2911,8.2911,8.3042,8.3142,8.3175,8.3175,8.3175,8.3175,8.3175,8.3175,8.3175,8.3175,8.3175,8.3175,8.3175,8.3175,8.3175,8.3175,8.3175,8.3175,8.3175,8.3175,8.3175,8.3175,8.3142,8.3142,8.3175,8.3175,8.3142,8.3142,8.3175,8.3175,8.3175,8.3175,8.3175,7.0254,6.9902,6.9867,6.9687,6.9571,7.0216,7.1159,7.2235,7.2776,7.288,7.2671,7.2437,7.2245,7.1985,7.1732,7.1523,7.1514,7.2022,7.2338,7.2776,7.3447,7.3826,7.4098,7.4321,7.4331,7.4256,7.4196,7.4196,7.4296,7.4889,7.5687,7.6374,7.6801,7.6953,7.6891,7.6839,7.6989,7.7664,7.8756,7.9814,8.0626,8.1892,8.2623,8.2883,8.2883,8.2883,8.2883,8.2883,8.2883,8.277,8.2571,8.2285,8.1967,8.1643,8.1352,8.1115,8.0995,8.1028,8.1157,8.119,8.1319,8.1449,8.1319,8.1157,8.0938,8.0793,8.0773,8.0563,8.0321,8.0423,8.049,8.0586,8.0709,8.1083,8.1549,8.195,8.2124,8.2276,8.2276,8.234,8.2374,8.2441,8.2709,8.2844,8.3076,8.3076,8.3076,8.3175,8.3175,8.3175,8.3175,8.3175,8.3175,8.3175,8.3175,8.3175,8.3175,8.3175,8.3175,8.3175,8.3175,8.3142,8.3043,8.301,8.3108,8.3075,8.2878,8.2911,8.301,8.3043,8.2977,8.3142,8.3142,8.3175,8.3207,7.0132,6.9902,6.9742,6.9578,6.9586,7.0441,7.1559,7.2706,7.2811,7.2734,7.2692,7.2416,7.218,7.2019,7.171,7.1501,7.165,7.201,7.2561,7.312,7.3834,7.4161,7.4395,7.4497,7.4423,7.4272,7.4196,7.4204,7.4451,7.5176,7.5818,7.6251,7.6901,7.6939,7.6868,7.6815,7.7333,7.8074,7.9266,8.0133,8.1073,8.2246,8.2756,8.2883,8.2883,8.2883,8.2883,8.2883,8.2883,8.2798,8.2371,8.2054,8.1996,8.1499,8.1055,8.1025,8.106,8.1157,8.1643,8.1772,8.1964,8.2321,8.2387,8.1654,8.1242,8.0966,8.1041,8.0798,8.0742,8.0872,8.0967,8.1057,8.1144,8.1386,8.1753,8.1896,8.2037,8.2003,8.2003,8.2003,8.2003,8.2138,8.2374,8.2709,8.2909,8.2942,8.3009,8.3109,8.3175,8.3175,8.3175,8.3175,8.3175,8.3175,8.3175,8.3175,8.3175,8.3175,8.3175,8.3142,8.3076,8.301,8.2909,8.2842,8.2776,8.2642,8.2441,8.2542,8.2678,8.2642,8.2609,8.2909,8.3108,8.3174,8.3108,7.0097,6.9902,6.9688,6.9749,7.0129,7.0639,7.1666,7.2707,7.2755,7.2649,7.2523,7.2288,7.205,7.181,7.159,7.1424,7.1413,7.2405,7.2989,7.3184,7.4052,7.4399,7.4597,7.4506,7.4322,7.4221,7.4237,7.4286,7.4662,7.5391,7.6109,7.6603,7.7018,7.6887,7.6872,7.6937,7.7682,7.8583,7.9613,8.0485,8.1487,8.2434,8.2756,8.2883,8.2883,8.2883,8.2883,8.2883,8.2827,8.2685,8.2198,8.1938,8.1792,8.1293,8.1025,8.106,8.1384,8.1611,8.1997,8.2418,8.2742,8.3035,8.3105,8.2375,8.1868,8.1587,8.1405,8.1187,8.1316,8.141,8.15,8.1553,8.1604,8.1651,8.1761,8.187,8.1833,8.1765,8.1765,8.1765,8.1799,8.1901,8.2138,8.2475,8.2743,8.2842,8.2975,8.3142,8.3175,8.3175,8.3175,8.3175,8.3175,8.3175,8.3175,8.3175,8.3175,8.3175,8.3175,8.3142,8.3043,8.2876,8.2709,8.2542,8.2374,8.2239,8.2138,8.2206,8.2307,8.2273,8.2374,8.2709,8.2975,8.3141,8.3009,7.0079,6.9867,6.9687,7.0054,7.0882,7.0804,7.1482,7.2644,7.2692,7.2565,7.2331,7.2094,7.1876,7.1644,7.1434,7.1356,7.1672,7.2585,7.3076,7.3134,7.4238,7.4704,7.4489,7.4322,7.4247,7.4221,7.4194,7.4313,7.4931,7.5629,7.6397,7.7139,7.6952,7.6844,7.6844,7.6815,7.7682,7.9271,7.9861,8.0452,8.1727,8.2519,8.2883,8.2883,8.2883,8.2883,8.2883,8.2827,8.2742,8.2457,8.2108,8.185,8.147,8.1204,8.1055,8.1222,8.1578,8.2062,8.245,8.2904,8.3292,8.3362,8.308,8.2897,8.2711,8.2203,8.1951,8.1729,8.1822,8.1912,8.1998,8.1827,8.178,8.1663,8.161,8.156,8.1457,8.1423,8.1423,8.1423,8.1492,8.1594,8.1697,8.1972,8.2343,8.2609,8.2876,8.3043,8.3175,8.3175,8.3175,8.3175,8.3175,8.3175,8.3175,8.3175,8.3175,8.3175,8.3239,8.3043,8.2909,8.2676,8.2475,8.2172,8.1867,8.1969,8.1969,8.1935,8.1901,8.1969,8.2138,8.2508,8.2776,8.3038,8.2876,6.9956,6.9831,6.9414,6.9913,7.0913,7.0764,7.1462,7.2657,7.2692,7.2544,7.2309,7.2072,7.1854,7.1556,7.1367,7.1289,7.1695,7.2582,7.2932,7.3299,7.4186,7.4597,7.4347,7.4247,7.4196,7.412,7.4166,7.4398,7.5111,7.5788,7.6344,7.6859,7.6815,7.6815,7.6815,7.6844,7.7775,7.9589,7.9927,8.0772,8.2279,8.2684,8.2883,8.2883,8.2883,8.2883,8.2883,8.2883,8.2713,8.2395,8.2141,8.1704,8.1144,8.1055,8.0995,8.1125,8.1772,8.2353,8.2968,8.3551,8.4069,8.4462,8.4372,8.4121,8.3707,8.3004,8.2524,8.233,8.2292,8.241,8.2366,8.2162,8.1922,8.1641,8.1392,8.1251,8.1113,8.1113,8.1082,8.1117,8.1186,8.1255,8.1323,8.1563,8.1938,8.2276,8.2609,8.2876,8.3109,8.3175,8.3175,8.3175,8.3175,8.3175,8.3239,8.3397,8.3491,8.3491,8.3588,8.3229,8.2805,8.2307,8.1901,8.1594,8.1354,8.1553,8.1653,8.142,8.142,8.1777,8.228,8.2809,8.2954,8.3124,8.2801,6.9831,6.9723,6.9174,6.9725,7.0823,7.0718,7.138,7.2519,7.2565,7.2395,7.218,7.2029,7.181,7.1523,7.1356,7.156,7.1819,7.2692,7.313,7.3538,7.3914,7.4281,7.4297,7.4171,7.407,7.4034,7.4379,7.4829,7.5473,7.6089,7.6604,7.6811,7.6815,7.6815,7.6815,7.6969,7.7751,7.9512,7.9687,8.0847,8.252,8.2798,8.2883,8.2883,8.2883,8.2883,8.2883,8.2855,8.26,8.2198,8.1792,8.147,8.1085,8.1025,8.119,8.1611,8.2223,8.2904,8.3584,8.4231,8.4845,8.5076,8.4795,8.4219,8.4059,8.3386,8.2965,8.2767,8.2799,8.2886,8.2452,8.2148,8.1743,8.1461,8.1255,8.1148,8.1113,8.1113,8.1082,8.1082,8.1117,8.1151,8.1255,8.1461,8.1836,8.2206,8.2508,8.2842,8.3043,8.3207,8.3207,8.3303,8.34,8.3556,8.3777,8.3904,8.3999,8.3967,8.3967,8.3631,8.3231,8.2085,8.132,8.1371,8.1394,8.1398,8.1363,8.1483,8.1817,8.2397,8.2817,8.3267,8.3318,8.3463,8.3559,6.9742,6.947,6.8951,6.9556,7.0799,7.0577,7.1277,7.2512,7.2416,7.2202,7.2007,7.1963,7.1656,7.1424,7.1323,7.183,7.2291,7.271,7.3203,7.3675,7.4231,7.4331,7.4247,7.4146,7.4016,7.4208,7.4627,7.5229,7.5884,7.6433,7.6742,7.6811,7.6815,7.6815,7.6815,7.7001,7.7694,7.9048,7.9831,8.077,8.1835,8.2713,8.2827,8.2883,8.2883,8.2883,8.2855,8.2742,8.2485,8.1996,8.144,8.1174,8.1055,8.1028,8.1449,8.187,8.2612,8.3325,8.4069,8.4749,8.5105,8.5174,8.4603,8.4283,8.409,8.3765,8.3309,8.3144,8.3175,8.2911,8.2475,8.2037,8.1663,8.132,8.1151,8.1082,8.1082,8.1082,8.1082,8.1082,8.1082,8.1082,8.1186,8.1392,8.1731,8.2104,8.2475,8.2809,8.3075,8.3237,8.3302,8.3559,8.3783,8.4003,8.419,8.4506,8.4601,8.4662,8.4627,8.4221,8.365,8.2689,8.1995,8.1672,8.1698,8.1883,8.2037,8.2222,8.2587,8.2996,8.3337,8.3735,8.4106,8.4282,8.4706,6.9633,6.919,6.8854,6.9513,7.062,7.0482,7.1277,7.2512,7.2416,7.218,7.1963,7.1766,7.1523,7.1289,7.1289,7.1695,7.2298,7.2704,7.3055,7.3489,7.409,7.4231,7.4146,7.3976,7.3952,7.4234,7.4718,7.5299,7.6039,7.6576,7.6815,7.6815,7.6815,7.6815,7.6815,7.7066,7.7573,7.8869,7.9659,8.044,8.1881,8.2628,8.2827,8.2883,8.2883,8.2713,8.2567,8.2481,8.2108,8.1675,8.1263,8.1055,8.0995,8.106,8.1481,8.2191,8.2904,8.3584,8.4296,8.4911,8.5235,8.5174,8.4699,8.4283,8.4025,8.3602,8.3274,8.3142,8.301,8.2709,8.2273,8.187,8.1529,8.1255,8.1082,8.1082,8.1082,8.1082,8.1082,8.1082,8.1082,8.1082,8.1082,8.1354,8.156,8.1935,8.2239,8.2609,8.3141,8.3269,8.346,8.3878,8.4264,8.426,8.4383,8.5079,8.5267,8.536,8.5222,8.4716,8.4172,8.3418,8.282,8.2345,8.2433,8.2679,8.2833,8.2895,8.3256,8.3644,8.388,8.4206,8.4673,8.5138,8.5564]}]]